<?xml version='1.0' encoding='UTF-8'?>
<gpx version="1.1" creator="https://www.komoot.de" xmlns="http://www.topografix.com/GPX/1/1" xmlns:xsi="http://www.w3.org/2001/XMLSchema-instance" xsi:schemaLocation="http://www.topografix.com/GPX/1/1 http://www.topografix.com/GPX/1/1/gpx.xsd">
  <metadata>
    <name>70_1100SifluDietisbRuenenb</name>
    <author>
      <link href="https://www.komoot.de">
        <text>komoot</text>
        <type>text/html</type>
      </link>
    </author>
  </metadata>
  <trk>
    <name>70_1100SifluDietisbRuenenb</name>
    <trkseg>
      <trkpt lat="47.541452" lon="7.870759">
        <ele>339.088469</ele>
        <time>2021-11-20T17:19:04.255Z</time>
      </trkpt>
      <trkpt lat="47.541576" lon="7.870664">
        <ele>339.088469</ele>
        <time>2021-11-20T17:19:06.068Z</time>
      </trkpt>
      <trkpt lat="47.541550" lon="7.870601">
        <ele>339.088469</ele>
        <time>2021-11-20T17:19:06.878Z</time>
      </trkpt>
      <trkpt lat="47.541521" lon="7.870517">
        <ele>339.088469</ele>
        <time>2021-11-20T17:19:07.935Z</time>
      </trkpt>
      <trkpt lat="47.541606" lon="7.870424">
        <ele>339.088469</ele>
        <time>2021-11-20T17:19:09.674Z</time>
      </trkpt>
      <trkpt lat="47.541910" lon="7.870106">
        <ele>339.088469</ele>
        <time>2021-11-20T17:19:15.514Z</time>
      </trkpt>
      <trkpt lat="47.542014" lon="7.870126">
        <ele>339.088469</ele>
        <time>2021-11-20T17:19:17.022Z</time>
      </trkpt>
      <trkpt lat="47.542118" lon="7.870135">
        <ele>339.047246</ele>
        <time>2021-11-20T17:19:18.774Z</time>
      </trkpt>
      <trkpt lat="47.542181" lon="7.870131">
        <ele>338.983364</ele>
        <time>2021-11-20T17:19:19.662Z</time>
      </trkpt>
      <trkpt lat="47.542317" lon="7.870012">
        <ele>338.823347</ele>
        <time>2021-11-20T17:19:21.856Z</time>
      </trkpt>
      <trkpt lat="47.542348" lon="7.869983">
        <ele>338.786204</ele>
        <time>2021-11-20T17:19:22.302Z</time>
      </trkpt>
      <trkpt lat="47.542329" lon="7.869820">
        <ele>338.673083</ele>
        <time>2021-11-20T17:19:24.096Z</time>
      </trkpt>
      <trkpt lat="47.542372" lon="7.869746">
        <ele>338.606310</ele>
        <time>2021-11-20T17:19:24.920Z</time>
      </trkpt>
      <trkpt lat="47.542657" lon="7.869354">
        <ele>338.212322</ele>
        <time>2021-11-20T17:19:29.779Z</time>
      </trkpt>
      <trkpt lat="47.542696" lon="7.869257">
        <ele>338.135112</ele>
        <time>2021-11-20T17:19:30.714Z</time>
      </trkpt>
      <trkpt lat="47.542722" lon="7.869201">
        <ele>338.088632</ele>
        <time>2021-11-20T17:19:31.306Z</time>
      </trkpt>
      <trkpt lat="47.543049" lon="7.868759">
        <ele>337.640181</ele>
        <time>2021-11-20T17:19:36.219Z</time>
      </trkpt>
      <trkpt lat="47.543105" lon="7.868711">
        <ele>337.574637</ele>
        <time>2021-11-20T17:19:36.957Z</time>
      </trkpt>
      <trkpt lat="47.543201" lon="7.868657">
        <ele>337.470607</ele>
        <time>2021-11-20T17:19:38.035Z</time>
      </trkpt>
      <trkpt lat="47.543657" lon="7.868359">
        <ele>336.899805</ele>
        <time>2021-11-20T17:19:43.831Z</time>
      </trkpt>
      <trkpt lat="47.543801" lon="7.868269">
        <ele>336.706769</ele>
        <time>2021-11-20T17:19:46.310Z</time>
      </trkpt>
      <trkpt lat="47.544214" lon="7.867988">
        <ele>336.145441</ele>
        <time>2021-11-20T17:19:53.927Z</time>
      </trkpt>
      <trkpt lat="47.544246" lon="7.867967">
        <ele>336.102213</ele>
        <time>2021-11-20T17:19:54.523Z</time>
      </trkpt>
      <trkpt lat="47.544410" lon="7.867825">
        <ele>335.867595</ele>
        <time>2021-11-20T17:19:57.776Z</time>
      </trkpt>
      <trkpt lat="47.544469" lon="7.867776">
        <ele>335.784054</ele>
        <time>2021-11-20T17:19:58.798Z</time>
      </trkpt>
      <trkpt lat="47.544568" lon="7.867693">
        <ele>335.643555</ele>
        <time>2021-11-20T17:20:00.725Z</time>
      </trkpt>
      <trkpt lat="47.545003" lon="7.867278">
        <ele>335.078742</ele>
        <time>2021-11-20T17:20:09.574Z</time>
      </trkpt>
      <trkpt lat="47.545160" lon="7.866985">
        <ele>335.341649</ele>
        <time>2021-11-20T17:20:14.224Z</time>
      </trkpt>
      <trkpt lat="47.545240" lon="7.866887">
        <ele>335.449727</ele>
        <time>2021-11-20T17:20:16.498Z</time>
      </trkpt>
      <trkpt lat="47.546096" lon="7.866147">
        <ele>336.481582</ele>
        <time>2021-11-20T17:20:41.568Z</time>
      </trkpt>
      <trkpt lat="47.546327" lon="7.865959">
        <ele>336.755986</ele>
        <time>2021-11-20T17:20:49.305Z</time>
      </trkpt>
      <trkpt lat="47.546510" lon="7.865766">
        <ele>337.053751</ele>
        <time>2021-11-20T17:20:56.406Z</time>
      </trkpt>
      <trkpt lat="47.546819" lon="7.865489">
        <ele>337.761473</ele>
        <time>2021-11-20T17:21:06.637Z</time>
      </trkpt>
      <trkpt lat="47.546889" lon="7.865225">
        <ele>338.136634</ele>
        <time>2021-11-20T17:21:11.829Z</time>
      </trkpt>
      <trkpt lat="47.546894" lon="7.864837">
        <ele>338.649925</ele>
        <time>2021-11-20T17:21:19.248Z</time>
      </trkpt>
      <trkpt lat="47.546885" lon="7.864500">
        <ele>339.096016</ele>
        <time>2021-11-20T17:21:26.037Z</time>
      </trkpt>
      <trkpt lat="47.546877" lon="7.864345">
        <ele>339.301629</ele>
        <time>2021-11-20T17:21:28.931Z</time>
      </trkpt>
      <trkpt lat="47.546592" lon="7.863006">
        <ele>340.672848</ele>
        <time>2021-11-20T17:21:54.940Z</time>
      </trkpt>
      <trkpt lat="47.546526" lon="7.861665">
        <ele>341.245745</ele>
        <time>2021-11-20T17:22:15.672Z</time>
      </trkpt>
      <trkpt lat="47.546487" lon="7.859119">
        <ele>341.187178</ele>
        <time>2021-11-20T17:22:48.292Z</time>
      </trkpt>
      <trkpt lat="47.546537" lon="7.857497">
        <ele>340.864980</ele>
        <time>2021-11-20T17:23:09.304Z</time>
      </trkpt>
      <trkpt lat="47.546582" lon="7.856413">
        <ele>340.679196</ele>
        <time>2021-11-20T17:23:23.658Z</time>
      </trkpt>
      <trkpt lat="47.546945" lon="7.851719">
        <ele>339.197221</ele>
        <time>2021-11-20T17:24:24.692Z</time>
      </trkpt>
      <trkpt lat="47.547141" lon="7.850355">
        <ele>338.238805</ele>
        <time>2021-11-20T17:24:40.258Z</time>
      </trkpt>
      <trkpt lat="47.547143" lon="7.849985">
        <ele>337.783576</ele>
        <time>2021-11-20T17:24:44.166Z</time>
      </trkpt>
      <trkpt lat="47.547124" lon="7.848795">
        <ele>336.190429</ele>
        <time>2021-11-20T17:24:56.764Z</time>
      </trkpt>
      <trkpt lat="47.547274" lon="7.845536">
        <ele>332.200105</ele>
        <time>2021-11-20T17:25:31.523Z</time>
      </trkpt>
      <trkpt lat="47.547295" lon="7.844722">
        <ele>331.487645</ele>
        <time>2021-11-20T17:25:41.006Z</time>
      </trkpt>
      <trkpt lat="47.547313" lon="7.843735">
        <ele>331.250832</ele>
        <time>2021-11-20T17:25:53.409Z</time>
      </trkpt>
      <trkpt lat="47.547354" lon="7.842839">
        <ele>331.035439</ele>
        <time>2021-11-20T17:26:05.597Z</time>
      </trkpt>
      <trkpt lat="47.547448" lon="7.842262">
        <ele>330.878501</ele>
        <time>2021-11-20T17:26:13.928Z</time>
      </trkpt>
      <trkpt lat="47.547362" lon="7.841665">
        <ele>330.594969</ele>
        <time>2021-11-20T17:26:22.175Z</time>
      </trkpt>
      <trkpt lat="47.547339" lon="7.841072">
        <ele>330.319085</ele>
        <time>2021-11-20T17:26:29.711Z</time>
      </trkpt>
      <trkpt lat="47.547332" lon="7.840572">
        <ele>330.086800</ele>
        <time>2021-11-20T17:26:35.754Z</time>
      </trkpt>
      <trkpt lat="47.547300" lon="7.838688">
        <ele>328.513416</ele>
        <time>2021-11-20T17:26:56.942Z</time>
      </trkpt>
      <trkpt lat="47.547293" lon="7.838254">
        <ele>328.005457</ele>
        <time>2021-11-20T17:27:01.563Z</time>
      </trkpt>
      <trkpt lat="47.547276" lon="7.837287">
        <ele>326.873605</ele>
        <time>2021-11-20T17:27:11.815Z</time>
      </trkpt>
      <trkpt lat="47.547240" lon="7.836221">
        <ele>325.570336</ele>
        <time>2021-11-20T17:27:23.234Z</time>
      </trkpt>
      <trkpt lat="47.547190" lon="7.835066">
        <ele>324.136749</ele>
        <time>2021-11-20T17:27:35.803Z</time>
      </trkpt>
      <trkpt lat="47.547020" lon="7.831965">
        <ele>320.368292</ele>
        <time>2021-11-20T17:28:09.603Z</time>
      </trkpt>
      <trkpt lat="47.546946" lon="7.830852">
        <ele>318.908220</ele>
        <time>2021-11-20T17:28:21.635Z</time>
      </trkpt>
      <trkpt lat="47.546823" lon="7.829336">
        <ele>316.865633</ele>
        <time>2021-11-20T17:28:37.827Z</time>
      </trkpt>
      <trkpt lat="47.546721" lon="7.828140">
        <ele>315.118785</ele>
        <time>2021-11-20T17:28:50.538Z</time>
      </trkpt>
      <trkpt lat="47.546592" lon="7.826850">
        <ele>313.183746</ele>
        <time>2021-11-20T17:29:04.004Z</time>
      </trkpt>
      <trkpt lat="47.546574" lon="7.826239">
        <ele>312.365834</ele>
        <time>2021-11-20T17:29:10.450Z</time>
      </trkpt>
      <trkpt lat="47.546589" lon="7.825597">
        <ele>311.752051</ele>
        <time>2021-11-20T17:29:17.271Z</time>
      </trkpt>
      <trkpt lat="47.546693" lon="7.825618">
        <ele>311.603473</ele>
        <time>2021-11-20T17:29:18.938Z</time>
      </trkpt>
      <trkpt lat="47.547233" lon="7.825872">
        <ele>310.801480</ele>
        <time>2021-11-20T17:29:28.061Z</time>
      </trkpt>
      <trkpt lat="47.547666" lon="7.826091">
        <ele>310.153818</ele>
        <time>2021-11-20T17:29:35.760Z</time>
      </trkpt>
      <trkpt lat="47.548237" lon="7.826410">
        <ele>310.425012</ele>
        <time>2021-11-20T17:29:49.135Z</time>
      </trkpt>
      <trkpt lat="47.548679" lon="7.826710">
        <ele>310.865963</ele>
        <time>2021-11-20T17:30:00.433Z</time>
      </trkpt>
      <trkpt lat="47.549105" lon="7.827067">
        <ele>311.309862</ele>
        <time>2021-11-20T17:30:12.700Z</time>
      </trkpt>
      <trkpt lat="47.549143" lon="7.827110">
        <ele>311.353230</ele>
        <time>2021-11-20T17:30:14.710Z</time>
      </trkpt>
      <trkpt lat="47.550183" lon="7.828277">
        <ele>312.907927</ele>
        <time>2021-11-20T17:30:50.898Z</time>
      </trkpt>
      <trkpt lat="47.550522" lon="7.828744">
        <ele>313.496643</ele>
        <time>2021-11-20T17:31:02.781Z</time>
      </trkpt>
      <trkpt lat="47.550675" lon="7.828955">
        <ele>313.762481</ele>
        <time>2021-11-20T17:31:07.043Z</time>
      </trkpt>
      <trkpt lat="47.551640" lon="7.830558">
        <ele>312.862237</ele>
        <time>2021-11-20T17:31:33.819Z</time>
      </trkpt>
      <trkpt lat="47.552065" lon="7.831350">
        <ele>312.045099</ele>
        <time>2021-11-20T17:31:44.841Z</time>
      </trkpt>
      <trkpt lat="47.552251" lon="7.831814">
        <ele>311.297024</ele>
        <time>2021-11-20T17:31:50.582Z</time>
      </trkpt>
      <trkpt lat="47.552368" lon="7.832305">
        <ele>310.575242</ele>
        <time>2021-11-20T17:31:56.051Z</time>
      </trkpt>
      <trkpt lat="47.552458" lon="7.832824">
        <ele>309.832457</ele>
        <time>2021-11-20T17:32:01.652Z</time>
      </trkpt>
      <trkpt lat="47.552508" lon="7.832936">
        <ele>309.646317</ele>
        <time>2021-11-20T17:32:03.112Z</time>
      </trkpt>
      <trkpt lat="47.552556" lon="7.832977">
        <ele>309.532525</ele>
        <time>2021-11-20T17:32:04.076Z</time>
      </trkpt>
      <trkpt lat="47.552616" lon="7.832891">
        <ele>309.361071</ele>
        <time>2021-11-20T17:32:04.882Z</time>
      </trkpt>
      <trkpt lat="47.552690" lon="7.832598">
        <ele>308.927421</ele>
        <time>2021-11-20T17:32:07.205Z</time>
      </trkpt>
      <trkpt lat="47.552645" lon="7.830686">
        <ele>305.851413</ele>
        <time>2021-11-20T17:32:20.898Z</time>
      </trkpt>
      <trkpt lat="47.552554" lon="7.829266">
        <ele>303.853865</ele>
        <time>2021-11-20T17:32:31.185Z</time>
      </trkpt>
      <trkpt lat="47.552416" lon="7.828822">
        <ele>303.318754</ele>
        <time>2021-11-20T17:32:34.851Z</time>
      </trkpt>
      <trkpt lat="47.552404" lon="7.828582">
        <ele>303.055305</ele>
        <time>2021-11-20T17:32:36.768Z</time>
      </trkpt>
      <trkpt lat="47.552421" lon="7.828481">
        <ele>302.941353</ele>
        <time>2021-11-20T17:32:37.524Z</time>
      </trkpt>
      <trkpt lat="47.552477" lon="7.828294">
        <ele>302.717398</ele>
        <time>2021-11-20T17:32:39.101Z</time>
      </trkpt>
      <trkpt lat="47.552515" lon="7.828094">
        <ele>302.489947</ele>
        <time>2021-11-20T17:32:40.823Z</time>
      </trkpt>
      <trkpt lat="47.552491" lon="7.827227">
        <ele>301.565309</ele>
        <time>2021-11-20T17:32:47.743Z</time>
      </trkpt>
      <trkpt lat="47.552545" lon="7.825302">
        <ele>300.635214</ele>
        <time>2021-11-20T17:33:04.471Z</time>
      </trkpt>
      <trkpt lat="47.552567" lon="7.824508">
        <ele>300.249781</ele>
        <time>2021-11-20T17:33:11.604Z</time>
      </trkpt>
      <trkpt lat="47.552896" lon="7.820699">
        <ele>298.359741</ele>
        <time>2021-11-20T17:33:44.309Z</time>
      </trkpt>
      <trkpt lat="47.552948" lon="7.819358">
        <ele>297.723211</ele>
        <time>2021-11-20T17:33:55.848Z</time>
      </trkpt>
      <trkpt lat="47.552844" lon="7.816432">
        <ele>297.348596</ele>
        <time>2021-11-20T17:34:23.482Z</time>
      </trkpt>
      <trkpt lat="47.552711" lon="7.812955">
        <ele>298.598475</ele>
        <time>2021-11-20T17:35:04.136Z</time>
      </trkpt>
      <trkpt lat="47.552566" lon="7.810386">
        <ele>299.729927</ele>
        <time>2021-11-20T17:35:34.168Z</time>
      </trkpt>
      <trkpt lat="47.552398" lon="7.808880">
        <ele>300.425111</ele>
        <time>2021-11-20T17:35:52.649Z</time>
      </trkpt>
      <trkpt lat="47.552068" lon="7.806445">
        <ele>300.933140</ele>
        <time>2021-11-20T17:36:21.016Z</time>
      </trkpt>
      <trkpt lat="47.552015" lon="7.806307">
        <ele>300.962279</ele>
        <time>2021-11-20T17:36:22.757Z</time>
      </trkpt>
      <trkpt lat="47.551895" lon="7.806278">
        <ele>300.995340</ele>
        <time>2021-11-20T17:36:24.061Z</time>
      </trkpt>
      <trkpt lat="47.551651" lon="7.806246">
        <ele>300.833738</ele>
        <time>2021-11-20T17:36:27.849Z</time>
      </trkpt>
      <trkpt lat="47.551671" lon="7.806117">
        <ele>300.766045</ele>
        <time>2021-11-20T17:36:29.159Z</time>
      </trkpt>
      <trkpt lat="47.551678" lon="7.805694">
        <ele>300.549645</ele>
        <time>2021-11-20T17:36:34.681Z</time>
      </trkpt>
      <trkpt lat="47.551681" lon="7.805477">
        <ele>300.438642</ele>
        <time>2021-11-20T17:36:37.016Z</time>
      </trkpt>
      <trkpt lat="47.551709" lon="7.805000">
        <ele>300.193769</ele>
        <time>2021-11-20T17:36:42.663Z</time>
      </trkpt>
      <trkpt lat="47.551731" lon="7.804667">
        <ele>300.022649</ele>
        <time>2021-11-20T17:36:47.326Z</time>
      </trkpt>
      <trkpt lat="47.551744" lon="7.804473">
        <ele>299.922944</ele>
        <time>2021-11-20T17:36:49.324Z</time>
      </trkpt>
      <trkpt lat="47.551741" lon="7.804294">
        <ele>299.831370</ele>
        <time>2021-11-20T17:36:51.711Z</time>
      </trkpt>
      <trkpt lat="47.551692" lon="7.803510">
        <ele>299.604802</ele>
        <time>2021-11-20T17:37:00.863Z</time>
      </trkpt>
      <trkpt lat="47.551751" lon="7.803369">
        <ele>299.591091</ele>
        <time>2021-11-20T17:37:02.848Z</time>
      </trkpt>
      <trkpt lat="47.551744" lon="7.803277">
        <ele>299.583440</ele>
        <time>2021-11-20T17:37:03.667Z</time>
      </trkpt>
      <trkpt lat="47.551732" lon="7.803125">
        <ele>299.570792</ele>
        <time>2021-11-20T17:37:05.055Z</time>
      </trkpt>
      <trkpt lat="47.551666" lon="7.803144">
        <ele>299.562559</ele>
        <time>2021-11-20T17:37:09.721Z</time>
      </trkpt>
      <trkpt lat="47.551598" lon="7.803160">
        <ele>299.554128</ele>
        <time>2021-11-20T17:37:14.466Z</time>
      </trkpt>
      <trkpt lat="47.551163" lon="7.803129">
        <ele>299.500800</ele>
        <time>2021-11-20T17:37:23.491Z</time>
      </trkpt>
      <trkpt lat="47.550981" lon="7.803132">
        <ele>299.478512</ele>
        <time>2021-11-20T17:37:27.504Z</time>
      </trkpt>
      <trkpt lat="47.550196" lon="7.803120">
        <ele>299.518365</ele>
        <time>2021-11-20T17:37:44.830Z</time>
      </trkpt>
      <trkpt lat="47.550134" lon="7.803051">
        <ele>299.544620</ele>
        <time>2021-11-20T17:37:46.512Z</time>
      </trkpt>
      <trkpt lat="47.550146" lon="7.802262">
        <ele>299.724976</ele>
        <time>2021-11-20T17:37:57.895Z</time>
      </trkpt>
      <trkpt lat="47.549879" lon="7.802247">
        <ele>299.815445</ele>
        <time>2021-11-20T17:38:03.674Z</time>
      </trkpt>
      <trkpt lat="47.549481" lon="7.802234">
        <ele>299.950237</ele>
        <time>2021-11-20T17:38:12.399Z</time>
      </trkpt>
      <trkpt lat="47.549410" lon="7.802226">
        <ele>299.974347</ele>
        <time>2021-11-20T17:38:13.999Z</time>
      </trkpt>
      <trkpt lat="47.548877" lon="7.802168">
        <ele>300.069800</ele>
        <time>2021-11-20T17:38:25.221Z</time>
      </trkpt>
      <trkpt lat="47.548626" lon="7.802129">
        <ele>300.098080</ele>
        <time>2021-11-20T17:38:30.429Z</time>
      </trkpt>
      <trkpt lat="47.548607" lon="7.801690">
        <ele>300.131353</ele>
        <time>2021-11-20T17:38:36.493Z</time>
      </trkpt>
      <trkpt lat="47.548604" lon="7.801564">
        <ele>300.140889</ele>
        <time>2021-11-20T17:38:38.208Z</time>
      </trkpt>
      <trkpt lat="47.548596" lon="7.801213">
        <ele>300.167452</ele>
        <time>2021-11-20T17:38:43.025Z</time>
      </trkpt>
      <trkpt lat="47.548576" lon="7.800968">
        <ele>300.186118</ele>
        <time>2021-11-20T17:38:46.398Z</time>
      </trkpt>
      <trkpt lat="47.548569" lon="7.800838">
        <ele>300.195981</ele>
        <time>2021-11-20T17:38:48.158Z</time>
      </trkpt>
      <trkpt lat="47.548560" lon="7.800672">
        <ele>300.208577</ele>
        <time>2021-11-20T17:38:50.469Z</time>
      </trkpt>
      <trkpt lat="47.548545" lon="7.800404">
        <ele>300.228917</ele>
        <time>2021-11-20T17:38:54.125Z</time>
      </trkpt>
      <trkpt lat="47.548519" lon="7.799896">
        <ele>300.331566</ele>
        <time>2021-11-20T17:39:01.241Z</time>
      </trkpt>
      <trkpt lat="47.548514" lon="7.799795">
        <ele>300.352017</ele>
        <time>2021-11-20T17:39:02.641Z</time>
      </trkpt>
      <trkpt lat="47.548535" lon="7.799720">
        <ele>300.368414</ele>
        <time>2021-11-20T17:39:03.789Z</time>
      </trkpt>
      <trkpt lat="47.548459" lon="7.799691">
        <ele>300.391895</ele>
        <time>2021-11-20T17:39:05.432Z</time>
      </trkpt>
      <trkpt lat="47.547912" lon="7.799646">
        <ele>300.555806</ele>
        <time>2021-11-20T17:39:16.674Z</time>
      </trkpt>
      <trkpt lat="47.547540" lon="7.799538">
        <ele>300.669222</ele>
        <time>2021-11-20T17:39:24.635Z</time>
      </trkpt>
      <trkpt lat="47.546418" lon="7.798980">
        <ele>301.128211</ele>
        <time>2021-11-20T17:39:53.091Z</time>
      </trkpt>
      <trkpt lat="47.545807" lon="7.798846">
        <ele>301.388685</ele>
        <time>2021-11-20T17:40:06.010Z</time>
      </trkpt>
      <trkpt lat="47.545731" lon="7.798810">
        <ele>301.422334</ele>
        <time>2021-11-20T17:40:08.077Z</time>
      </trkpt>
      <trkpt lat="47.545581" lon="7.798713">
        <ele>301.491355</ele>
        <time>2021-11-20T17:40:10.883Z</time>
      </trkpt>
      <trkpt lat="47.545511" lon="7.798680">
        <ele>301.522333</ele>
        <time>2021-11-20T17:40:12.375Z</time>
      </trkpt>
      <trkpt lat="47.545558" lon="7.798144">
        <ele>301.507514</ele>
        <time>2021-11-20T17:40:19.163Z</time>
      </trkpt>
      <trkpt lat="47.545637" lon="7.797310">
        <ele>301.478525</ele>
        <time>2021-11-20T17:40:30.884Z</time>
      </trkpt>
      <trkpt lat="47.545645" lon="7.797258">
        <ele>301.476690</ele>
        <time>2021-11-20T17:40:31.379Z</time>
      </trkpt>
      <trkpt lat="47.545670" lon="7.797142">
        <ele>301.472498</ele>
        <time>2021-11-20T17:40:32.948Z</time>
      </trkpt>
      <trkpt lat="47.545689" lon="7.797076">
        <ele>301.470028</ele>
        <time>2021-11-20T17:40:33.852Z</time>
      </trkpt>
      <trkpt lat="47.545689" lon="7.797076">
        <ele>301.470028</ele>
        <time>2021-11-20T17:40:33.856Z</time>
      </trkpt>
      <trkpt lat="47.545728" lon="7.796950">
        <ele>301.465257</ele>
        <time>2021-11-20T17:40:36.589Z</time>
      </trkpt>
      <trkpt lat="47.545788" lon="7.796748">
        <ele>301.457661</ele>
        <time>2021-11-20T17:40:39.363Z</time>
      </trkpt>
      <trkpt lat="47.545889" lon="7.796500">
        <ele>301.447691</ele>
        <time>2021-11-20T17:40:43.643Z</time>
      </trkpt>
      <trkpt lat="47.546038" lon="7.796107">
        <ele>301.448085</ele>
        <time>2021-11-20T17:40:49.191Z</time>
      </trkpt>
      <trkpt lat="47.546105" lon="7.795928">
        <ele>301.502803</ele>
        <time>2021-11-20T17:40:52.731Z</time>
      </trkpt>
      <trkpt lat="47.546154" lon="7.795747">
        <ele>301.554937</ele>
        <time>2021-11-20T17:40:55.050Z</time>
      </trkpt>
      <trkpt lat="47.546170" lon="7.795612">
        <ele>301.591579</ele>
        <time>2021-11-20T17:40:56.939Z</time>
      </trkpt>
      <trkpt lat="47.546165" lon="7.795511">
        <ele>301.618652</ele>
        <time>2021-11-20T17:40:58.983Z</time>
      </trkpt>
      <trkpt lat="47.546019" lon="7.795020">
        <ele>301.762085</ele>
        <time>2021-11-20T17:41:06.741Z</time>
      </trkpt>
      <trkpt lat="47.545947" lon="7.794710">
        <ele>301.849728</ele>
        <time>2021-11-20T17:41:11.781Z</time>
      </trkpt>
      <trkpt lat="47.545921" lon="7.794468">
        <ele>301.915238</ele>
        <time>2021-11-20T17:41:15.898Z</time>
      </trkpt>
      <trkpt lat="47.545937" lon="7.794197">
        <ele>301.987962</ele>
        <time>2021-11-20T17:41:20.010Z</time>
      </trkpt>
      <trkpt lat="47.545969" lon="7.793663">
        <ele>302.131281</ele>
        <time>2021-11-20T17:41:28.199Z</time>
      </trkpt>
      <trkpt lat="47.546027" lon="7.793254">
        <ele>302.010434</ele>
        <time>2021-11-20T17:41:34.422Z</time>
      </trkpt>
      <trkpt lat="47.546253" lon="7.791998">
        <ele>301.521807</ele>
        <time>2021-11-20T17:41:50.482Z</time>
      </trkpt>
      <trkpt lat="47.546348" lon="7.792043">
        <ele>301.466263</ele>
        <time>2021-11-20T17:41:52.248Z</time>
      </trkpt>
      <trkpt lat="47.546349" lon="7.791963">
        <ele>301.436186</ele>
        <time>2021-11-20T17:41:53.083Z</time>
      </trkpt>
      <trkpt lat="47.546325" lon="7.791912">
        <ele>301.412815</ele>
        <time>2021-11-20T17:41:53.820Z</time>
      </trkpt>
      <trkpt lat="47.546715" lon="7.788946">
        <ele>299.682019</ele>
        <time>2021-11-20T17:42:28.874Z</time>
      </trkpt>
      <trkpt lat="47.546755" lon="7.788783">
        <ele>299.572127</ele>
        <time>2021-11-20T17:42:30.898Z</time>
      </trkpt>
      <trkpt lat="47.546744" lon="7.788656">
        <ele>299.490998</ele>
        <time>2021-11-20T17:42:32.948Z</time>
      </trkpt>
      <trkpt lat="47.546940" lon="7.787224">
        <ele>300.028306</ele>
        <time>2021-11-20T17:42:51.930Z</time>
      </trkpt>
      <trkpt lat="47.546897" lon="7.787133">
        <ele>300.073486</ele>
        <time>2021-11-20T17:42:53.815Z</time>
      </trkpt>
      <trkpt lat="47.546959" lon="7.786598">
        <ele>300.294266</ele>
        <time>2021-11-20T17:43:01.573Z</time>
      </trkpt>
      <trkpt lat="47.546952" lon="7.786540">
        <ele>300.318230</ele>
        <time>2021-11-20T17:43:02.528Z</time>
      </trkpt>
      <trkpt lat="47.546913" lon="7.786470">
        <ele>300.355147</ele>
        <time>2021-11-20T17:43:04.263Z</time>
      </trkpt>
      <trkpt lat="47.546526" lon="7.786353">
        <ele>301.013048</ele>
        <time>2021-11-20T17:43:15.565Z</time>
      </trkpt>
      <trkpt lat="47.546464" lon="7.786335">
        <ele>301.352462</ele>
        <time>2021-11-20T17:43:17.337Z</time>
      </trkpt>
      <trkpt lat="47.546417" lon="7.786331">
        <ele>301.605373</ele>
        <time>2021-11-20T17:43:18.550Z</time>
      </trkpt>
      <trkpt lat="47.546102" lon="7.786217">
        <ele>303.347387</ele>
        <time>2021-11-20T17:43:30.170Z</time>
      </trkpt>
      <trkpt lat="47.545856" lon="7.785973">
        <ele>304.937804</ele>
        <time>2021-11-20T17:43:42.467Z</time>
      </trkpt>
      <trkpt lat="47.545672" lon="7.785654">
        <ele>306.459398</ele>
        <time>2021-11-20T17:43:53.794Z</time>
      </trkpt>
      <trkpt lat="47.545624" lon="7.785548">
        <ele>306.922267</ele>
        <time>2021-11-20T17:44:00.459Z</time>
      </trkpt>
      <trkpt lat="47.545250" lon="7.784778">
        <ele>310.282454</ele>
        <time>2021-11-20T17:44:31.985Z</time>
      </trkpt>
      <trkpt lat="47.545240" lon="7.784746">
        <ele>310.346318</ele>
        <time>2021-11-20T17:44:34.664Z</time>
      </trkpt>
      <trkpt lat="47.545054" lon="7.784227">
        <ele>311.410548</ele>
        <time>2021-11-20T17:44:52.814Z</time>
      </trkpt>
      <trkpt lat="47.544950" lon="7.784008">
        <ele>311.895503</ele>
        <time>2021-11-20T17:44:59.144Z</time>
      </trkpt>
      <trkpt lat="47.544627" lon="7.783499">
        <ele>313.160762</ele>
        <time>2021-11-20T17:45:15.007Z</time>
      </trkpt>
      <trkpt lat="47.544555" lon="7.783372">
        <ele>313.461137</ele>
        <time>2021-11-20T17:45:17.084Z</time>
      </trkpt>
      <trkpt lat="47.544490" lon="7.783060">
        <ele>314.052510</ele>
        <time>2021-11-20T17:45:21.830Z</time>
      </trkpt>
      <trkpt lat="47.544474" lon="7.782623">
        <ele>314.845136</ele>
        <time>2021-11-20T17:45:26.838Z</time>
      </trkpt>
      <trkpt lat="47.544469" lon="7.782455">
        <ele>314.778423</ele>
        <time>2021-11-20T17:45:28.137Z</time>
      </trkpt>
      <trkpt lat="47.544461" lon="7.782254">
        <ele>314.023817</ele>
        <time>2021-11-20T17:45:29.402Z</time>
      </trkpt>
      <trkpt lat="47.544100" lon="7.779438">
        <ele>303.745208</ele>
        <time>2021-11-20T17:45:46.891Z</time>
      </trkpt>
      <trkpt lat="47.543933" lon="7.778374">
        <ele>300.729248</ele>
        <time>2021-11-20T17:45:53.962Z</time>
      </trkpt>
      <trkpt lat="47.543707" lon="7.777394">
        <ele>297.870018</ele>
        <time>2021-11-20T17:46:01.182Z</time>
      </trkpt>
      <trkpt lat="47.543527" lon="7.776532">
        <ele>297.254327</ele>
        <time>2021-11-20T17:46:08.326Z</time>
      </trkpt>
      <trkpt lat="47.543482" lon="7.776095">
        <ele>297.025997</ele>
        <time>2021-11-20T17:46:12.202Z</time>
      </trkpt>
      <trkpt lat="47.543449" lon="7.775478">
        <ele>296.706306</ele>
        <time>2021-11-20T17:46:17.945Z</time>
      </trkpt>
      <trkpt lat="47.543402" lon="7.775016">
        <ele>296.464980</ele>
        <time>2021-11-20T17:46:22.614Z</time>
      </trkpt>
      <trkpt lat="47.543350" lon="7.774507">
        <ele>296.285303</ele>
        <time>2021-11-20T17:46:27.852Z</time>
      </trkpt>
      <trkpt lat="47.543145" lon="7.773277">
        <ele>296.141153</ele>
        <time>2021-11-20T17:46:40.751Z</time>
      </trkpt>
      <trkpt lat="47.543108" lon="7.773069">
        <ele>296.116679</ele>
        <time>2021-11-20T17:46:42.931Z</time>
      </trkpt>
      <trkpt lat="47.542720" lon="7.770771">
        <ele>295.679718</ele>
        <time>2021-11-20T17:47:04.153Z</time>
      </trkpt>
      <trkpt lat="47.542450" lon="7.769311">
        <ele>295.736864</ele>
        <time>2021-11-20T17:47:18.125Z</time>
      </trkpt>
      <trkpt lat="47.542317" lon="7.768533">
        <ele>296.868594</ele>
        <time>2021-11-20T17:47:26.499Z</time>
      </trkpt>
      <trkpt lat="47.541697" lon="7.765479">
        <ele>305.068597</ele>
        <time>2021-11-20T17:48:28.764Z</time>
      </trkpt>
      <trkpt lat="47.541552" lon="7.764869">
        <ele>307.499169</ele>
        <time>2021-11-20T17:48:48.504Z</time>
      </trkpt>
      <trkpt lat="47.541443" lon="7.764512">
        <ele>308.971758</ele>
        <time>2021-11-20T17:49:02.355Z</time>
      </trkpt>
      <trkpt lat="47.541364" lon="7.764150">
        <ele>311.280172</ele>
        <time>2021-11-20T17:49:13.322Z</time>
      </trkpt>
      <trkpt lat="47.541377" lon="7.764045">
        <ele>311.964355</ele>
        <time>2021-11-20T17:49:17.885Z</time>
      </trkpt>
      <trkpt lat="47.541334" lon="7.764020">
        <ele>312.402922</ele>
        <time>2021-11-20T17:49:22.728Z</time>
      </trkpt>
      <trkpt lat="47.541219" lon="7.763853">
        <ele>313.931874</ele>
        <time>2021-11-20T17:49:29.316Z</time>
      </trkpt>
      <trkpt lat="47.541023" lon="7.762922">
        <ele>320.182234</ele>
        <time>2021-11-20T17:50:07.648Z</time>
      </trkpt>
      <trkpt lat="47.541004" lon="7.762306">
        <ele>324.134401</ele>
        <time>2021-11-20T17:50:30.467Z</time>
      </trkpt>
      <trkpt lat="47.540921" lon="7.761599">
        <ele>327.739106</ele>
        <time>2021-11-20T17:50:55.136Z</time>
      </trkpt>
      <trkpt lat="47.540567" lon="7.759901">
        <ele>334.599702</ele>
        <time>2021-11-20T17:51:39.809Z</time>
      </trkpt>
      <trkpt lat="47.540447" lon="7.759585">
        <ele>335.999393</ele>
        <time>2021-11-20T17:51:47.392Z</time>
      </trkpt>
      <trkpt lat="47.539949" lon="7.758688">
        <ele>336.282533</ele>
        <time>2021-11-20T17:52:05.637Z</time>
      </trkpt>
      <trkpt lat="47.539722" lon="7.758107">
        <ele>336.128285</ele>
        <time>2021-11-20T17:52:11.927Z</time>
      </trkpt>
      <trkpt lat="47.539595" lon="7.757548">
        <ele>335.992760</ele>
        <time>2021-11-20T17:52:16.320Z</time>
      </trkpt>
      <trkpt lat="47.539346" lon="7.755736">
        <ele>330.628582</ele>
        <time>2021-11-20T17:52:28.064Z</time>
      </trkpt>
      <trkpt lat="47.539230" lon="7.755294">
        <ele>328.929238</ele>
        <time>2021-11-20T17:52:30.956Z</time>
      </trkpt>
      <trkpt lat="47.539079" lon="7.754976">
        <ele>327.536055</ele>
        <time>2021-11-20T17:52:33.347Z</time>
      </trkpt>
      <trkpt lat="47.538792" lon="7.754549">
        <ele>325.742274</ele>
        <time>2021-11-20T17:52:37.081Z</time>
      </trkpt>
      <trkpt lat="47.538723" lon="7.754445">
        <ele>325.414172</ele>
        <time>2021-11-20T17:52:37.979Z</time>
      </trkpt>
      <trkpt lat="47.538494" lon="7.754103">
        <ele>324.330310</ele>
        <time>2021-11-20T17:52:41.139Z</time>
      </trkpt>
      <trkpt lat="47.538359" lon="7.753900">
        <ele>323.689135</ele>
        <time>2021-11-20T17:52:43.040Z</time>
      </trkpt>
      <trkpt lat="47.538052" lon="7.753460">
        <ele>322.265328</ele>
        <time>2021-11-20T17:52:47.448Z</time>
      </trkpt>
      <trkpt lat="47.537715" lon="7.753194">
        <ele>320.992578</ele>
        <time>2021-11-20T17:52:51.566Z</time>
      </trkpt>
      <trkpt lat="47.537564" lon="7.753073">
        <ele>320.420365</ele>
        <time>2021-11-20T17:52:53.468Z</time>
      </trkpt>
      <trkpt lat="47.537371" lon="7.752851">
        <ele>320.259460</ele>
        <time>2021-11-20T17:52:56.905Z</time>
      </trkpt>
      <trkpt lat="47.537134" lon="7.752309">
        <ele>320.059095</ele>
        <time>2021-11-20T17:53:03.193Z</time>
      </trkpt>
      <trkpt lat="47.535912" lon="7.749669">
        <ele>319.232587</ele>
        <time>2021-11-20T17:53:33.373Z</time>
      </trkpt>
      <trkpt lat="47.534874" lon="7.746551">
        <ele>318.567786</ele>
        <time>2021-11-20T17:54:05.223Z</time>
      </trkpt>
      <trkpt lat="47.534429" lon="7.744856">
        <ele>318.706744</ele>
        <time>2021-11-20T17:54:24.134Z</time>
      </trkpt>
      <trkpt lat="47.534370" lon="7.744709">
        <ele>318.729874</ele>
        <time>2021-11-20T17:54:25.781Z</time>
      </trkpt>
      <trkpt lat="47.534179" lon="7.744495">
        <ele>318.777850</ele>
        <time>2021-11-20T17:54:29.664Z</time>
      </trkpt>
      <trkpt lat="47.534097" lon="7.744343">
        <ele>318.804165</ele>
        <time>2021-11-20T17:54:31.675Z</time>
      </trkpt>
      <trkpt lat="47.534043" lon="7.744207">
        <ele>318.825504</ele>
        <time>2021-11-20T17:54:33.421Z</time>
      </trkpt>
      <trkpt lat="47.533870" lon="7.743466">
        <ele>319.094077</ele>
        <time>2021-11-20T17:54:42.199Z</time>
      </trkpt>
      <trkpt lat="47.533707" lon="7.742025">
        <ele>319.782077</ele>
        <time>2021-11-20T17:55:00.749Z</time>
      </trkpt>
      <trkpt lat="47.533352" lon="7.740430">
        <ele>319.517619</ele>
        <time>2021-11-20T17:55:19.870Z</time>
      </trkpt>
      <trkpt lat="47.533191" lon="7.739816">
        <ele>319.104276</ele>
        <time>2021-11-20T17:55:25.941Z</time>
      </trkpt>
      <trkpt lat="47.533153" lon="7.739664">
        <ele>319.002562</ele>
        <time>2021-11-20T17:55:27.238Z</time>
      </trkpt>
      <trkpt lat="47.531874" lon="7.736048">
        <ele>312.659167</ele>
        <time>2021-11-20T17:55:55.711Z</time>
      </trkpt>
      <trkpt lat="47.531710" lon="7.735855">
        <ele>312.245190</ele>
        <time>2021-11-20T17:55:57.897Z</time>
      </trkpt>
      <trkpt lat="47.531389" lon="7.735745">
        <ele>311.594029</ele>
        <time>2021-11-20T17:56:01.462Z</time>
      </trkpt>
      <trkpt lat="47.531325" lon="7.735684">
        <ele>311.443616</ele>
        <time>2021-11-20T17:56:02.174Z</time>
      </trkpt>
      <trkpt lat="47.530882" lon="7.735983">
        <ele>310.481476</ele>
        <time>2021-11-20T17:56:07.787Z</time>
      </trkpt>
      <trkpt lat="47.530193" lon="7.736351">
        <ele>309.829750</ele>
        <time>2021-11-20T17:56:17.206Z</time>
      </trkpt>
      <trkpt lat="47.529741" lon="7.736731">
        <ele>309.843528</ele>
        <time>2021-11-20T17:56:25.685Z</time>
      </trkpt>
      <trkpt lat="47.529603" lon="7.736896">
        <ele>309.848230</ele>
        <time>2021-11-20T17:56:28.920Z</time>
      </trkpt>
      <trkpt lat="47.529534" lon="7.737005">
        <ele>309.850905</ele>
        <time>2021-11-20T17:56:31.090Z</time>
      </trkpt>
      <trkpt lat="47.528997" lon="7.738134">
        <ele>309.650657</ele>
        <time>2021-11-20T17:56:45.065Z</time>
      </trkpt>
      <trkpt lat="47.528896" lon="7.738303">
        <ele>309.550542</ele>
        <time>2021-11-20T17:56:47.253Z</time>
      </trkpt>
      <trkpt lat="47.528842" lon="7.738378">
        <ele>309.501906</ele>
        <time>2021-11-20T17:56:48.072Z</time>
      </trkpt>
      <trkpt lat="47.528601" lon="7.738620">
        <ele>309.310615</ele>
        <time>2021-11-20T17:56:51.690Z</time>
      </trkpt>
      <trkpt lat="47.528341" lon="7.738762">
        <ele>309.128558</ele>
        <time>2021-11-20T17:56:55.046Z</time>
      </trkpt>
      <trkpt lat="47.528292" lon="7.738774">
        <ele>309.095929</ele>
        <time>2021-11-20T17:56:55.641Z</time>
      </trkpt>
      <trkpt lat="47.527841" lon="7.738820">
        <ele>308.798934</ele>
        <time>2021-11-20T17:57:03.518Z</time>
      </trkpt>
      <trkpt lat="47.527567" lon="7.738827">
        <ele>308.655801</ele>
        <time>2021-11-20T17:57:07.142Z</time>
      </trkpt>
      <trkpt lat="47.527349" lon="7.738840">
        <ele>308.592189</ele>
        <time>2021-11-20T17:57:09.828Z</time>
      </trkpt>
      <trkpt lat="47.527103" lon="7.738847">
        <ele>308.520451</ele>
        <time>2021-11-20T17:57:12.822Z</time>
      </trkpt>
      <trkpt lat="47.527038" lon="7.739424">
        <ele>308.405285</ele>
        <time>2021-11-20T17:57:17.902Z</time>
      </trkpt>
      <trkpt lat="47.526993" lon="7.739671">
        <ele>308.354918</ele>
        <time>2021-11-20T17:57:20.299Z</time>
      </trkpt>
      <trkpt lat="47.526782" lon="7.740808">
        <ele>308.268658</ele>
        <time>2021-11-20T17:57:33.019Z</time>
      </trkpt>
      <trkpt lat="47.526294" lon="7.742530">
        <ele>309.310300</ele>
        <time>2021-11-20T17:57:55.931Z</time>
      </trkpt>
      <trkpt lat="47.526222" lon="7.742784">
        <ele>309.463952</ele>
        <time>2021-11-20T17:57:59.444Z</time>
      </trkpt>
      <trkpt lat="47.525969" lon="7.743974">
        <ele>310.670407</ele>
        <time>2021-11-20T17:58:16.416Z</time>
      </trkpt>
      <trkpt lat="47.525836" lon="7.744800">
        <ele>311.615204</ele>
        <time>2021-11-20T17:58:28.767Z</time>
      </trkpt>
      <trkpt lat="47.525817" lon="7.744920">
        <ele>311.752341</ele>
        <time>2021-11-20T17:58:30.712Z</time>
      </trkpt>
      <trkpt lat="47.525761" lon="7.745310">
        <ele>312.195969</ele>
        <time>2021-11-20T17:58:36.487Z</time>
      </trkpt>
      <trkpt lat="47.525754" lon="7.745361">
        <ele>312.253874</ele>
        <time>2021-11-20T17:58:37.261Z</time>
      </trkpt>
      <trkpt lat="47.525698" lon="7.745676">
        <ele>312.619074</ele>
        <time>2021-11-20T17:58:42.349Z</time>
      </trkpt>
      <trkpt lat="47.525493" lon="7.746648">
        <ele>314.268497</ele>
        <time>2021-11-20T17:58:58.479Z</time>
      </trkpt>
      <trkpt lat="47.525175" lon="7.747653">
        <ele>316.066229</ele>
        <time>2021-11-20T17:59:17.328Z</time>
      </trkpt>
      <trkpt lat="47.525102" lon="7.747843">
        <ele>316.420317</ele>
        <time>2021-11-20T17:59:21.406Z</time>
      </trkpt>
      <trkpt lat="47.525034" lon="7.748003">
        <ele>316.726541</ele>
        <time>2021-11-20T17:59:24.270Z</time>
      </trkpt>
      <trkpt lat="47.524939" lon="7.748210">
        <ele>317.197469</ele>
        <time>2021-11-20T17:59:28.544Z</time>
      </trkpt>
      <trkpt lat="47.524786" lon="7.748513">
        <ele>318.004036</ele>
        <time>2021-11-20T17:59:34.751Z</time>
      </trkpt>
      <trkpt lat="47.524595" lon="7.748826">
        <ele>318.903387</ele>
        <time>2021-11-20T17:59:42.489Z</time>
      </trkpt>
      <trkpt lat="47.523810" lon="7.749861">
        <ele>322.221543</ele>
        <time>2021-11-20T18:00:11.934Z</time>
      </trkpt>
      <trkpt lat="47.522660" lon="7.751079">
        <ele>327.120820</ele>
        <time>2021-11-20T18:00:53.799Z</time>
      </trkpt>
      <trkpt lat="47.522153" lon="7.751504">
        <ele>329.070250</ele>
        <time>2021-11-20T18:01:10.388Z</time>
      </trkpt>
      <trkpt lat="47.521128" lon="7.752139">
        <ele>331.709330</ele>
        <time>2021-11-20T18:01:38.891Z</time>
      </trkpt>
      <trkpt lat="47.520691" lon="7.752581">
        <ele>332.966329</ele>
        <time>2021-11-20T18:01:51.231Z</time>
      </trkpt>
      <trkpt lat="47.520500" lon="7.752840">
        <ele>333.179399</ele>
        <time>2021-11-20T18:01:55.987Z</time>
      </trkpt>
      <trkpt lat="47.520081" lon="7.753575">
        <ele>333.252025</ele>
        <time>2021-11-20T18:02:06.678Z</time>
      </trkpt>
      <trkpt lat="47.519771" lon="7.754124">
        <ele>333.306059</ele>
        <time>2021-11-20T18:02:13.332Z</time>
      </trkpt>
      <trkpt lat="47.519558" lon="7.754516">
        <ele>333.344050</ele>
        <time>2021-11-20T18:02:17.696Z</time>
      </trkpt>
      <trkpt lat="47.518866" lon="7.755813">
        <ele>332.842223</ele>
        <time>2021-11-20T18:02:31.659Z</time>
      </trkpt>
      <trkpt lat="47.517863" lon="7.757421">
        <ele>332.757711</ele>
        <time>2021-11-20T18:02:52.371Z</time>
      </trkpt>
      <trkpt lat="47.516954" lon="7.758506">
        <ele>333.433981</ele>
        <time>2021-11-20T18:03:13.995Z</time>
      </trkpt>
      <trkpt lat="47.516501" lon="7.759179">
        <ele>334.819021</ele>
        <time>2021-11-20T18:03:27.110Z</time>
      </trkpt>
      <trkpt lat="47.515929" lon="7.760077">
        <ele>336.618367</ele>
        <time>2021-11-20T18:03:46.815Z</time>
      </trkpt>
      <trkpt lat="47.515394" lon="7.761200">
        <ele>339.480704</ele>
        <time>2021-11-20T18:04:13.627Z</time>
      </trkpt>
      <trkpt lat="47.515265" lon="7.761533">
        <ele>340.398728</ele>
        <time>2021-11-20T18:04:21.503Z</time>
      </trkpt>
      <trkpt lat="47.515220" lon="7.761710">
        <ele>340.850999</ele>
        <time>2021-11-20T18:04:25.371Z</time>
      </trkpt>
      <trkpt lat="47.515194" lon="7.761991">
        <ele>341.529256</ele>
        <time>2021-11-20T18:04:31.403Z</time>
      </trkpt>
      <trkpt lat="47.515150" lon="7.762617">
        <ele>343.034353</ele>
        <time>2021-11-20T18:04:43.523Z</time>
      </trkpt>
      <trkpt lat="47.515108" lon="7.762767">
        <ele>343.422666</ele>
        <time>2021-11-20T18:04:46.986Z</time>
      </trkpt>
      <trkpt lat="47.515023" lon="7.762891">
        <ele>343.766657</ele>
        <time>2021-11-20T18:04:50.717Z</time>
      </trkpt>
      <trkpt lat="47.514492" lon="7.763207">
        <ele>344.982255</ele>
        <time>2021-11-20T18:05:06.114Z</time>
      </trkpt>
      <trkpt lat="47.514365" lon="7.763357">
        <ele>345.327335</ele>
        <time>2021-11-20T18:05:10.501Z</time>
      </trkpt>
      <trkpt lat="47.514022" lon="7.763802">
        <ele>346.296038</ele>
        <time>2021-11-20T18:05:18.673Z</time>
      </trkpt>
      <trkpt lat="47.513823" lon="7.764227">
        <ele>347.037953</ele>
        <time>2021-11-20T18:05:25.821Z</time>
      </trkpt>
      <trkpt lat="47.513810" lon="7.764252">
        <ele>347.083217</ele>
        <time>2021-11-20T18:05:26.209Z</time>
      </trkpt>
      <trkpt lat="47.513747" lon="7.764397">
        <ele>347.330566</ele>
        <time>2021-11-20T18:05:28.711Z</time>
      </trkpt>
      <trkpt lat="47.513707" lon="7.764494">
        <ele>347.485596</ele>
        <time>2021-11-20T18:05:30.727Z</time>
      </trkpt>
      <trkpt lat="47.513661" lon="7.764590">
        <ele>347.598435</ele>
        <time>2021-11-20T18:05:32.690Z</time>
      </trkpt>
      <trkpt lat="47.513615" lon="7.764654">
        <ele>347.688031</ele>
        <time>2021-11-20T18:05:33.362Z</time>
      </trkpt>
      <trkpt lat="47.513036" lon="7.765134">
        <ele>348.629908</ele>
        <time>2021-11-20T18:05:48.324Z</time>
      </trkpt>
      <trkpt lat="47.512959" lon="7.765198">
        <ele>348.755244</ele>
        <time>2021-11-20T18:05:49.447Z</time>
      </trkpt>
      <trkpt lat="47.512947" lon="7.765205">
        <ele>348.773551</ele>
        <time>2021-11-20T18:05:49.681Z</time>
      </trkpt>
      <trkpt lat="47.512876" lon="7.765238">
        <ele>348.879175</ele>
        <time>2021-11-20T18:05:51.178Z</time>
      </trkpt>
      <trkpt lat="47.512596" lon="7.765294">
        <ele>349.280209</ele>
        <time>2021-11-20T18:05:56.648Z</time>
      </trkpt>
      <trkpt lat="47.512523" lon="7.765308">
        <ele>349.384689</ele>
        <time>2021-11-20T18:05:58.106Z</time>
      </trkpt>
      <trkpt lat="47.512359" lon="7.765319">
        <ele>349.617705</ele>
        <time>2021-11-20T18:06:02.079Z</time>
      </trkpt>
      <trkpt lat="47.512026" lon="7.765311">
        <ele>350.107493</ele>
        <time>2021-11-20T18:06:08.075Z</time>
      </trkpt>
      <trkpt lat="47.511929" lon="7.765269">
        <ele>350.286944</ele>
        <time>2021-11-20T18:06:10.263Z</time>
      </trkpt>
      <trkpt lat="47.511866" lon="7.765218">
        <ele>350.414439</ele>
        <time>2021-11-20T18:06:11.339Z</time>
      </trkpt>
      <trkpt lat="47.511702" lon="7.765093">
        <ele>350.741966</ele>
        <time>2021-11-20T18:06:15.725Z</time>
      </trkpt>
      <trkpt lat="47.511360" lon="7.764807">
        <ele>351.439409</ele>
        <time>2021-11-20T18:06:25.160Z</time>
      </trkpt>
      <trkpt lat="47.511298" lon="7.764777">
        <ele>351.555228</ele>
        <time>2021-11-20T18:06:27.216Z</time>
      </trkpt>
      <trkpt lat="47.511261" lon="7.764772">
        <ele>351.621200</ele>
        <time>2021-11-20T18:06:28.116Z</time>
      </trkpt>
      <trkpt lat="47.510922" lon="7.764773">
        <ele>352.223139</ele>
        <time>2021-11-20T18:06:35.989Z</time>
      </trkpt>
      <trkpt lat="47.510628" lon="7.764909">
        <ele>352.770064</ele>
        <time>2021-11-20T18:06:41.816Z</time>
      </trkpt>
      <trkpt lat="47.510486" lon="7.765012">
        <ele>353.050839</ele>
        <time>2021-11-20T18:06:45.142Z</time>
      </trkpt>
      <trkpt lat="47.510392" lon="7.765088">
        <ele>353.259482</ele>
        <time>2021-11-20T18:06:47.116Z</time>
      </trkpt>
      <trkpt lat="47.510179" lon="7.765273">
        <ele>354.023147</ele>
        <time>2021-11-20T18:06:51.737Z</time>
      </trkpt>
      <trkpt lat="47.510078" lon="7.765363">
        <ele>354.387690</ele>
        <time>2021-11-20T18:06:54.421Z</time>
      </trkpt>
      <trkpt lat="47.510019" lon="7.765402">
        <ele>354.587502</ele>
        <time>2021-11-20T18:06:55.591Z</time>
      </trkpt>
      <trkpt lat="47.509942" lon="7.765436">
        <ele>354.835981</ele>
        <time>2021-11-20T18:06:57.623Z</time>
      </trkpt>
      <trkpt lat="47.509899" lon="7.765445">
        <ele>354.970276</ele>
        <time>2021-11-20T18:06:58.620Z</time>
      </trkpt>
      <trkpt lat="47.509741" lon="7.765454">
        <ele>355.459236</ele>
        <time>2021-11-20T18:07:02.742Z</time>
      </trkpt>
      <trkpt lat="47.509600" lon="7.765443">
        <ele>355.895869</ele>
        <time>2021-11-20T18:07:06.985Z</time>
      </trkpt>
      <trkpt lat="47.509436" lon="7.765441">
        <ele>356.403038</ele>
        <time>2021-11-20T18:07:12.012Z</time>
      </trkpt>
      <trkpt lat="47.509057" lon="7.765447">
        <ele>357.575123</ele>
        <time>2021-11-20T18:07:24.549Z</time>
      </trkpt>
      <trkpt lat="47.508744" lon="7.765478">
        <ele>358.545206</ele>
        <time>2021-11-20T18:07:34.524Z</time>
      </trkpt>
      <trkpt lat="47.508322" lon="7.765556">
        <ele>359.936546</ele>
        <time>2021-11-20T18:07:47.186Z</time>
      </trkpt>
      <trkpt lat="47.508137" lon="7.765584">
        <ele>360.552126</ele>
        <time>2021-11-20T18:07:51.968Z</time>
      </trkpt>
      <trkpt lat="47.507977" lon="7.765561">
        <ele>361.084251</ele>
        <time>2021-11-20T18:07:56.182Z</time>
      </trkpt>
      <trkpt lat="47.507650" lon="7.765503">
        <ele>362.174430</ele>
        <time>2021-11-20T18:08:04.416Z</time>
      </trkpt>
      <trkpt lat="47.507506" lon="7.765470">
        <ele>362.656777</ele>
        <time>2021-11-20T18:08:09.748Z</time>
      </trkpt>
      <trkpt lat="47.507429" lon="7.765409">
        <ele>362.945864</ele>
        <time>2021-11-20T18:08:11.404Z</time>
      </trkpt>
      <trkpt lat="47.506870" lon="7.765037">
        <ele>364.943218</ele>
        <time>2021-11-20T18:08:29.787Z</time>
      </trkpt>
      <trkpt lat="47.506716" lon="7.764971">
        <ele>365.405178</ele>
        <time>2021-11-20T18:08:33.147Z</time>
      </trkpt>
      <trkpt lat="47.506619" lon="7.764938">
        <ele>365.691961</ele>
        <time>2021-11-20T18:08:35.933Z</time>
      </trkpt>
      <trkpt lat="47.506377" lon="7.764894">
        <ele>366.394505</ele>
        <time>2021-11-20T18:08:41.378Z</time>
      </trkpt>
      <trkpt lat="47.506301" lon="7.764884">
        <ele>366.614356</ele>
        <time>2021-11-20T18:08:43.079Z</time>
      </trkpt>
      <trkpt lat="47.506143" lon="7.764883">
        <ele>367.069624</ele>
        <time>2021-11-20T18:08:47.777Z</time>
      </trkpt>
      <trkpt lat="47.505115" lon="7.765011">
        <ele>370.032144</ele>
        <time>2021-11-20T18:09:13.771Z</time>
      </trkpt>
      <trkpt lat="47.504400" lon="7.764478">
        <ele>372.157095</ele>
        <time>2021-11-20T18:09:39.030Z</time>
      </trkpt>
      <trkpt lat="47.503736" lon="7.764325">
        <ele>373.940838</ele>
        <time>2021-11-20T18:09:58.009Z</time>
      </trkpt>
      <trkpt lat="47.502578" lon="7.764620">
        <ele>375.007108</ele>
        <time>2021-11-20T18:10:13.032Z</time>
      </trkpt>
      <trkpt lat="47.502400" lon="7.764717">
        <ele>375.074652</ele>
        <time>2021-11-20T18:10:21.004Z</time>
      </trkpt>
      <trkpt lat="47.502299" lon="7.764761">
        <ele>375.112143</ele>
        <time>2021-11-20T18:10:22.073Z</time>
      </trkpt>
      <trkpt lat="47.501861" lon="7.764937">
        <ele>375.273757</ele>
        <time>2021-11-20T18:10:27.466Z</time>
      </trkpt>
      <trkpt lat="47.501785" lon="7.764941">
        <ele>375.300838</ele>
        <time>2021-11-20T18:10:33.938Z</time>
      </trkpt>
      <trkpt lat="47.501717" lon="7.764903">
        <ele>375.326720</ele>
        <time>2021-11-20T18:10:34.570Z</time>
      </trkpt>
      <trkpt lat="47.501402" lon="7.764367">
        <ele>375.835616</ele>
        <time>2021-11-20T18:10:40.891Z</time>
      </trkpt>
      <trkpt lat="47.501345" lon="7.764315">
        <ele>375.907406</ele>
        <time>2021-11-20T18:10:41.450Z</time>
      </trkpt>
      <trkpt lat="47.501281" lon="7.764267">
        <ele>375.984332</ele>
        <time>2021-11-20T18:10:49.020Z</time>
      </trkpt>
      <trkpt lat="47.501196" lon="7.764236">
        <ele>376.078195</ele>
        <time>2021-11-20T18:10:49.849Z</time>
      </trkpt>
      <trkpt lat="47.501035" lon="7.764209">
        <ele>376.251923</ele>
        <time>2021-11-20T18:10:51.376Z</time>
      </trkpt>
      <trkpt lat="47.500820" lon="7.764278">
        <ele>376.487801</ele>
        <time>2021-11-20T18:10:57.156Z</time>
      </trkpt>
      <trkpt lat="47.500727" lon="7.764330">
        <ele>376.594392</ele>
        <time>2021-11-20T18:10:59.042Z</time>
      </trkpt>
      <trkpt lat="47.500392" lon="7.764591">
        <ele>377.000295</ele>
        <time>2021-11-20T18:11:05.798Z</time>
      </trkpt>
      <trkpt lat="47.500387" lon="7.764595">
        <ele>377.006389</ele>
        <time>2021-11-20T18:11:05.857Z</time>
      </trkpt>
      <trkpt lat="47.499963" lon="7.764903">
        <ele>378.130044</ele>
        <time>2021-11-20T18:11:20.751Z</time>
      </trkpt>
      <trkpt lat="47.499422" lon="7.765260">
        <ele>380.303989</ele>
        <time>2021-11-20T18:11:38.869Z</time>
      </trkpt>
      <trkpt lat="47.499360" lon="7.765292">
        <ele>380.544977</ele>
        <time>2021-11-20T18:11:41.366Z</time>
      </trkpt>
      <trkpt lat="47.498800" lon="7.765582">
        <ele>382.722432</ele>
        <time>2021-11-20T18:11:59.967Z</time>
      </trkpt>
      <trkpt lat="47.498586" lon="7.765657">
        <ele>383.529565</ele>
        <time>2021-11-20T18:12:06.409Z</time>
      </trkpt>
      <trkpt lat="47.498351" lon="7.765739">
        <ele>384.514175</ele>
        <time>2021-11-20T18:12:12.368Z</time>
      </trkpt>
      <trkpt lat="47.498155" lon="7.765801">
        <ele>385.379987</ele>
        <time>2021-11-20T18:12:17.877Z</time>
      </trkpt>
      <trkpt lat="47.497958" lon="7.765844">
        <ele>386.240201</ele>
        <time>2021-11-20T18:12:22.617Z</time>
      </trkpt>
      <trkpt lat="47.497754" lon="7.765880">
        <ele>387.127693</ele>
        <time>2021-11-20T18:12:28.738Z</time>
      </trkpt>
      <trkpt lat="47.497723" lon="7.766185">
        <ele>388.027875</ele>
        <time>2021-11-20T18:12:33.563Z</time>
      </trkpt>
      <trkpt lat="47.497675" lon="7.766623">
        <ele>389.322920</ele>
        <time>2021-11-20T18:12:42.710Z</time>
      </trkpt>
      <trkpt lat="47.497649" lon="7.766873">
        <ele>390.061159</ele>
        <time>2021-11-20T18:12:49.249Z</time>
      </trkpt>
      <trkpt lat="47.497611" lon="7.767211">
        <ele>391.061205</ele>
        <time>2021-11-20T18:12:59.244Z</time>
      </trkpt>
      <trkpt lat="47.497511" lon="7.768079">
        <ele>395.433698</ele>
        <time>2021-11-20T18:13:25.030Z</time>
      </trkpt>
      <trkpt lat="47.497361" lon="7.768561">
        <ele>398.377182</ele>
        <time>2021-11-20T18:13:39.990Z</time>
      </trkpt>
      <trkpt lat="47.497291" lon="7.768691">
        <ele>399.299244</ele>
        <time>2021-11-20T18:13:44.592Z</time>
      </trkpt>
      <trkpt lat="47.497192" lon="7.768830">
        <ele>400.419517</ele>
        <time>2021-11-20T18:13:50.204Z</time>
      </trkpt>
      <trkpt lat="47.497103" lon="7.768933">
        <ele>401.347024</ele>
        <time>2021-11-20T18:13:56.529Z</time>
      </trkpt>
      <trkpt lat="47.495667" lon="7.770224">
        <ele>416.870076</ele>
        <time>2021-11-20T18:15:31.481Z</time>
      </trkpt>
      <trkpt lat="47.493379" lon="7.771903">
        <ele>440.021162</ele>
        <time>2021-11-20T18:17:42.583Z</time>
      </trkpt>
      <trkpt lat="47.492787" lon="7.772160">
        <ele>443.090906</ele>
        <time>2021-11-20T18:18:07.862Z</time>
      </trkpt>
      <trkpt lat="47.491693" lon="7.772220">
        <ele>448.538098</ele>
        <time>2021-11-20T18:18:39.772Z</time>
      </trkpt>
      <trkpt lat="47.491378" lon="7.772372">
        <ele>450.147075</ele>
        <time>2021-11-20T18:18:48.940Z</time>
      </trkpt>
      <trkpt lat="47.490979" lon="7.772729">
        <ele>452.397651</ele>
        <time>2021-11-20T18:19:02.488Z</time>
      </trkpt>
      <trkpt lat="47.490789" lon="7.773001">
        <ele>453.673644</ele>
        <time>2021-11-20T18:19:10.464Z</time>
      </trkpt>
      <trkpt lat="47.490600" lon="7.773314">
        <ele>455.042764</ele>
        <time>2021-11-20T18:19:19.665Z</time>
      </trkpt>
      <trkpt lat="47.490509" lon="7.773483">
        <ele>455.747591</ele>
        <time>2021-11-20T18:19:24.932Z</time>
      </trkpt>
      <trkpt lat="47.490333" lon="7.773772">
        <ele>457.016544</ele>
        <time>2021-11-20T18:19:34.392Z</time>
      </trkpt>
      <trkpt lat="47.489507" lon="7.774592">
        <ele>467.766645</ele>
        <time>2021-11-20T18:20:25.798Z</time>
      </trkpt>
      <trkpt lat="47.489299" lon="7.774864">
        <ele>470.971864</ele>
        <time>2021-11-20T18:20:46.829Z</time>
      </trkpt>
      <trkpt lat="47.489027" lon="7.775404">
        <ele>476.227282</ele>
        <time>2021-11-20T18:21:20.294Z</time>
      </trkpt>
      <trkpt lat="47.488856" lon="7.776072">
        <ele>481.974257</ele>
        <time>2021-11-20T18:21:54.333Z</time>
      </trkpt>
      <trkpt lat="47.488821" lon="7.776320">
        <ele>484.049298</ele>
        <time>2021-11-20T18:22:07.336Z</time>
      </trkpt>
      <trkpt lat="47.488804" lon="7.776561">
        <ele>486.033906</ele>
        <time>2021-11-20T18:22:18.574Z</time>
      </trkpt>
      <trkpt lat="47.488828" lon="7.777228">
        <ele>491.504631</ele>
        <time>2021-11-20T18:22:49.058Z</time>
      </trkpt>
      <trkpt lat="47.488939" lon="7.777976">
        <ele>497.777020</ele>
        <time>2021-11-20T18:23:21.184Z</time>
      </trkpt>
      <trkpt lat="47.489070" lon="7.778258">
        <ele>500.296825</ele>
        <time>2021-11-20T18:23:33.933Z</time>
      </trkpt>
      <trkpt lat="47.489510" lon="7.778865">
        <ele>503.147193</ele>
        <time>2021-11-20T18:23:56.497Z</time>
      </trkpt>
      <trkpt lat="47.489751" lon="7.779285">
        <ele>504.911468</ele>
        <time>2021-11-20T18:24:06.103Z</time>
      </trkpt>
      <trkpt lat="47.489935" lon="7.779599">
        <ele>506.242270</ele>
        <time>2021-11-20T18:24:12.742Z</time>
      </trkpt>
      <trkpt lat="47.490085" lon="7.779841">
        <ele>507.293757</ele>
        <time>2021-11-20T18:24:17.682Z</time>
      </trkpt>
      <trkpt lat="47.490300" lon="7.780156">
        <ele>508.711347</ele>
        <time>2021-11-20T18:24:27.289Z</time>
      </trkpt>
      <trkpt lat="47.490637" lon="7.780677">
        <ele>510.606480</ele>
        <time>2021-11-20T18:24:43.640Z</time>
      </trkpt>
      <trkpt lat="47.491131" lon="7.781314">
        <ele>513.154392</ele>
        <time>2021-11-20T18:24:58.553Z</time>
      </trkpt>
      <trkpt lat="47.491257" lon="7.781415">
        <ele>513.711621</ele>
        <time>2021-11-20T18:25:04.641Z</time>
      </trkpt>
      <trkpt lat="47.491593" lon="7.781786">
        <ele>515.341806</ele>
        <time>2021-11-20T18:25:20.830Z</time>
      </trkpt>
      <trkpt lat="47.491764" lon="7.781979">
        <ele>516.564646</ele>
        <time>2021-11-20T18:25:25.397Z</time>
      </trkpt>
      <trkpt lat="47.491932" lon="7.782190">
        <ele>518.028559</ele>
        <time>2021-11-20T18:25:35.736Z</time>
      </trkpt>
      <trkpt lat="47.491994" lon="7.782263">
        <ele>518.554932</ele>
        <time>2021-11-20T18:25:36.439Z</time>
      </trkpt>
      <trkpt lat="47.492051" lon="7.782347">
        <ele>519.089356</ele>
        <time>2021-11-20T18:25:41.093Z</time>
      </trkpt>
      <trkpt lat="47.492170" lon="7.783077">
        <ele>522.460470</ele>
        <time>2021-11-20T18:26:05.630Z</time>
      </trkpt>
      <trkpt lat="47.492224" lon="7.783215">
        <ele>523.176361</ele>
        <time>2021-11-20T18:26:08.188Z</time>
      </trkpt>
      <trkpt lat="47.492208" lon="7.783343">
        <ele>523.760723</ele>
        <time>2021-11-20T18:26:12.671Z</time>
      </trkpt>
      <trkpt lat="47.492115" lon="7.783471">
        <ele>524.604494</ele>
        <time>2021-11-20T18:26:20.613Z</time>
      </trkpt>
      <trkpt lat="47.492008" lon="7.783519">
        <ele>525.347322</ele>
        <time>2021-11-20T18:26:23.949Z</time>
      </trkpt>
      <trkpt lat="47.491443" lon="7.783484">
        <ele>529.607648</ele>
        <time>2021-11-20T18:26:45.886Z</time>
      </trkpt>
      <trkpt lat="47.491316" lon="7.783486">
        <ele>530.730476</ele>
        <time>2021-11-20T18:26:53.681Z</time>
      </trkpt>
      <trkpt lat="47.491026" lon="7.783504">
        <ele>533.296524</ele>
        <time>2021-11-20T18:27:08.967Z</time>
      </trkpt>
      <trkpt lat="47.490801" lon="7.783516">
        <ele>535.286966</ele>
        <time>2021-11-20T18:27:22.090Z</time>
      </trkpt>
      <trkpt lat="47.490527" lon="7.783532">
        <ele>537.711194</ele>
        <time>2021-11-20T18:27:36.027Z</time>
      </trkpt>
      <trkpt lat="47.490609" lon="7.783692">
        <ele>538.910811</ele>
        <time>2021-11-20T18:27:41.355Z</time>
      </trkpt>
      <trkpt lat="47.490633" lon="7.783833">
        <ele>539.779421</ele>
        <time>2021-11-20T18:27:46.935Z</time>
      </trkpt>
      <trkpt lat="47.490689" lon="7.784199">
        <ele>542.021158</ele>
        <time>2021-11-20T18:27:58.326Z</time>
      </trkpt>
      <trkpt lat="47.490723" lon="7.784422">
        <ele>543.386789</ele>
        <time>2021-11-20T18:28:07.880Z</time>
      </trkpt>
      <trkpt lat="47.490860" lon="7.785128">
        <ele>548.269360</ele>
        <time>2021-11-20T18:28:34.948Z</time>
      </trkpt>
      <trkpt lat="47.490876" lon="7.785414">
        <ele>550.181302</ele>
        <time>2021-11-20T18:28:45.488Z</time>
      </trkpt>
      <trkpt lat="47.490808" lon="7.785962">
        <ele>553.893305</ele>
        <time>2021-11-20T18:29:05.086Z</time>
      </trkpt>
      <trkpt lat="47.490637" lon="7.786369">
        <ele>557.086308</ele>
        <time>2021-11-20T18:29:23.586Z</time>
      </trkpt>
      <trkpt lat="47.490588" lon="7.786449">
        <ele>557.805676</ele>
        <time>2021-11-20T18:29:28.688Z</time>
      </trkpt>
      <trkpt lat="47.490524" lon="7.786562">
        <ele>558.788004</ele>
        <time>2021-11-20T18:29:33.324Z</time>
      </trkpt>
      <trkpt lat="47.490217" lon="7.787045">
        <ele>562.976027</ele>
        <time>2021-11-20T18:29:58.052Z</time>
      </trkpt>
      <trkpt lat="47.489788" lon="7.787865">
        <ele>569.086565</ele>
        <time>2021-11-20T18:30:36.135Z</time>
      </trkpt>
      <trkpt lat="47.489723" lon="7.788036">
        <ele>570.242623</ele>
        <time>2021-11-20T18:30:44.536Z</time>
      </trkpt>
      <trkpt lat="47.489691" lon="7.788200">
        <ele>571.248435</ele>
        <time>2021-11-20T18:30:50.556Z</time>
      </trkpt>
      <trkpt lat="47.489663" lon="7.788691">
        <ele>574.151824</ele>
        <time>2021-11-20T18:31:06.880Z</time>
      </trkpt>
      <trkpt lat="47.489823" lon="7.789549">
        <ele>577.640975</ele>
        <time>2021-11-20T18:31:29.627Z</time>
      </trkpt>
      <trkpt lat="47.489925" lon="7.791008">
        <ele>580.201959</ele>
        <time>2021-11-20T18:31:54.092Z</time>
      </trkpt>
      <trkpt lat="47.489971" lon="7.791599">
        <ele>581.240655</ele>
        <time>2021-11-20T18:32:01.056Z</time>
      </trkpt>
      <trkpt lat="47.489987" lon="7.791819">
        <ele>581.495464</ele>
        <time>2021-11-20T18:32:03.547Z</time>
      </trkpt>
      <trkpt lat="47.490118" lon="7.793776">
        <ele>579.118859</ele>
        <time>2021-11-20T18:32:20.341Z</time>
      </trkpt>
      <trkpt lat="47.490137" lon="7.796120">
        <ele>571.120854</ele>
        <time>2021-11-20T18:32:35.167Z</time>
      </trkpt>
      <trkpt lat="47.490229" lon="7.796508">
        <ele>569.369760</ele>
        <time>2021-11-20T18:32:37.610Z</time>
      </trkpt>
      <trkpt lat="47.490482" lon="7.797579">
        <ele>563.900194</ele>
        <time>2021-11-20T18:32:44.345Z</time>
      </trkpt>
      <trkpt lat="47.490613" lon="7.798182">
        <ele>560.502941</ele>
        <time>2021-11-20T18:32:48.053Z</time>
      </trkpt>
      <trkpt lat="47.490919" lon="7.798941">
        <ele>555.762497</ele>
        <time>2021-11-20T18:32:53.280Z</time>
      </trkpt>
      <trkpt lat="47.491125" lon="7.799903">
        <ele>551.969332</ele>
        <time>2021-11-20T18:32:59.511Z</time>
      </trkpt>
      <trkpt lat="47.491207" lon="7.800233">
        <ele>551.372028</ele>
        <time>2021-11-20T18:33:01.759Z</time>
      </trkpt>
      <trkpt lat="47.491266" lon="7.800470">
        <ele>550.942960</ele>
        <time>2021-11-20T18:33:03.533Z</time>
      </trkpt>
      <trkpt lat="47.491393" lon="7.801006">
        <ele>549.978054</ele>
        <time>2021-11-20T18:33:07.546Z</time>
      </trkpt>
      <trkpt lat="47.491405" lon="7.801118">
        <ele>549.785414</ele>
        <time>2021-11-20T18:33:08.314Z</time>
      </trkpt>
      <trkpt lat="47.491420" lon="7.801300">
        <ele>549.473944</ele>
        <time>2021-11-20T18:33:09.742Z</time>
      </trkpt>
      <trkpt lat="47.491399" lon="7.802037">
        <ele>548.220830</ele>
        <time>2021-11-20T18:33:17.724Z</time>
      </trkpt>
      <trkpt lat="47.491604" lon="7.802704">
        <ele>552.010697</ele>
        <time>2021-11-20T18:33:29.188Z</time>
      </trkpt>
      <trkpt lat="47.491641" lon="7.802949">
        <ele>553.341273</ele>
        <time>2021-11-20T18:33:34.492Z</time>
      </trkpt>
      <trkpt lat="47.491627" lon="7.803075">
        <ele>554.018061</ele>
        <time>2021-11-20T18:33:39.970Z</time>
      </trkpt>
      <trkpt lat="47.491556" lon="7.803362">
        <ele>555.637952</ele>
        <time>2021-11-20T18:33:49.193Z</time>
      </trkpt>
      <trkpt lat="47.491486" lon="7.803573">
        <ele>556.883809</ele>
        <time>2021-11-20T18:34:00.366Z</time>
      </trkpt>
      <trkpt lat="47.491467" lon="7.803711">
        <ele>557.630261</ele>
        <time>2021-11-20T18:34:07.349Z</time>
      </trkpt>
      <trkpt lat="47.491463" lon="7.803928">
        <ele>558.780826</ele>
        <time>2021-11-20T18:34:16.812Z</time>
      </trkpt>
      <trkpt lat="47.491423" lon="7.804002">
        <ele>559.283097</ele>
        <time>2021-11-20T18:34:23.636Z</time>
      </trkpt>
      <trkpt lat="47.491177" lon="7.804268">
        <ele>561.672887</ele>
        <time>2021-11-20T18:34:40.941Z</time>
      </trkpt>
      <trkpt lat="47.490972" lon="7.804817">
        <ele>565.915977</ele>
        <time>2021-11-20T18:35:11.961Z</time>
      </trkpt>
      <trkpt lat="47.490914" lon="7.804913">
        <ele>566.831516</ele>
        <time>2021-11-20T18:35:16.741Z</time>
      </trkpt>
      <trkpt lat="47.490692" lon="7.805224">
        <ele>570.047801</ele>
        <time>2021-11-20T18:35:37.184Z</time>
      </trkpt>
      <trkpt lat="47.490528" lon="7.805558">
        <ele>572.983098</ele>
        <time>2021-11-20T18:35:49.517Z</time>
      </trkpt>
      <trkpt lat="47.490509" lon="7.805657">
        <ele>573.714776</ele>
        <time>2021-11-20T18:35:56.950Z</time>
      </trkpt>
      <trkpt lat="47.490507" lon="7.805711">
        <ele>574.099264</ele>
        <time>2021-11-20T18:35:57.315Z</time>
      </trkpt>
      <trkpt lat="47.490538" lon="7.805979">
        <ele>576.032321</ele>
        <time>2021-11-20T18:36:06.303Z</time>
      </trkpt>
      <trkpt lat="47.490574" lon="7.806137">
        <ele>577.217760</ele>
        <time>2021-11-20T18:36:12.261Z</time>
      </trkpt>
      <trkpt lat="47.490633" lon="7.806304">
        <ele>578.557532</ele>
        <time>2021-11-20T18:36:18.522Z</time>
      </trkpt>
      <trkpt lat="47.490886" lon="7.806854">
        <ele>582.068737</ele>
        <time>2021-11-20T18:36:41.735Z</time>
      </trkpt>
      <trkpt lat="47.490987" lon="7.807452">
        <ele>583.853728</ele>
        <time>2021-11-20T18:36:57.645Z</time>
      </trkpt>
      <trkpt lat="47.491021" lon="7.807539">
        <ele>584.144769</ele>
        <time>2021-11-20T18:36:59.924Z</time>
      </trkpt>
      <trkpt lat="47.491259" lon="7.808151">
        <ele>586.189575</ele>
        <time>2021-11-20T18:37:10.547Z</time>
      </trkpt>
      <trkpt lat="47.491350" lon="7.808391">
        <ele>586.986518</ele>
        <time>2021-11-20T18:37:15.183Z</time>
      </trkpt>
      <trkpt lat="47.491452" lon="7.808947">
        <ele>588.654878</ele>
        <time>2021-11-20T18:37:22.655Z</time>
      </trkpt>
      <trkpt lat="47.491490" lon="7.809341">
        <ele>589.741440</ele>
        <time>2021-11-20T18:37:31.243Z</time>
      </trkpt>
      <trkpt lat="47.491540" lon="7.809874">
        <ele>591.181326</ele>
        <time>2021-11-20T18:37:42.961Z</time>
      </trkpt>
      <trkpt lat="47.491544" lon="7.810309">
        <ele>592.345411</ele>
        <time>2021-11-20T18:37:52.916Z</time>
      </trkpt>
      <trkpt lat="47.491483" lon="7.810733">
        <ele>593.505387</ele>
        <time>2021-11-20T18:38:03.212Z</time>
      </trkpt>
      <trkpt lat="47.491462" lon="7.810822">
        <ele>593.757637</ele>
        <time>2021-11-20T18:38:05.410Z</time>
      </trkpt>
      <trkpt lat="47.491417" lon="7.811033">
        <ele>594.349689</ele>
        <time>2021-11-20T18:38:09.203Z</time>
      </trkpt>
      <trkpt lat="47.491356" lon="7.811021">
        <ele>594.593378</ele>
        <time>2021-11-20T18:38:11.767Z</time>
      </trkpt>
      <trkpt lat="47.491305" lon="7.811022">
        <ele>594.795358</ele>
        <time>2021-11-20T18:38:13.404Z</time>
      </trkpt>
      <trkpt lat="47.491210" lon="7.811067">
        <ele>595.190365</ele>
        <time>2021-11-20T18:38:16.947Z</time>
      </trkpt>
      <trkpt lat="47.491168" lon="7.811103">
        <ele>595.382569</ele>
        <time>2021-11-20T18:38:19.101Z</time>
      </trkpt>
      <trkpt lat="47.491099" lon="7.811167">
        <ele>595.705044</ele>
        <time>2021-11-20T18:38:20.216Z</time>
      </trkpt>
      <trkpt lat="47.490921" lon="7.811332">
        <ele>596.457751</ele>
        <time>2021-11-20T18:38:26.632Z</time>
      </trkpt>
      <trkpt lat="47.490608" lon="7.811558">
        <ele>597.607308</ele>
        <time>2021-11-20T18:38:35.803Z</time>
      </trkpt>
      <trkpt lat="47.490230" lon="7.811766">
        <ele>598.938467</ele>
        <time>2021-11-20T18:38:46.475Z</time>
      </trkpt>
      <trkpt lat="47.489734" lon="7.811930">
        <ele>600.616028</ele>
        <time>2021-11-20T18:39:01.538Z</time>
      </trkpt>
      <trkpt lat="47.488654" lon="7.812154">
        <ele>604.368702</ele>
        <time>2021-11-20T18:39:30.702Z</time>
      </trkpt>
      <trkpt lat="47.488525" lon="7.812197">
        <ele>604.835292</ele>
        <time>2021-11-20T18:39:35.076Z</time>
      </trkpt>
      <trkpt lat="47.486782" lon="7.812718">
        <ele>610.092088</ele>
        <time>2021-11-20T18:40:28.252Z</time>
      </trkpt>
      <trkpt lat="47.486531" lon="7.812839">
        <ele>610.680618</ele>
        <time>2021-11-20T18:40:35.201Z</time>
      </trkpt>
      <trkpt lat="47.485925" lon="7.813196">
        <ele>612.134775</ele>
        <time>2021-11-20T18:40:49.192Z</time>
      </trkpt>
      <trkpt lat="47.485144" lon="7.813866">
        <ele>608.216471</ele>
        <time>2021-11-20T18:40:59.200Z</time>
      </trkpt>
      <trkpt lat="47.484810" lon="7.814067">
        <ele>606.359603</ele>
        <time>2021-11-20T18:41:02.409Z</time>
      </trkpt>
      <trkpt lat="47.484732" lon="7.814081">
        <ele>605.954966</ele>
        <time>2021-11-20T18:41:03.060Z</time>
      </trkpt>
      <trkpt lat="47.484689" lon="7.814083">
        <ele>605.733412</ele>
        <time>2021-11-20T18:41:04.161Z</time>
      </trkpt>
      <trkpt lat="47.484558" lon="7.814061">
        <ele>605.054444</ele>
        <time>2021-11-20T18:41:07.869Z</time>
      </trkpt>
      <trkpt lat="47.484474" lon="7.814023">
        <ele>604.602089</ele>
        <time>2021-11-20T18:41:10.262Z</time>
      </trkpt>
      <trkpt lat="47.484375" lon="7.813958">
        <ele>604.044316</ele>
        <time>2021-11-20T18:41:11.153Z</time>
      </trkpt>
      <trkpt lat="47.483867" lon="7.813452">
        <ele>597.661062</ele>
        <time>2021-11-20T18:41:16.613Z</time>
      </trkpt>
      <trkpt lat="47.483804" lon="7.813389">
        <ele>596.695165</ele>
        <time>2021-11-20T18:41:17.241Z</time>
      </trkpt>
      <trkpt lat="47.483708" lon="7.813293">
        <ele>595.223320</ele>
        <time>2021-11-20T18:41:18.256Z</time>
      </trkpt>
      <trkpt lat="47.483493" lon="7.813178">
        <ele>592.319228</ele>
        <time>2021-11-20T18:41:20.209Z</time>
      </trkpt>
      <trkpt lat="47.483220" lon="7.813099">
        <ele>588.785627</ele>
        <time>2021-11-20T18:41:22.583Z</time>
      </trkpt>
      <trkpt lat="47.482949" lon="7.813114">
        <ele>585.340717</ele>
        <time>2021-11-20T18:41:24.830Z</time>
      </trkpt>
      <trkpt lat="47.482420" lon="7.813239">
        <ele>578.081767</ele>
        <time>2021-11-20T18:41:29.236Z</time>
      </trkpt>
      <trkpt lat="47.482097" lon="7.813263">
        <ele>572.882278</ele>
        <time>2021-11-20T18:41:31.892Z</time>
      </trkpt>
      <trkpt lat="47.481920" lon="7.813196">
        <ele>569.944968</ele>
        <time>2021-11-20T18:41:33.389Z</time>
      </trkpt>
      <trkpt lat="47.481456" lon="7.813058">
        <ele>562.335932</ele>
        <time>2021-11-20T18:41:37.285Z</time>
      </trkpt>
      <trkpt lat="47.480872" lon="7.813093">
        <ele>552.939130</ele>
        <time>2021-11-20T18:41:42.136Z</time>
      </trkpt>
      <trkpt lat="47.480713" lon="7.812994">
        <ele>550.782181</ele>
        <time>2021-11-20T18:41:43.593Z</time>
      </trkpt>
      <trkpt lat="47.479735" lon="7.811893">
        <ele>541.509007</ele>
        <time>2021-11-20T18:41:54.208Z</time>
      </trkpt>
      <trkpt lat="47.479687" lon="7.811839">
        <ele>541.053994</ele>
        <time>2021-11-20T18:42:01.300Z</time>
      </trkpt>
      <trkpt lat="47.479473" lon="7.811584">
        <ele>538.980599</ele>
        <time>2021-11-20T18:42:03.580Z</time>
      </trkpt>
      <trkpt lat="47.478943" lon="7.810849">
        <ele>535.540142</ele>
        <time>2021-11-20T18:42:11.964Z</time>
      </trkpt>
      <trkpt lat="47.478809" lon="7.810763">
        <ele>534.966541</ele>
        <time>2021-11-20T18:42:23.313Z</time>
      </trkpt>
      <trkpt lat="47.478566" lon="7.810790">
        <ele>534.009574</ele>
        <time>2021-11-20T18:42:25.442Z</time>
      </trkpt>
      <trkpt lat="47.478335" lon="7.810955">
        <ele>533.002240</ele>
        <time>2021-11-20T18:42:30.977Z</time>
      </trkpt>
      <trkpt lat="47.478231" lon="7.811139">
        <ele>532.365600</ele>
        <time>2021-11-20T18:42:32.355Z</time>
      </trkpt>
      <trkpt lat="47.478204" lon="7.811401">
        <ele>531.662164</ele>
        <time>2021-11-20T18:42:33.949Z</time>
      </trkpt>
      <trkpt lat="47.478262" lon="7.811831">
        <ele>530.231522</ele>
        <time>2021-11-20T18:42:36.512Z</time>
      </trkpt>
      <trkpt lat="47.478245" lon="7.812069">
        <ele>528.718853</ele>
        <time>2021-11-20T18:42:37.979Z</time>
      </trkpt>
      <trkpt lat="47.478216" lon="7.812137">
        <ele>528.210645</ele>
        <time>2021-11-20T18:42:38.431Z</time>
      </trkpt>
      <trkpt lat="47.478172" lon="7.812240">
        <ele>527.440491</ele>
        <time>2021-11-20T18:42:39.157Z</time>
      </trkpt>
      <trkpt lat="47.477609" lon="7.813223">
        <ele>519.296557</ele>
        <time>2021-11-20T18:42:46.712Z</time>
      </trkpt>
      <trkpt lat="47.477546" lon="7.813318">
        <ele>518.455331</ele>
        <time>2021-11-20T18:42:47.462Z</time>
      </trkpt>
      <trkpt lat="47.477516" lon="7.813359">
        <ele>518.073407</ele>
        <time>2021-11-20T18:42:47.807Z</time>
      </trkpt>
      <trkpt lat="47.477155" lon="7.813696">
        <ele>514.081619</ele>
        <time>2021-11-20T18:42:51.729Z</time>
      </trkpt>
      <trkpt lat="47.476980" lon="7.813791">
        <ele>512.230977</ele>
        <time>2021-11-20T18:42:53.897Z</time>
      </trkpt>
      <trkpt lat="47.476884" lon="7.813858">
        <ele>511.168781</ele>
        <time>2021-11-20T18:42:54.764Z</time>
      </trkpt>
      <trkpt lat="47.476563" lon="7.814189">
        <ele>507.253325</ele>
        <time>2021-11-20T18:42:58.143Z</time>
      </trkpt>
      <trkpt lat="47.476534" lon="7.814226">
        <ele>506.870118</ele>
        <time>2021-11-20T18:43:02.185Z</time>
      </trkpt>
      <trkpt lat="47.476334" lon="7.814450">
        <ele>504.359919</ele>
        <time>2021-11-20T18:43:04.347Z</time>
      </trkpt>
      <trkpt lat="47.476204" lon="7.814552">
        <ele>502.887386</ele>
        <time>2021-11-20T18:43:05.558Z</time>
      </trkpt>
      <trkpt lat="47.476150" lon="7.814569">
        <ele>502.334907</ele>
        <time>2021-11-20T18:43:10.345Z</time>
      </trkpt>
      <trkpt lat="47.476077" lon="7.814575">
        <ele>501.603264</ele>
        <time>2021-11-20T18:43:10.948Z</time>
      </trkpt>
      <trkpt lat="47.475705" lon="7.814474">
        <ele>497.818471</ele>
        <time>2021-11-20T18:43:14.135Z</time>
      </trkpt>
      <trkpt lat="47.475471" lon="7.814482">
        <ele>495.323841</ele>
        <time>2021-11-20T18:43:16.082Z</time>
      </trkpt>
      <trkpt lat="47.475276" lon="7.814567">
        <ele>492.506401</ele>
        <time>2021-11-20T18:43:17.845Z</time>
      </trkpt>
      <trkpt lat="47.475210" lon="7.814595">
        <ele>491.554817</ele>
        <time>2021-11-20T18:43:18.414Z</time>
      </trkpt>
      <trkpt lat="47.474961" lon="7.814741">
        <ele>487.842688</ele>
        <time>2021-11-20T18:43:21.022Z</time>
      </trkpt>
      <trkpt lat="47.474804" lon="7.814845">
        <ele>485.458614</ele>
        <time>2021-11-20T18:43:22.439Z</time>
      </trkpt>
      <trkpt lat="47.474584" lon="7.814993">
        <ele>482.109135</ele>
        <time>2021-11-20T18:43:24.575Z</time>
      </trkpt>
      <trkpt lat="47.474430" lon="7.815154">
        <ele>479.495677</ele>
        <time>2021-11-20T18:43:26.215Z</time>
      </trkpt>
      <trkpt lat="47.474375" lon="7.815394">
        <ele>477.121689</ele>
        <time>2021-11-20T18:43:27.678Z</time>
      </trkpt>
      <trkpt lat="47.474616" lon="7.816226">
        <ele>468.301135</ele>
        <time>2021-11-20T18:43:32.684Z</time>
      </trkpt>
      <trkpt lat="47.474739" lon="7.816928">
        <ele>460.501197</ele>
        <time>2021-11-20T18:43:36.710Z</time>
      </trkpt>
      <trkpt lat="47.474739" lon="7.817281">
        <ele>456.704501</ele>
        <time>2021-11-20T18:43:38.662Z</time>
      </trkpt>
      <trkpt lat="47.474702" lon="7.817367">
        <ele>455.608043</ele>
        <time>2021-11-20T18:43:39.367Z</time>
      </trkpt>
      <trkpt lat="47.474641" lon="7.817509">
        <ele>453.798405</ele>
        <time>2021-11-20T18:43:40.881Z</time>
      </trkpt>
      <trkpt lat="47.474613" lon="7.817546">
        <ele>453.201008</ele>
        <time>2021-11-20T18:43:42.149Z</time>
      </trkpt>
      <trkpt lat="47.474555" lon="7.817587">
        <ele>452.178143</ele>
        <time>2021-11-20T18:43:42.936Z</time>
      </trkpt>
      <trkpt lat="47.474389" lon="7.817613">
        <ele>449.521903</ele>
        <time>2021-11-20T18:43:58.127Z</time>
      </trkpt>
      <trkpt lat="47.474233" lon="7.817507">
        <ele>446.790257</ele>
        <time>2021-11-20T18:43:59.585Z</time>
      </trkpt>
      <trkpt lat="47.474210" lon="7.817475">
        <ele>446.287855</ele>
        <time>2021-11-20T18:44:00.163Z</time>
      </trkpt>
      <trkpt lat="47.474182" lon="7.817417">
        <ele>445.521256</ele>
        <time>2021-11-20T18:44:07.118Z</time>
      </trkpt>
      <trkpt lat="47.473926" lon="7.816632">
        <ele>439.384396</ele>
        <time>2021-11-20T18:44:12.710Z</time>
      </trkpt>
      <trkpt lat="47.473743" lon="7.816298">
        <ele>437.184200</ele>
        <time>2021-11-20T18:44:15.123Z</time>
      </trkpt>
      <trkpt lat="47.473230" lon="7.815705">
        <ele>432.255392</ele>
        <time>2021-11-20T18:44:20.737Z</time>
      </trkpt>
      <trkpt lat="47.472623" lon="7.815140">
        <ele>426.925114</ele>
        <time>2021-11-20T18:44:29.253Z</time>
      </trkpt>
      <trkpt lat="47.472505" lon="7.815033">
        <ele>425.932563</ele>
        <time>2021-11-20T18:44:30.617Z</time>
      </trkpt>
      <trkpt lat="47.472320" lon="7.814860">
        <ele>424.363006</ele>
        <time>2021-11-20T18:44:32.754Z</time>
      </trkpt>
      <trkpt lat="47.471093" lon="7.813407">
        <ele>413.904220</ele>
        <time>2021-11-20T18:44:46.335Z</time>
      </trkpt>
      <trkpt lat="47.470923" lon="7.812993">
        <ele>412.258780</ele>
        <time>2021-11-20T18:44:49.396Z</time>
      </trkpt>
      <trkpt lat="47.470835" lon="7.812891">
        <ele>411.696993</ele>
        <time>2021-11-20T18:44:50.530Z</time>
      </trkpt>
      <trkpt lat="47.470794" lon="7.812878">
        <ele>411.486280</ele>
        <time>2021-11-20T18:44:51.298Z</time>
      </trkpt>
      <trkpt lat="47.470744" lon="7.812887">
        <ele>411.233167</ele>
        <time>2021-11-20T18:44:51.748Z</time>
      </trkpt>
      <trkpt lat="47.470614" lon="7.813052">
        <ele>410.372404</ele>
        <time>2021-11-20T18:44:53.374Z</time>
      </trkpt>
      <trkpt lat="47.470607" lon="7.813259">
        <ele>409.668371</ele>
        <time>2021-11-20T18:44:55.072Z</time>
      </trkpt>
      <trkpt lat="47.470938" lon="7.813871">
        <ele>407.005955</ele>
        <time>2021-11-20T18:45:00.463Z</time>
      </trkpt>
      <trkpt lat="47.470969" lon="7.814299">
        <ele>405.533347</ele>
        <time>2021-11-20T18:45:03.936Z</time>
      </trkpt>
      <trkpt lat="47.470838" lon="7.814669">
        <ele>404.102456</ele>
        <time>2021-11-20T18:45:07.026Z</time>
      </trkpt>
      <trkpt lat="47.470596" lon="7.814760">
        <ele>402.836994</ele>
        <time>2021-11-20T18:45:09.381Z</time>
      </trkpt>
      <trkpt lat="47.470163" lon="7.814758">
        <ele>400.642531</ele>
        <time>2021-11-20T18:45:13.375Z</time>
      </trkpt>
      <trkpt lat="47.469960" lon="7.814754">
        <ele>399.613632</ele>
        <time>2021-11-20T18:45:15.393Z</time>
      </trkpt>
      <trkpt lat="47.469647" lon="7.814557">
        <ele>397.889740</ele>
        <time>2021-11-20T18:45:18.396Z</time>
      </trkpt>
      <trkpt lat="47.469608" lon="7.814504">
        <ele>397.594708</ele>
        <time>2021-11-20T18:45:18.872Z</time>
      </trkpt>
      <trkpt lat="47.469564" lon="7.814419">
        <ele>396.914323</ele>
        <time>2021-11-20T18:45:19.475Z</time>
      </trkpt>
      <trkpt lat="47.469477" lon="7.814056">
        <ele>394.466680</ele>
        <time>2021-11-20T18:45:21.838Z</time>
      </trkpt>
      <trkpt lat="47.469471" lon="7.813955">
        <ele>393.822330</ele>
        <time>2021-11-20T18:45:22.412Z</time>
      </trkpt>
      <trkpt lat="47.469445" lon="7.813683">
        <ele>392.076517</ele>
        <time>2021-11-20T18:45:24.044Z</time>
      </trkpt>
      <trkpt lat="47.469382" lon="7.813432">
        <ele>390.374948</ele>
        <time>2021-11-20T18:45:25.589Z</time>
      </trkpt>
      <trkpt lat="47.469261" lon="7.813214">
        <ele>388.582321</ele>
        <time>2021-11-20T18:45:27.237Z</time>
      </trkpt>
      <trkpt lat="47.468968" lon="7.813033">
        <ele>385.597173</ele>
        <time>2021-11-20T18:45:29.953Z</time>
      </trkpt>
      <trkpt lat="47.468898" lon="7.813028">
        <ele>384.938306</ele>
        <time>2021-11-20T18:45:30.540Z</time>
      </trkpt>
      <trkpt lat="47.468231" lon="7.813117">
        <ele>379.568929</ele>
        <time>2021-11-20T18:45:36.290Z</time>
      </trkpt>
      <trkpt lat="47.468087" lon="7.813122">
        <ele>378.812247</ele>
        <time>2021-11-20T18:45:37.563Z</time>
      </trkpt>
      <trkpt lat="47.467986" lon="7.813069">
        <ele>378.249271</ele>
        <time>2021-11-20T18:45:38.572Z</time>
      </trkpt>
      <trkpt lat="47.467958" lon="7.813047">
        <ele>378.082717</ele>
        <time>2021-11-20T18:45:38.909Z</time>
      </trkpt>
      <trkpt lat="47.467857" lon="7.812969">
        <ele>377.484182</ele>
        <time>2021-11-20T18:45:39.915Z</time>
      </trkpt>
      <trkpt lat="47.467746" lon="7.812871">
        <ele>376.805107</ele>
        <time>2021-11-20T18:45:41.132Z</time>
      </trkpt>
      <trkpt lat="47.467739" lon="7.812865">
        <ele>376.762607</ele>
        <time>2021-11-20T18:45:41.199Z</time>
      </trkpt>
      <trkpt lat="47.467426" lon="7.812608">
        <ele>374.882014</ele>
        <time>2021-11-20T18:45:44.567Z</time>
      </trkpt>
      <trkpt lat="47.467146" lon="7.812375">
        <ele>373.194329</ele>
        <time>2021-11-20T18:45:47.882Z</time>
      </trkpt>
      <trkpt lat="47.467077" lon="7.812317">
        <ele>372.777418</ele>
        <time>2021-11-20T18:45:48.675Z</time>
      </trkpt>
      <trkpt lat="47.467013" lon="7.812269">
        <ele>372.400463</ele>
        <time>2021-11-20T18:45:49.523Z</time>
      </trkpt>
      <trkpt lat="47.466796" lon="7.812117">
        <ele>371.313415</ele>
        <time>2021-11-20T18:45:52.108Z</time>
      </trkpt>
      <trkpt lat="47.466676" lon="7.812018">
        <ele>371.404461</ele>
        <time>2021-11-20T18:45:53.722Z</time>
      </trkpt>
      <trkpt lat="47.466578" lon="7.811937">
        <ele>371.478848</ele>
        <time>2021-11-20T18:45:55.128Z</time>
      </trkpt>
      <trkpt lat="47.466490" lon="7.811850">
        <ele>371.548984</ele>
        <time>2021-11-20T18:45:56.452Z</time>
      </trkpt>
      <trkpt lat="47.466315" lon="7.811646">
        <ele>371.696624</ele>
        <time>2021-11-20T18:46:00.246Z</time>
      </trkpt>
      <trkpt lat="47.466262" lon="7.811579">
        <ele>371.742821</ele>
        <time>2021-11-20T18:46:01.310Z</time>
      </trkpt>
      <trkpt lat="47.466196" lon="7.811499">
        <ele>371.799362</ele>
        <time>2021-11-20T18:46:02.926Z</time>
      </trkpt>
      <trkpt lat="47.466094" lon="7.811396">
        <ele>371.881197</ele>
        <time>2021-11-20T18:46:05.392Z</time>
      </trkpt>
      <trkpt lat="47.466010" lon="7.811328">
        <ele>371.944648</ele>
        <time>2021-11-20T18:46:07.295Z</time>
      </trkpt>
      <trkpt lat="47.465897" lon="7.811237">
        <ele>372.029902</ele>
        <time>2021-11-20T18:46:09.568Z</time>
      </trkpt>
      <trkpt lat="47.465656" lon="7.811068">
        <ele>372.206632</ele>
        <time>2021-11-20T18:46:15.961Z</time>
      </trkpt>
      <trkpt lat="47.465536" lon="7.811007">
        <ele>372.290712</ele>
        <time>2021-11-20T18:46:18.900Z</time>
      </trkpt>
      <trkpt lat="47.465394" lon="7.810939">
        <ele>372.389613</ele>
        <time>2021-11-20T18:46:22.759Z</time>
      </trkpt>
      <trkpt lat="47.465245" lon="7.810868">
        <ele>372.504845</ele>
        <time>2021-11-20T18:46:26.097Z</time>
      </trkpt>
      <trkpt lat="47.465212" lon="7.810852">
        <ele>372.562642</ele>
        <time>2021-11-20T18:46:26.981Z</time>
      </trkpt>
      <trkpt lat="47.465087" lon="7.810791">
        <ele>372.781711</ele>
        <time>2021-11-20T18:46:30.137Z</time>
      </trkpt>
      <trkpt lat="47.464636" lon="7.810572">
        <ele>373.571729</ele>
        <time>2021-11-20T18:46:40.421Z</time>
      </trkpt>
      <trkpt lat="47.464496" lon="7.810462">
        <ele>373.835565</ele>
        <time>2021-11-20T18:46:43.642Z</time>
      </trkpt>
      <trkpt lat="47.464452" lon="7.810429">
        <ele>373.917670</ele>
        <time>2021-11-20T18:46:44.839Z</time>
      </trkpt>
      <trkpt lat="47.464417" lon="7.810573">
        <ele>374.089846</ele>
        <time>2021-11-20T18:46:47.129Z</time>
      </trkpt>
      <trkpt lat="47.464385" lon="7.810619">
        <ele>374.164111</ele>
        <time>2021-11-20T18:46:47.866Z</time>
      </trkpt>
      <trkpt lat="47.464364" lon="7.810630">
        <ele>374.201188</ele>
        <time>2021-11-20T18:46:48.350Z</time>
      </trkpt>
      <trkpt lat="47.464340" lon="7.810632">
        <ele>374.241195</ele>
        <time>2021-11-20T18:46:48.890Z</time>
      </trkpt>
      <trkpt lat="47.464200" lon="7.810621">
        <ele>374.474528</ele>
        <time>2021-11-20T18:46:51.657Z</time>
      </trkpt>
      <trkpt lat="47.463897" lon="7.810575">
        <ele>374.981466</ele>
        <time>2021-11-20T18:46:58.302Z</time>
      </trkpt>
      <trkpt lat="47.463886" lon="7.810514">
        <ele>375.052501</ele>
        <time>2021-11-20T18:46:59.335Z</time>
      </trkpt>
      <trkpt lat="47.463831" lon="7.810395">
        <ele>375.214695</ele>
        <time>2021-11-20T18:47:01.905Z</time>
      </trkpt>
      <trkpt lat="47.463753" lon="7.810251">
        <ele>375.422311</ele>
        <time>2021-11-20T18:47:05.200Z</time>
      </trkpt>
      <trkpt lat="47.463689" lon="7.810134">
        <ele>375.568316</ele>
        <time>2021-11-20T18:47:07.894Z</time>
      </trkpt>
      <trkpt lat="47.463652" lon="7.810060">
        <ele>375.650378</ele>
        <time>2021-11-20T18:47:09.367Z</time>
      </trkpt>
      <trkpt lat="47.463616" lon="7.809990">
        <ele>375.728795</ele>
        <time>2021-11-20T18:47:10.882Z</time>
      </trkpt>
      <trkpt lat="47.463603" lon="7.809961">
        <ele>375.759819</ele>
        <time>2021-11-20T18:47:11.501Z</time>
      </trkpt>
      <trkpt lat="47.463403" lon="7.809601">
        <ele>376.175263</ele>
        <time>2021-11-20T18:47:19.554Z</time>
      </trkpt>
      <trkpt lat="47.463347" lon="7.809533">
        <ele>376.270814</ele>
        <time>2021-11-20T18:47:21.683Z</time>
      </trkpt>
      <trkpt lat="47.463122" lon="7.809317">
        <ele>376.624563</ele>
        <time>2021-11-20T18:47:28.203Z</time>
      </trkpt>
      <trkpt lat="47.463007" lon="7.809215">
        <ele>376.801403</ele>
        <time>2021-11-20T18:47:31.732Z</time>
      </trkpt>
      <trkpt lat="47.462918" lon="7.809150">
        <ele>376.932305</ele>
        <time>2021-11-20T18:47:33.434Z</time>
      </trkpt>
      <trkpt lat="47.462879" lon="7.809121">
        <ele>376.989872</ele>
        <time>2021-11-20T18:47:34.480Z</time>
      </trkpt>
      <trkpt lat="47.462185" lon="7.808547">
        <ele>378.060133</ele>
        <time>2021-11-20T18:47:50.003Z</time>
      </trkpt>
      <trkpt lat="47.462087" lon="7.808494">
        <ele>378.213654</ele>
        <time>2021-11-20T18:47:52.402Z</time>
      </trkpt>
      <trkpt lat="47.462052" lon="7.808470">
        <ele>378.270413</ele>
        <time>2021-11-20T18:47:53.109Z</time>
      </trkpt>
      <trkpt lat="47.461997" lon="7.808450">
        <ele>378.353742</ele>
        <time>2021-11-20T18:47:54.168Z</time>
      </trkpt>
      <trkpt lat="47.461822" lon="7.808433">
        <ele>378.611769</ele>
        <time>2021-11-20T18:47:58.006Z</time>
      </trkpt>
      <trkpt lat="47.461296" lon="7.808372">
        <ele>379.388033</ele>
        <time>2021-11-20T18:48:09.266Z</time>
      </trkpt>
      <trkpt lat="47.460938" lon="7.808308">
        <ele>379.918581</ele>
        <time>2021-11-20T18:48:16.600Z</time>
      </trkpt>
      <trkpt lat="47.460870" lon="7.808289">
        <ele>380.020397</ele>
        <time>2021-11-20T18:48:17.934Z</time>
      </trkpt>
      <trkpt lat="47.460827" lon="7.808276">
        <ele>380.084970</ele>
        <time>2021-11-20T18:48:18.932Z</time>
      </trkpt>
      <trkpt lat="47.460439" lon="7.808155">
        <ele>380.660187</ele>
        <time>2021-11-20T18:48:27.195Z</time>
      </trkpt>
      <trkpt lat="47.460298" lon="7.808103">
        <ele>380.863738</ele>
        <time>2021-11-20T18:48:30.189Z</time>
      </trkpt>
      <trkpt lat="47.460078" lon="7.808023">
        <ele>381.181077</ele>
        <time>2021-11-20T18:48:34.868Z</time>
      </trkpt>
      <trkpt lat="47.459865" lon="7.807952">
        <ele>381.486917</ele>
        <time>2021-11-20T18:48:39.296Z</time>
      </trkpt>
      <trkpt lat="47.459423" lon="7.807775">
        <ele>382.128335</ele>
        <time>2021-11-20T18:48:48.894Z</time>
      </trkpt>
      <trkpt lat="47.459282" lon="7.807707">
        <ele>382.336073</ele>
        <time>2021-11-20T18:48:51.767Z</time>
      </trkpt>
      <trkpt lat="47.459007" lon="7.807577">
        <ele>382.740473</ele>
        <time>2021-11-20T18:48:57.168Z</time>
      </trkpt>
      <trkpt lat="47.458678" lon="7.807409">
        <ele>383.301498</ele>
        <time>2021-11-20T18:49:04.134Z</time>
      </trkpt>
      <trkpt lat="47.458342" lon="7.807254">
        <ele>383.966234</ele>
        <time>2021-11-20T18:49:11.645Z</time>
      </trkpt>
      <trkpt lat="47.458237" lon="7.807215">
        <ele>384.170699</ele>
        <time>2021-11-20T18:49:14.061Z</time>
      </trkpt>
      <trkpt lat="47.458181" lon="7.807191">
        <ele>384.280814</ele>
        <time>2021-11-20T18:49:15.411Z</time>
      </trkpt>
      <trkpt lat="47.457732" lon="7.807037">
        <ele>385.151319</ele>
        <time>2021-11-20T18:49:25.912Z</time>
      </trkpt>
      <trkpt lat="47.457326" lon="7.806926">
        <ele>385.931100</ele>
        <time>2021-11-20T18:49:35.836Z</time>
      </trkpt>
      <trkpt lat="47.457291" lon="7.806917">
        <ele>385.998194</ele>
        <time>2021-11-20T18:49:36.560Z</time>
      </trkpt>
      <trkpt lat="47.456988" lon="7.806840">
        <ele>386.595006</ele>
        <time>2021-11-20T18:49:43.996Z</time>
      </trkpt>
      <trkpt lat="47.456502" lon="7.806745">
        <ele>387.611687</ele>
        <time>2021-11-20T18:49:55.308Z</time>
      </trkpt>
      <trkpt lat="47.456331" lon="7.806727">
        <ele>387.967221</ele>
        <time>2021-11-20T18:49:59.457Z</time>
      </trkpt>
      <trkpt lat="47.456100" lon="7.806718">
        <ele>388.446459</ele>
        <time>2021-11-20T18:50:04.826Z</time>
      </trkpt>
      <trkpt lat="47.455379" lon="7.806783">
        <ele>389.944517</ele>
        <time>2021-11-20T18:50:21.520Z</time>
      </trkpt>
      <trkpt lat="47.454559" lon="7.807067">
        <ele>391.250889</ele>
        <time>2021-11-20T18:50:40.288Z</time>
      </trkpt>
      <trkpt lat="47.454428" lon="7.807128">
        <ele>391.454658</ele>
        <time>2021-11-20T18:50:42.623Z</time>
      </trkpt>
      <trkpt lat="47.454310" lon="7.807191">
        <ele>391.640791</ele>
        <time>2021-11-20T18:50:45.128Z</time>
      </trkpt>
      <trkpt lat="47.453985" lon="7.807368">
        <ele>392.154644</ele>
        <time>2021-11-20T18:50:51.598Z</time>
      </trkpt>
      <trkpt lat="47.453901" lon="7.807402">
        <ele>392.283857</ele>
        <time>2021-11-20T18:50:53.478Z</time>
      </trkpt>
      <trkpt lat="47.453815" lon="7.807438">
        <ele>392.416467</ele>
        <time>2021-11-20T18:50:55.173Z</time>
      </trkpt>
      <trkpt lat="47.453677" lon="7.807487">
        <ele>392.627033</ele>
        <time>2021-11-20T18:50:57.780Z</time>
      </trkpt>
      <trkpt lat="47.453371" lon="7.807571">
        <ele>393.115641</ele>
        <time>2021-11-20T18:51:03.834Z</time>
      </trkpt>
      <trkpt lat="47.453183" lon="7.807608">
        <ele>393.424409</ele>
        <time>2021-11-20T18:51:08.058Z</time>
      </trkpt>
      <trkpt lat="47.452830" lon="7.807686">
        <ele>394.005481</ele>
        <time>2021-11-20T18:51:16.331Z</time>
      </trkpt>
      <trkpt lat="47.452649" lon="7.807724">
        <ele>394.303109</ele>
        <time>2021-11-20T18:51:20.242Z</time>
      </trkpt>
      <trkpt lat="47.452556" lon="7.807739">
        <ele>394.455413</ele>
        <time>2021-11-20T18:51:22.245Z</time>
      </trkpt>
      <trkpt lat="47.452456" lon="7.807753">
        <ele>394.618943</ele>
        <time>2021-11-20T18:51:24.766Z</time>
      </trkpt>
      <trkpt lat="47.452253" lon="7.807773">
        <ele>394.950165</ele>
        <time>2021-11-20T18:51:29.104Z</time>
      </trkpt>
      <trkpt lat="47.451923" lon="7.807754">
        <ele>395.487821</ele>
        <time>2021-11-20T18:51:35.990Z</time>
      </trkpt>
      <trkpt lat="47.451791" lon="7.807759">
        <ele>395.702791</ele>
        <time>2021-11-20T18:51:38.746Z</time>
      </trkpt>
      <trkpt lat="47.451415" lon="7.807774">
        <ele>396.270276</ele>
        <time>2021-11-20T18:51:46.566Z</time>
      </trkpt>
      <trkpt lat="47.450005" lon="7.807761">
        <ele>398.386391</ele>
        <time>2021-11-20T18:52:15.980Z</time>
      </trkpt>
      <trkpt lat="47.449896" lon="7.807771">
        <ele>398.588273</ele>
        <time>2021-11-20T18:52:17.981Z</time>
      </trkpt>
      <trkpt lat="47.449829" lon="7.807782">
        <ele>398.724417</ele>
        <time>2021-11-20T18:52:19.340Z</time>
      </trkpt>
      <trkpt lat="47.449353" lon="7.807942">
        <ele>399.710266</ele>
        <time>2021-11-20T18:52:29.402Z</time>
      </trkpt>
      <trkpt lat="47.449267" lon="7.807971">
        <ele>399.888410</ele>
        <time>2021-11-20T18:52:31.724Z</time>
      </trkpt>
      <trkpt lat="47.449015" lon="7.808053">
        <ele>400.409523</ele>
        <time>2021-11-20T18:52:37.532Z</time>
      </trkpt>
      <trkpt lat="47.448903" lon="7.808078">
        <ele>400.638280</ele>
        <time>2021-11-20T18:52:40.376Z</time>
      </trkpt>
      <trkpt lat="47.448807" lon="7.808072">
        <ele>400.832334</ele>
        <time>2021-11-20T18:52:42.253Z</time>
      </trkpt>
      <trkpt lat="47.448442" lon="7.807881">
        <ele>401.614281</ele>
        <time>2021-11-20T18:52:51.655Z</time>
      </trkpt>
      <trkpt lat="47.448284" lon="7.807767">
        <ele>401.969335</ele>
        <time>2021-11-20T18:52:56.341Z</time>
      </trkpt>
      <trkpt lat="47.448245" lon="7.807740">
        <ele>402.056304</ele>
        <time>2021-11-20T18:52:57.774Z</time>
      </trkpt>
      <trkpt lat="47.447914" lon="7.807549">
        <ele>403.465935</ele>
        <time>2021-11-20T18:53:06.767Z</time>
      </trkpt>
      <trkpt lat="47.447689" lon="7.807548">
        <ele>404.368995</ele>
        <time>2021-11-20T18:53:11.703Z</time>
      </trkpt>
      <trkpt lat="47.447668" lon="7.807553">
        <ele>404.454366</ele>
        <time>2021-11-20T18:53:12.822Z</time>
      </trkpt>
      <trkpt lat="47.447633" lon="7.807562">
        <ele>404.596949</ele>
        <time>2021-11-20T18:53:13.755Z</time>
      </trkpt>
      <trkpt lat="47.447457" lon="7.807654">
        <ele>405.346177</ele>
        <time>2021-11-20T18:53:18.001Z</time>
      </trkpt>
      <trkpt lat="47.447388" lon="7.807704">
        <ele>405.654580</ele>
        <time>2021-11-20T18:53:19.735Z</time>
      </trkpt>
      <trkpt lat="47.447314" lon="7.807756">
        <ele>405.983416</ele>
        <time>2021-11-20T18:53:22.759Z</time>
      </trkpt>
      <trkpt lat="47.446662" lon="7.808234">
        <ele>408.904244</ele>
        <time>2021-11-20T18:53:47.796Z</time>
      </trkpt>
      <trkpt lat="47.446473" lon="7.808376">
        <ele>410.001569</ele>
        <time>2021-11-20T18:53:56.805Z</time>
      </trkpt>
      <trkpt lat="47.446375" lon="7.808453">
        <ele>410.683988</ele>
        <time>2021-11-20T18:54:01.514Z</time>
      </trkpt>
      <trkpt lat="47.446142" lon="7.808642">
        <ele>412.318188</ele>
        <time>2021-11-20T18:54:12.993Z</time>
      </trkpt>
      <trkpt lat="47.446096" lon="7.808680">
        <ele>412.642203</ele>
        <time>2021-11-20T18:54:15.320Z</time>
      </trkpt>
      <trkpt lat="47.446066" lon="7.808703">
        <ele>412.850003</ele>
        <time>2021-11-20T18:54:16.238Z</time>
      </trkpt>
      <trkpt lat="47.445880" lon="7.808843">
        <ele>414.133419</ele>
        <time>2021-11-20T18:54:25.017Z</time>
      </trkpt>
      <trkpt lat="47.445298" lon="7.809256">
        <ele>418.103078</ele>
        <time>2021-11-20T18:54:48.606Z</time>
      </trkpt>
      <trkpt lat="47.445120" lon="7.809369">
        <ele>419.294260</ele>
        <time>2021-11-20T18:54:56.141Z</time>
      </trkpt>
      <trkpt lat="47.445054" lon="7.809404">
        <ele>419.725423</ele>
        <time>2021-11-20T18:54:59.442Z</time>
      </trkpt>
      <trkpt lat="47.444386" lon="7.809626">
        <ele>423.390604</ele>
        <time>2021-11-20T18:55:32.604Z</time>
      </trkpt>
      <trkpt lat="47.443991" lon="7.809623">
        <ele>425.450163</ele>
        <time>2021-11-20T18:55:50.832Z</time>
      </trkpt>
      <trkpt lat="47.443720" lon="7.809596">
        <ele>426.866363</ele>
        <time>2021-11-20T18:56:02.953Z</time>
      </trkpt>
      <trkpt lat="47.443441" lon="7.809553">
        <ele>428.328951</ele>
        <time>2021-11-20T18:56:13.122Z</time>
      </trkpt>
      <trkpt lat="47.442919" lon="7.809465">
        <ele>429.640966</ele>
        <time>2021-11-20T18:56:27.545Z</time>
      </trkpt>
      <trkpt lat="47.442683" lon="7.809428">
        <ele>429.558255</ele>
        <time>2021-11-20T18:56:34.353Z</time>
      </trkpt>
      <trkpt lat="47.442177" lon="7.809333">
        <ele>429.380492</ele>
        <time>2021-11-20T18:56:46.426Z</time>
      </trkpt>
      <trkpt lat="47.440417" lon="7.808777">
        <ele>425.829400</ele>
        <time>2021-11-20T18:57:12.944Z</time>
      </trkpt>
      <trkpt lat="47.439717" lon="7.808754">
        <ele>423.548489</ele>
        <time>2021-11-20T18:57:22.791Z</time>
      </trkpt>
      <trkpt lat="47.439561" lon="7.808777">
        <ele>423.187724</ele>
        <time>2021-11-20T18:57:24.957Z</time>
      </trkpt>
      <trkpt lat="47.439256" lon="7.808836">
        <ele>422.913529</ele>
        <time>2021-11-20T18:57:29.652Z</time>
      </trkpt>
      <trkpt lat="47.439160" lon="7.808856">
        <ele>422.827110</ele>
        <time>2021-11-20T18:57:31.117Z</time>
      </trkpt>
      <trkpt lat="47.438917" lon="7.808920">
        <ele>422.607089</ele>
        <time>2021-11-20T18:57:35.142Z</time>
      </trkpt>
      <trkpt lat="47.438351" lon="7.809132">
        <ele>422.086617</ele>
        <time>2021-11-20T18:57:45.813Z</time>
      </trkpt>
      <trkpt lat="47.437880" lon="7.809448">
        <ele>421.670701</ele>
        <time>2021-11-20T18:57:58.344Z</time>
      </trkpt>
      <trkpt lat="47.437530" lon="7.809761">
        <ele>422.379058</ele>
        <time>2021-11-20T18:58:09.709Z</time>
      </trkpt>
      <trkpt lat="47.437405" lon="7.809871">
        <ele>422.630967</ele>
        <time>2021-11-20T18:58:13.714Z</time>
      </trkpt>
      <trkpt lat="47.436971" lon="7.810198">
        <ele>423.474505</ele>
        <time>2021-11-20T18:58:26.993Z</time>
      </trkpt>
      <trkpt lat="47.436910" lon="7.810231">
        <ele>423.586990</ele>
        <time>2021-11-20T18:58:28.902Z</time>
      </trkpt>
      <trkpt lat="47.436754" lon="7.810295">
        <ele>423.867346</ele>
        <time>2021-11-20T18:58:33.372Z</time>
      </trkpt>
      <trkpt lat="47.436714" lon="7.810307">
        <ele>423.938026</ele>
        <time>2021-11-20T18:58:34.644Z</time>
      </trkpt>
      <trkpt lat="47.436286" lon="7.810439">
        <ele>424.695156</ele>
        <time>2021-11-20T18:58:46.825Z</time>
      </trkpt>
      <trkpt lat="47.436034" lon="7.810517">
        <ele>425.148956</ele>
        <time>2021-11-20T18:58:54.333Z</time>
      </trkpt>
      <trkpt lat="47.435676" lon="7.810622">
        <ele>425.794023</ele>
        <time>2021-11-20T18:59:04.370Z</time>
      </trkpt>
      <trkpt lat="47.435107" lon="7.810718">
        <ele>426.806213</ele>
        <time>2021-11-20T18:59:19.473Z</time>
      </trkpt>
      <trkpt lat="47.434890" lon="7.810694">
        <ele>427.190814</ele>
        <time>2021-11-20T18:59:25.464Z</time>
      </trkpt>
      <trkpt lat="47.434532" lon="7.810638">
        <ele>427.827082</ele>
        <time>2021-11-20T18:59:35.228Z</time>
      </trkpt>
      <trkpt lat="47.434221" lon="7.810592">
        <ele>428.438406</ele>
        <time>2021-11-20T18:59:43.732Z</time>
      </trkpt>
      <trkpt lat="47.434093" lon="7.810572">
        <ele>428.696020</ele>
        <time>2021-11-20T18:59:47.141Z</time>
      </trkpt>
      <trkpt lat="47.433643" lon="7.810504">
        <ele>429.601368</ele>
        <time>2021-11-20T18:59:59.755Z</time>
      </trkpt>
      <trkpt lat="47.433316" lon="7.810451">
        <ele>430.259765</ele>
        <time>2021-11-20T19:00:09.577Z</time>
      </trkpt>
      <trkpt lat="47.432928" lon="7.810342">
        <ele>431.050228</ele>
        <time>2021-11-20T19:00:20.741Z</time>
      </trkpt>
      <trkpt lat="47.432554" lon="7.810136">
        <ele>431.893361</ele>
        <time>2021-11-20T19:00:32.079Z</time>
      </trkpt>
      <trkpt lat="47.432174" lon="7.809836">
        <ele>432.877062</ele>
        <time>2021-11-20T19:00:44.547Z</time>
      </trkpt>
      <trkpt lat="47.432022" lon="7.809706">
        <ele>433.278051</ele>
        <time>2021-11-20T19:00:50.093Z</time>
      </trkpt>
      <trkpt lat="47.431419" lon="7.809325">
        <ele>434.775477</ele>
        <time>2021-11-20T19:01:09.315Z</time>
      </trkpt>
      <trkpt lat="47.430797" lon="7.809083">
        <ele>436.596111</ele>
        <time>2021-11-20T19:01:28.196Z</time>
      </trkpt>
      <trkpt lat="47.430630" lon="7.809037">
        <ele>437.210595</ele>
        <time>2021-11-20T19:01:33.220Z</time>
      </trkpt>
      <trkpt lat="47.430473" lon="7.809009">
        <ele>437.782626</ele>
        <time>2021-11-20T19:01:37.416Z</time>
      </trkpt>
      <trkpt lat="47.430471" lon="7.809009">
        <ele>437.789860</ele>
        <time>2021-11-20T19:01:37.590Z</time>
      </trkpt>
      <trkpt lat="47.429678" lon="7.808980">
        <ele>440.659240</ele>
        <time>2021-11-20T19:02:03.476Z</time>
      </trkpt>
      <trkpt lat="47.428816" lon="7.809184">
        <ele>445.506941</ele>
        <time>2021-11-20T19:02:42.201Z</time>
      </trkpt>
      <trkpt lat="47.428531" lon="7.809311">
        <ele>447.673777</ele>
        <time>2021-11-20T19:02:57.518Z</time>
      </trkpt>
      <trkpt lat="47.428078" lon="7.809508">
        <ele>451.111073</ele>
        <time>2021-11-20T19:03:22.221Z</time>
      </trkpt>
      <trkpt lat="47.427626" lon="7.809699">
        <ele>454.533149</ele>
        <time>2021-11-20T19:03:47.137Z</time>
      </trkpt>
      <trkpt lat="47.427284" lon="7.809847">
        <ele>456.686005</ele>
        <time>2021-11-20T19:04:05.904Z</time>
      </trkpt>
      <trkpt lat="47.426541" lon="7.810106">
        <ele>460.943313</ele>
        <time>2021-11-20T19:04:42.622Z</time>
      </trkpt>
      <trkpt lat="47.425184" lon="7.810445">
        <ele>467.028693</ele>
        <time>2021-11-20T19:05:28.420Z</time>
      </trkpt>
      <trkpt lat="47.424871" lon="7.810565">
        <ele>467.975417</ele>
        <time>2021-11-20T19:05:36.527Z</time>
      </trkpt>
      <trkpt lat="47.424697" lon="7.810643">
        <ele>468.507767</ele>
        <time>2021-11-20T19:05:42.550Z</time>
      </trkpt>
      <trkpt lat="47.423941" lon="7.811048">
        <ele>471.005059</ele>
        <time>2021-11-20T19:06:07.943Z</time>
      </trkpt>
      <trkpt lat="47.423767" lon="7.811175">
        <ele>471.823667</ele>
        <time>2021-11-20T19:06:15.145Z</time>
      </trkpt>
      <trkpt lat="47.423172" lon="7.811608">
        <ele>474.621315</ele>
        <time>2021-11-20T19:06:41.317Z</time>
      </trkpt>
      <trkpt lat="47.422978" lon="7.811734">
        <ele>475.515199</ele>
        <time>2021-11-20T19:06:49.345Z</time>
      </trkpt>
      <trkpt lat="47.422720" lon="7.811867">
        <ele>476.667827</ele>
        <time>2021-11-20T19:07:00.086Z</time>
      </trkpt>
      <trkpt lat="47.422397" lon="7.812011">
        <ele>478.090986</ele>
        <time>2021-11-20T19:07:13.990Z</time>
      </trkpt>
      <trkpt lat="47.421893" lon="7.812157">
        <ele>477.756546</ele>
        <time>2021-11-20T19:07:31.228Z</time>
      </trkpt>
      <trkpt lat="47.421441" lon="7.812208">
        <ele>477.426164</ele>
        <time>2021-11-20T19:07:41.707Z</time>
      </trkpt>
      <trkpt lat="47.421065" lon="7.812200">
        <ele>477.152102</ele>
        <time>2021-11-20T19:07:47.153Z</time>
      </trkpt>
      <trkpt lat="47.421065" lon="7.812200">
        <ele>477.152102</ele>
        <time>2021-11-20T19:07:47.283Z</time>
      </trkpt>
      <trkpt lat="47.420870" lon="7.812170">
        <ele>477.009215</ele>
        <time>2021-11-20T19:07:49.885Z</time>
      </trkpt>
      <trkpt lat="47.420767" lon="7.812138">
        <ele>476.932507</ele>
        <time>2021-11-20T19:07:51.256Z</time>
      </trkpt>
      <trkpt lat="47.420607" lon="7.812071">
        <ele>476.796305</ele>
        <time>2021-11-20T19:07:53.704Z</time>
      </trkpt>
      <trkpt lat="47.420458" lon="7.811986">
        <ele>476.056563</ele>
        <time>2021-11-20T19:07:55.694Z</time>
      </trkpt>
      <trkpt lat="47.420135" lon="7.811734">
        <ele>474.364886</ele>
        <time>2021-11-20T19:08:00.635Z</time>
      </trkpt>
      <trkpt lat="47.419766" lon="7.811395">
        <ele>472.352519</ele>
        <time>2021-11-20T19:08:06.536Z</time>
      </trkpt>
      <trkpt lat="47.419632" lon="7.811270">
        <ele>471.618589</ele>
        <time>2021-11-20T19:08:08.717Z</time>
      </trkpt>
      <trkpt lat="47.419508" lon="7.811160">
        <ele>470.948747</ele>
        <time>2021-11-20T19:08:10.542Z</time>
      </trkpt>
      <trkpt lat="47.419414" lon="7.811078">
        <ele>470.443187</ele>
        <time>2021-11-20T19:08:12.178Z</time>
      </trkpt>
      <trkpt lat="47.419155" lon="7.810934">
        <ele>469.161509</ele>
        <time>2021-11-20T19:08:15.757Z</time>
      </trkpt>
      <trkpt lat="47.419134" lon="7.810926">
        <ele>469.061065</ele>
        <time>2021-11-20T19:08:16.269Z</time>
      </trkpt>
      <trkpt lat="47.419069" lon="7.810903">
        <ele>468.751498</ele>
        <time>2021-11-20T19:08:17.568Z</time>
      </trkpt>
      <trkpt lat="47.419015" lon="7.810884">
        <ele>468.494398</ele>
        <time>2021-11-20T19:08:18.412Z</time>
      </trkpt>
      <trkpt lat="47.418762" lon="7.810815">
        <ele>468.484342</ele>
        <time>2021-11-20T19:08:22.310Z</time>
      </trkpt>
      <trkpt lat="47.418377" lon="7.810720">
        <ele>468.485781</ele>
        <time>2021-11-20T19:08:29.344Z</time>
      </trkpt>
      <trkpt lat="47.417828" lon="7.810432">
        <ele>468.487928</ele>
        <time>2021-11-20T19:08:44.629Z</time>
      </trkpt>
      <trkpt lat="47.417743" lon="7.810418">
        <ele>468.488243</ele>
        <time>2021-11-20T19:08:46.836Z</time>
      </trkpt>
      <trkpt lat="47.417675" lon="7.810419">
        <ele>468.488494</ele>
        <time>2021-11-20T19:08:49.241Z</time>
      </trkpt>
      <trkpt lat="47.417067" lon="7.810695">
        <ele>468.743049</ele>
        <time>2021-11-20T19:09:04.549Z</time>
      </trkpt>
      <trkpt lat="47.416690" lon="7.810617">
        <ele>469.183439</ele>
        <time>2021-11-20T19:09:14.170Z</time>
      </trkpt>
      <trkpt lat="47.416598" lon="7.810554">
        <ele>469.300741</ele>
        <time>2021-11-20T19:09:17.542Z</time>
      </trkpt>
      <trkpt lat="47.416432" lon="7.810407">
        <ele>469.524618</ele>
        <time>2021-11-20T19:09:22.034Z</time>
      </trkpt>
      <trkpt lat="47.416349" lon="7.810346">
        <ele>469.631856</ele>
        <time>2021-11-20T19:09:24.173Z</time>
      </trkpt>
      <trkpt lat="47.416026" lon="7.810233">
        <ele>470.015850</ele>
        <time>2021-11-20T19:09:32.549Z</time>
      </trkpt>
      <trkpt lat="47.415983" lon="7.810241">
        <ele>470.065987</ele>
        <time>2021-11-20T19:09:33.576Z</time>
      </trkpt>
      <trkpt lat="47.415923" lon="7.810254">
        <ele>470.136141</ele>
        <time>2021-11-20T19:09:35.513Z</time>
      </trkpt>
      <trkpt lat="47.415633" lon="7.810382">
        <ele>470.486275</ele>
        <time>2021-11-20T19:09:42.324Z</time>
      </trkpt>
      <trkpt lat="47.415390" lon="7.810500">
        <ele>470.723392</ele>
        <time>2021-11-20T19:09:48.350Z</time>
      </trkpt>
      <trkpt lat="47.414706" lon="7.810912">
        <ele>471.340228</ele>
        <time>2021-11-20T19:10:04.924Z</time>
      </trkpt>
      <trkpt lat="47.414237" lon="7.811081">
        <ele>471.743366</ele>
        <time>2021-11-20T19:10:16.233Z</time>
      </trkpt>
      <trkpt lat="47.413959" lon="7.811165">
        <ele>471.980327</ele>
        <time>2021-11-20T19:10:23.417Z</time>
      </trkpt>
      <trkpt lat="47.413799" lon="7.811208">
        <ele>472.157046</ele>
        <time>2021-11-20T19:10:27.308Z</time>
      </trkpt>
      <trkpt lat="47.413716" lon="7.811229">
        <ele>472.293854</ele>
        <time>2021-11-20T19:10:29.148Z</time>
      </trkpt>
      <trkpt lat="47.413652" lon="7.811232">
        <ele>472.397884</ele>
        <time>2021-11-20T19:10:31.060Z</time>
      </trkpt>
      <trkpt lat="47.413454" lon="7.811217">
        <ele>472.719987</ele>
        <time>2021-11-20T19:10:35.839Z</time>
      </trkpt>
      <trkpt lat="47.413351" lon="7.811196">
        <ele>472.888912</ele>
        <time>2021-11-20T19:10:38.371Z</time>
      </trkpt>
      <trkpt lat="47.413295" lon="7.811180">
        <ele>472.981577</ele>
        <time>2021-11-20T19:10:40.111Z</time>
      </trkpt>
      <trkpt lat="47.413209" lon="7.811148">
        <ele>473.125658</ele>
        <time>2021-11-20T19:10:42.314Z</time>
      </trkpt>
      <trkpt lat="47.412829" lon="7.810950">
        <ele>473.780279</ele>
        <time>2021-11-20T19:10:52.785Z</time>
      </trkpt>
      <trkpt lat="47.412719" lon="7.810865">
        <ele>473.981949</ele>
        <time>2021-11-20T19:10:56.160Z</time>
      </trkpt>
      <trkpt lat="47.411512" lon="7.810306">
        <ele>476.342617</ele>
        <time>2021-11-20T19:11:32.858Z</time>
      </trkpt>
      <trkpt lat="47.411038" lon="7.810167">
        <ele>477.358039</ele>
        <time>2021-11-20T19:11:47.047Z</time>
      </trkpt>
      <trkpt lat="47.410795" lon="7.810008">
        <ele>477.916465</ele>
        <time>2021-11-20T19:11:54.309Z</time>
      </trkpt>
      <trkpt lat="47.410574" lon="7.809784">
        <ele>478.479589</ele>
        <time>2021-11-20T19:12:01.675Z</time>
      </trkpt>
      <trkpt lat="47.410407" lon="7.809617">
        <ele>478.908876</ele>
        <time>2021-11-20T19:12:07.235Z</time>
      </trkpt>
      <trkpt lat="47.410267" lon="7.809486">
        <ele>479.272138</ele>
        <time>2021-11-20T19:12:11.762Z</time>
      </trkpt>
      <trkpt lat="47.410057" lon="7.809308">
        <ele>479.802854</ele>
        <time>2021-11-20T19:12:18.969Z</time>
      </trkpt>
      <trkpt lat="47.409973" lon="7.809245">
        <ele>480.009357</ele>
        <time>2021-11-20T19:12:21.478Z</time>
      </trkpt>
      <trkpt lat="47.409739" lon="7.809061">
        <ele>480.590432</ele>
        <time>2021-11-20T19:12:29.320Z</time>
      </trkpt>
      <trkpt lat="47.409009" lon="7.808554">
        <ele>482.358666</ele>
        <time>2021-11-20T19:12:52.585Z</time>
      </trkpt>
      <trkpt lat="47.408924" lon="7.808529">
        <ele>482.548656</ele>
        <time>2021-11-20T19:12:55.398Z</time>
      </trkpt>
      <trkpt lat="47.408899" lon="7.808522">
        <ele>482.604435</ele>
        <time>2021-11-20T19:12:56.137Z</time>
      </trkpt>
      <trkpt lat="47.408773" lon="7.808493">
        <ele>482.917271</ele>
        <time>2021-11-20T19:13:00.148Z</time>
      </trkpt>
      <trkpt lat="47.408203" lon="7.808546">
        <ele>484.419462</ele>
        <time>2021-11-20T19:13:17.361Z</time>
      </trkpt>
      <trkpt lat="47.407661" lon="7.808646">
        <ele>485.856113</ele>
        <time>2021-11-20T19:13:34.237Z</time>
      </trkpt>
      <trkpt lat="47.407303" lon="7.808718">
        <ele>486.806415</ele>
        <time>2021-11-20T19:13:46.216Z</time>
      </trkpt>
      <trkpt lat="47.406932" lon="7.808849">
        <ele>487.800668</ele>
        <time>2021-11-20T19:13:57.373Z</time>
      </trkpt>
      <trkpt lat="47.406259" lon="7.809218">
        <ele>489.641561</ele>
        <time>2021-11-20T19:14:19.669Z</time>
      </trkpt>
      <trkpt lat="47.406093" lon="7.809301">
        <ele>490.090979</ele>
        <time>2021-11-20T19:14:25.790Z</time>
      </trkpt>
      <trkpt lat="47.405944" lon="7.809350">
        <ele>490.482437</ele>
        <time>2021-11-20T19:14:29.842Z</time>
      </trkpt>
      <trkpt lat="47.405843" lon="7.809380">
        <ele>490.746632</ele>
        <time>2021-11-20T19:14:33.045Z</time>
      </trkpt>
      <trkpt lat="47.405740" lon="7.809402">
        <ele>491.013519</ele>
        <time>2021-11-20T19:14:36.465Z</time>
      </trkpt>
      <trkpt lat="47.405651" lon="7.809411">
        <ele>491.242292</ele>
        <time>2021-11-20T19:14:38.288Z</time>
      </trkpt>
      <trkpt lat="47.405362" lon="7.809433">
        <ele>491.984411</ele>
        <time>2021-11-20T19:14:47.343Z</time>
      </trkpt>
      <trkpt lat="47.405269" lon="7.809435">
        <ele>492.243729</ele>
        <time>2021-11-20T19:14:49.636Z</time>
      </trkpt>
      <trkpt lat="47.404882" lon="7.809460">
        <ele>493.364546</ele>
        <time>2021-11-20T19:15:01.270Z</time>
      </trkpt>
      <trkpt lat="47.404543" lon="7.809480">
        <ele>494.346191</ele>
        <time>2021-11-20T19:15:11.806Z</time>
      </trkpt>
      <trkpt lat="47.404082" lon="7.809543">
        <ele>495.685744</ele>
        <time>2021-11-20T19:15:25.983Z</time>
      </trkpt>
      <trkpt lat="47.403833" lon="7.809618">
        <ele>496.421020</ele>
        <time>2021-11-20T19:15:34.870Z</time>
      </trkpt>
      <trkpt lat="47.403732" lon="7.809654">
        <ele>496.721637</ele>
        <time>2021-11-20T19:15:38.244Z</time>
      </trkpt>
      <trkpt lat="47.403507" lon="7.809728">
        <ele>497.457786</ele>
        <time>2021-11-20T19:15:46.273Z</time>
      </trkpt>
      <trkpt lat="47.403310" lon="7.809800">
        <ele>498.373725</ele>
        <time>2021-11-20T19:15:53.373Z</time>
      </trkpt>
      <trkpt lat="47.403266" lon="7.809816">
        <ele>498.578241</ele>
        <time>2021-11-20T19:15:55.054Z</time>
      </trkpt>
      <trkpt lat="47.403065" lon="7.809891">
        <ele>499.513917</ele>
        <time>2021-11-20T19:16:02.485Z</time>
      </trkpt>
      <trkpt lat="47.402761" lon="7.810009">
        <ele>500.932550</ele>
        <time>2021-11-20T19:16:14.131Z</time>
      </trkpt>
      <trkpt lat="47.402137" lon="7.810207">
        <ele>503.813128</ele>
        <time>2021-11-20T19:16:39.341Z</time>
      </trkpt>
      <trkpt lat="47.401421" lon="7.810310">
        <ele>507.339400</ele>
        <time>2021-11-20T19:17:09.206Z</time>
      </trkpt>
      <trkpt lat="47.400552" lon="7.810295">
        <ele>511.915297</ele>
        <time>2021-11-20T19:17:45.816Z</time>
      </trkpt>
      <trkpt lat="47.400026" lon="7.810485">
        <ele>514.766449</ele>
        <time>2021-11-20T19:18:07.643Z</time>
      </trkpt>
      <trkpt lat="47.399771" lon="7.810732">
        <ele>516.172611</ele>
        <time>2021-11-20T19:18:20.398Z</time>
      </trkpt>
      <trkpt lat="47.399530" lon="7.811091">
        <ele>517.738061</ele>
        <time>2021-11-20T19:18:34.383Z</time>
      </trkpt>
      <trkpt lat="47.399034" lon="7.812265">
        <ele>522.022857</ele>
        <time>2021-11-20T19:19:09.458Z</time>
      </trkpt>
      <trkpt lat="47.399003" lon="7.812335">
        <ele>522.281852</ele>
        <time>2021-11-20T19:19:11.916Z</time>
      </trkpt>
      <trkpt lat="47.398873" lon="7.812642">
        <ele>523.406259</ele>
        <time>2021-11-20T19:19:20.566Z</time>
      </trkpt>
      <trkpt lat="47.398378" lon="7.813502">
        <ele>526.936300</ele>
        <time>2021-11-20T19:19:47.933Z</time>
      </trkpt>
      <trkpt lat="47.397971" lon="7.814039">
        <ele>529.457209</ele>
        <time>2021-11-20T19:20:08.915Z</time>
      </trkpt>
      <trkpt lat="47.397420" lon="7.814610">
        <ele>532.703269</ele>
        <time>2021-11-20T19:20:37.993Z</time>
      </trkpt>
      <trkpt lat="47.396819" lon="7.815041">
        <ele>536.148341</ele>
        <time>2021-11-20T19:21:06.721Z</time>
      </trkpt>
      <trkpt lat="47.396655" lon="7.815127">
        <ele>537.045747</ele>
        <time>2021-11-20T19:21:14.420Z</time>
      </trkpt>
      <trkpt lat="47.396481" lon="7.815220">
        <ele>537.999942</ele>
        <time>2021-11-20T19:21:21.983Z</time>
      </trkpt>
      <trkpt lat="47.395894" lon="7.815362">
        <ele>540.732356</ele>
        <time>2021-11-20T19:21:45.580Z</time>
      </trkpt>
      <trkpt lat="47.395284" lon="7.815226">
        <ele>541.265646</ele>
        <time>2021-11-20T19:22:05.175Z</time>
      </trkpt>
      <trkpt lat="47.394617" lon="7.815011">
        <ele>541.855804</ele>
        <time>2021-11-20T19:22:18.821Z</time>
      </trkpt>
      <trkpt lat="47.394138" lon="7.814860">
        <ele>542.131929</ele>
        <time>2021-11-20T19:22:26.508Z</time>
      </trkpt>
      <trkpt lat="47.392812" lon="7.814454">
        <ele>540.402563</ele>
        <time>2021-11-20T19:22:47.853Z</time>
      </trkpt>
      <trkpt lat="47.392674" lon="7.814421">
        <ele>540.224036</ele>
        <time>2021-11-20T19:22:50.284Z</time>
      </trkpt>
      <trkpt lat="47.392571" lon="7.814403">
        <ele>540.091582</ele>
        <time>2021-11-20T19:22:53.005Z</time>
      </trkpt>
      <trkpt lat="47.392247" lon="7.814378">
        <ele>540.431182</ele>
        <time>2021-11-20T19:23:00.528Z</time>
      </trkpt>
      <trkpt lat="47.392009" lon="7.814397">
        <ele>541.061412</ele>
        <time>2021-11-20T19:23:06.197Z</time>
      </trkpt>
      <trkpt lat="47.391965" lon="7.814402">
        <ele>541.178099</ele>
        <time>2021-11-20T19:23:07.056Z</time>
      </trkpt>
      <trkpt lat="47.391873" lon="7.814418">
        <ele>541.423043</ele>
        <time>2021-11-20T19:23:09.332Z</time>
      </trkpt>
      <trkpt lat="47.391815" lon="7.814430">
        <ele>541.577901</ele>
        <time>2021-11-20T19:23:11.076Z</time>
      </trkpt>
      <trkpt lat="47.391510" lon="7.814535">
        <ele>542.405985</ele>
        <time>2021-11-20T19:23:19.366Z</time>
      </trkpt>
      <trkpt lat="47.391330" lon="7.814611">
        <ele>542.900997</ele>
        <time>2021-11-20T19:23:25.208Z</time>
      </trkpt>
      <trkpt lat="47.391072" lon="7.814743">
        <ele>543.622954</ele>
        <time>2021-11-20T19:23:34.903Z</time>
      </trkpt>
      <trkpt lat="47.390680" lon="7.814949">
        <ele>544.802159</ele>
        <time>2021-11-20T19:23:51.647Z</time>
      </trkpt>
      <trkpt lat="47.390484" lon="7.815052">
        <ele>546.331453</ele>
        <time>2021-11-20T19:24:00.320Z</time>
      </trkpt>
      <trkpt lat="47.389865" lon="7.815413">
        <ele>551.223650</ele>
        <time>2021-11-20T19:24:34.207Z</time>
      </trkpt>
      <trkpt lat="47.389319" lon="7.815732">
        <ele>555.539956</ele>
        <time>2021-11-20T19:25:06.754Z</time>
      </trkpt>
      <trkpt lat="47.388771" lon="7.816079">
        <ele>559.281581</ele>
        <time>2021-11-20T19:25:36.651Z</time>
      </trkpt>
      <trkpt lat="47.388346" lon="7.816395">
        <ele>561.669936</ele>
        <time>2021-11-20T19:25:59.382Z</time>
      </trkpt>
      <trkpt lat="47.388090" lon="7.816620">
        <ele>563.165232</ele>
        <time>2021-11-20T19:26:11.006Z</time>
      </trkpt>
      <trkpt lat="47.387912" lon="7.816788">
        <ele>564.225548</ele>
        <time>2021-11-20T19:26:18.110Z</time>
      </trkpt>
      <trkpt lat="47.387708" lon="7.817012">
        <ele>565.501497</ele>
        <time>2021-11-20T19:26:26.415Z</time>
      </trkpt>
      <trkpt lat="47.387576" lon="7.817190">
        <ele>566.398681</ele>
        <time>2021-11-20T19:26:31.757Z</time>
      </trkpt>
      <trkpt lat="47.387476" lon="7.817327">
        <ele>567.048065</ele>
        <time>2021-11-20T19:26:36.192Z</time>
      </trkpt>
      <trkpt lat="47.387291" lon="7.817580">
        <ele>568.024132</ele>
        <time>2021-11-20T19:26:43.277Z</time>
      </trkpt>
      <trkpt lat="47.387125" lon="7.817809">
        <ele>568.903496</ele>
        <time>2021-11-20T19:26:50.438Z</time>
      </trkpt>
      <trkpt lat="47.386756" lon="7.818366">
        <ele>570.946100</ele>
        <time>2021-11-20T19:27:05.651Z</time>
      </trkpt>
      <trkpt lat="47.387295" lon="7.819228">
        <ele>574.256958</ele>
        <time>2021-11-20T19:27:36.803Z</time>
      </trkpt>
      <trkpt lat="47.387344" lon="7.819291">
        <ele>574.966494</ele>
        <time>2021-11-20T19:27:41.001Z</time>
      </trkpt>
      <trkpt lat="47.387455" lon="7.819356">
        <ele>576.270639</ele>
        <time>2021-11-20T19:27:46.274Z</time>
      </trkpt>
      <trkpt lat="47.387515" lon="7.819333">
        <ele>576.947669</ele>
        <time>2021-11-20T19:27:50.298Z</time>
      </trkpt>
      <trkpt lat="47.387616" lon="7.819226">
        <ele>578.305206</ele>
        <time>2021-11-20T19:27:56.279Z</time>
      </trkpt>
      <trkpt lat="47.387844" lon="7.818926">
        <ele>581.640221</ele>
        <time>2021-11-20T19:28:14.426Z</time>
      </trkpt>
      <trkpt lat="47.388042" lon="7.818733">
        <ele>584.231240</ele>
        <time>2021-11-20T19:28:30.503Z</time>
      </trkpt>
      <trkpt lat="47.388385" lon="7.818625">
        <ele>588.061660</ele>
        <time>2021-11-20T19:28:54.750Z</time>
      </trkpt>
      <trkpt lat="47.389637" lon="7.818812">
        <ele>605.271788</ele>
        <time>2021-11-20T19:30:32.250Z</time>
      </trkpt>
      <trkpt lat="47.390457" lon="7.819279">
        <ele>618.894118</ele>
        <time>2021-11-20T19:31:52.243Z</time>
      </trkpt>
      <trkpt lat="47.390992" lon="7.819409">
        <ele>626.583907</ele>
        <time>2021-11-20T19:32:34.179Z</time>
      </trkpt>
      <trkpt lat="47.391427" lon="7.819670">
        <ele>632.977623</ele>
        <time>2021-11-20T19:33:07.190Z</time>
      </trkpt>
      <trkpt lat="47.391460" lon="7.819671">
        <ele>633.427100</ele>
        <time>2021-11-20T19:33:11.008Z</time>
      </trkpt>
      <trkpt lat="47.391498" lon="7.819654">
        <ele>633.967783</ele>
        <time>2021-11-20T19:33:13.591Z</time>
      </trkpt>
      <trkpt lat="47.391809" lon="7.819450">
        <ele>638.601667</ele>
        <time>2021-11-20T19:33:39.143Z</time>
      </trkpt>
      <trkpt lat="47.392298" lon="7.818874">
        <ele>646.859625</ele>
        <time>2021-11-20T19:34:18.898Z</time>
      </trkpt>
      <trkpt lat="47.392423" lon="7.818649">
        <ele>648.967700</ele>
        <time>2021-11-20T19:34:35.665Z</time>
      </trkpt>
      <trkpt lat="47.392460" lon="7.818257">
        <ele>651.834269</ele>
        <time>2021-11-20T19:34:55.228Z</time>
      </trkpt>
      <trkpt lat="47.392590" lon="7.818159">
        <ele>653.395720</ele>
        <time>2021-11-20T19:35:01.465Z</time>
      </trkpt>
      <trkpt lat="47.392629" lon="7.818162">
        <ele>653.813528</ele>
        <time>2021-11-20T19:35:02.491Z</time>
      </trkpt>
      <trkpt lat="47.392659" lon="7.818175">
        <ele>654.148010</ele>
        <time>2021-11-20T19:35:04.409Z</time>
      </trkpt>
      <trkpt lat="47.392690" lon="7.818200">
        <ele>654.525871</ele>
        <time>2021-11-20T19:35:06.452Z</time>
      </trkpt>
      <trkpt lat="47.392787" lon="7.818334">
        <ele>655.946723</ele>
        <time>2021-11-20T19:35:15.962Z</time>
      </trkpt>
      <trkpt lat="47.393503" lon="7.819621">
        <ele>667.290862</ele>
        <time>2021-11-20T19:36:23.929Z</time>
      </trkpt>
      <trkpt lat="47.393779" lon="7.820343">
        <ele>671.781929</ele>
        <time>2021-11-20T19:36:58.875Z</time>
      </trkpt>
      <trkpt lat="47.393867" lon="7.820917">
        <ele>674.969662</ele>
        <time>2021-11-20T19:37:19.589Z</time>
      </trkpt>
      <trkpt lat="47.393914" lon="7.821827">
        <ele>679.586113</ele>
        <time>2021-11-20T19:37:46.625Z</time>
      </trkpt>
      <trkpt lat="47.393730" lon="7.822240">
        <ele>679.890964</ele>
        <time>2021-11-20T19:37:58.459Z</time>
      </trkpt>
      <trkpt lat="47.393708" lon="7.822494">
        <ele>680.048854</ele>
        <time>2021-11-20T19:38:03.255Z</time>
      </trkpt>
      <trkpt lat="47.393714" lon="7.822603">
        <ele>680.116284</ele>
        <time>2021-11-20T19:38:07.830Z</time>
      </trkpt>
      <trkpt lat="47.393742" lon="7.822702">
        <ele>680.182440</ele>
        <time>2021-11-20T19:38:08.817Z</time>
      </trkpt>
      <trkpt lat="47.393945" lon="7.823263">
        <ele>680.574661</ele>
        <time>2021-11-20T19:38:18.242Z</time>
      </trkpt>
      <trkpt lat="47.394014" lon="7.823879">
        <ele>680.959642</ele>
        <time>2021-11-20T19:38:25.601Z</time>
      </trkpt>
      <trkpt lat="47.395259" lon="7.823953">
        <ele>678.070756</ele>
        <time>2021-11-20T19:38:43.918Z</time>
      </trkpt>
      <trkpt lat="47.395402" lon="7.824071">
        <ele>677.561822</ele>
        <time>2021-11-20T19:38:46.276Z</time>
      </trkpt>
      <trkpt lat="47.396478" lon="7.825710">
        <ele>671.967286</ele>
        <time>2021-11-20T19:39:08.335Z</time>
      </trkpt>
      <trkpt lat="47.396828" lon="7.826473">
        <ele>669.486785</ele>
        <time>2021-11-20T19:39:16.816Z</time>
      </trkpt>
      <trkpt lat="47.397050" lon="7.827229">
        <ele>668.014192</ele>
        <time>2021-11-20T19:39:24.729Z</time>
      </trkpt>
      <trkpt lat="47.397238" lon="7.827401">
        <ele>667.693132</ele>
        <time>2021-11-20T19:39:27.894Z</time>
      </trkpt>
      <trkpt lat="47.397884" lon="7.827503">
        <ele>666.749870</ele>
        <time>2021-11-20T19:39:37.939Z</time>
      </trkpt>
      <trkpt lat="47.398064" lon="7.827549">
        <ele>666.484648</ele>
        <time>2021-11-20T19:39:41.843Z</time>
      </trkpt>
      <trkpt lat="47.398959" lon="7.827999">
        <ele>669.126402</ele>
        <time>2021-11-20T19:40:05.723Z</time>
      </trkpt>
      <trkpt lat="47.399021" lon="7.828050">
        <ele>669.598277</ele>
        <time>2021-11-20T19:40:10.138Z</time>
      </trkpt>
      <trkpt lat="47.399046" lon="7.828229">
        <ele>670.420936</ele>
        <time>2021-11-20T19:40:13.600Z</time>
      </trkpt>
      <trkpt lat="47.399059" lon="7.828318">
        <ele>670.830750</ele>
        <time>2021-11-20T19:40:15.352Z</time>
      </trkpt>
      <trkpt lat="47.399066" lon="7.828878">
        <ele>673.351764</ele>
        <time>2021-11-20T19:40:37.343Z</time>
      </trkpt>
      <trkpt lat="47.399041" lon="7.828986">
        <ele>673.865516</ele>
        <time>2021-11-20T19:40:40.711Z</time>
      </trkpt>
      <trkpt lat="47.399027" lon="7.829110">
        <ele>674.431357</ele>
        <time>2021-11-20T19:40:54.248Z</time>
      </trkpt>
      <trkpt lat="47.398921" lon="7.829472">
        <ele>676.206662</ele>
        <time>2021-11-20T19:41:34.168Z</time>
      </trkpt>
      <trkpt lat="47.398906" lon="7.829522">
        <ele>676.452828</ele>
        <time>2021-11-20T19:41:41.613Z</time>
      </trkpt>
      <trkpt lat="47.398845" lon="7.829974">
        <ele>678.887750</ele>
        <time>2021-11-20T19:42:28.661Z</time>
      </trkpt>
      <trkpt lat="47.398884" lon="7.830391">
        <ele>681.710820</ele>
        <time>2021-11-20T19:43:15.343Z</time>
      </trkpt>
      <trkpt lat="47.398920" lon="7.830784">
        <ele>684.370396</ele>
        <time>2021-11-20T19:43:53.410Z</time>
      </trkpt>
      <trkpt lat="47.398914" lon="7.830838">
        <ele>684.737379</ele>
        <time>2021-11-20T19:44:00.972Z</time>
      </trkpt>
      <trkpt lat="47.398935" lon="7.830846">
        <ele>684.952240</ele>
        <time>2021-11-20T19:44:03.459Z</time>
      </trkpt>
      <trkpt lat="47.400076" lon="7.833981">
        <ele>705.319638</ele>
        <time>2021-11-20T19:46:17.377Z</time>
      </trkpt>
      <trkpt lat="47.400118" lon="7.834167">
        <ele>706.285898</ele>
        <time>2021-11-20T19:46:22.188Z</time>
      </trkpt>
      <trkpt lat="47.400079" lon="7.834478">
        <ele>707.844575</ele>
        <time>2021-11-20T19:46:29.960Z</time>
      </trkpt>
      <trkpt lat="47.400046" lon="7.834530">
        <ele>708.195843</ele>
        <time>2021-11-20T19:46:31.427Z</time>
      </trkpt>
      <trkpt lat="47.399986" lon="7.834561">
        <ele>708.658613</ele>
        <time>2021-11-20T19:46:33.929Z</time>
      </trkpt>
      <trkpt lat="47.398598" lon="7.834858">
        <ele>712.482186</ele>
        <time>2021-11-20T19:47:17.972Z</time>
      </trkpt>
      <trkpt lat="47.398507" lon="7.834895">
        <ele>712.737473</ele>
        <time>2021-11-20T19:47:21.028Z</time>
      </trkpt>
      <trkpt lat="47.398404" lon="7.835002">
        <ele>713.078048</ele>
        <time>2021-11-20T19:47:24.219Z</time>
      </trkpt>
      <trkpt lat="47.398385" lon="7.835032">
        <ele>713.153266</ele>
        <time>2021-11-20T19:47:24.885Z</time>
      </trkpt>
      <trkpt lat="47.398216" lon="7.835378">
        <ele>713.660470</ele>
        <time>2021-11-20T19:47:32.568Z</time>
      </trkpt>
      <trkpt lat="47.397143" lon="7.838280">
        <ele>713.866747</ele>
        <time>2021-11-20T19:48:21.742Z</time>
      </trkpt>
      <trkpt lat="47.396349" lon="7.839501">
        <ele>712.075406</ele>
        <time>2021-11-20T19:48:39.474Z</time>
      </trkpt>
      <trkpt lat="47.396241" lon="7.839701">
        <ele>711.427299</ele>
        <time>2021-11-20T19:48:42.103Z</time>
      </trkpt>
      <trkpt lat="47.396203" lon="7.839767">
        <ele>711.101400</ele>
        <time>2021-11-20T19:48:42.918Z</time>
      </trkpt>
      <trkpt lat="47.396133" lon="7.839911">
        <ele>710.434578</ele>
        <time>2021-11-20T19:48:44.666Z</time>
      </trkpt>
      <trkpt lat="47.396102" lon="7.839984">
        <ele>710.110443</ele>
        <time>2021-11-20T19:48:45.464Z</time>
      </trkpt>
      <trkpt lat="47.396029" lon="7.840179">
        <ele>709.272291</ele>
        <time>2021-11-20T19:48:47.651Z</time>
      </trkpt>
      <trkpt lat="47.395488" lon="7.841652">
        <ele>702.968839</ele>
        <time>2021-11-20T19:49:02.832Z</time>
      </trkpt>
      <trkpt lat="47.395400" lon="7.841921">
        <ele>701.701760</ele>
        <time>2021-11-20T19:49:05.276Z</time>
      </trkpt>
      <trkpt lat="47.395316" lon="7.842556">
        <ele>696.187172</ele>
        <time>2021-11-20T19:49:10.624Z</time>
      </trkpt>
      <trkpt lat="47.395366" lon="7.843284">
        <ele>689.950443</ele>
        <time>2021-11-20T19:49:16.567Z</time>
      </trkpt>
      <trkpt lat="47.395492" lon="7.843901">
        <ele>684.457565</ele>
        <time>2021-11-20T19:49:21.714Z</time>
      </trkpt>
      <trkpt lat="47.395528" lon="7.844012">
        <ele>683.408517</ele>
        <time>2021-11-20T19:49:22.663Z</time>
      </trkpt>
      <trkpt lat="47.395580" lon="7.844173">
        <ele>681.888100</ele>
        <time>2021-11-20T19:49:24.083Z</time>
      </trkpt>
      <trkpt lat="47.395621" lon="7.844300">
        <ele>680.688867</ele>
        <time>2021-11-20T19:49:25.266Z</time>
      </trkpt>
      <trkpt lat="47.395650" lon="7.844362">
        <ele>680.046555</ele>
        <time>2021-11-20T19:49:25.869Z</time>
      </trkpt>
      <trkpt lat="47.395691" lon="7.844570">
        <ele>677.847773</ele>
        <time>2021-11-20T19:49:27.539Z</time>
      </trkpt>
      <trkpt lat="47.395717" lon="7.844793">
        <ele>675.307902</ele>
        <time>2021-11-20T19:49:29.391Z</time>
      </trkpt>
      <trkpt lat="47.395721" lon="7.844953">
        <ele>673.510792</ele>
        <time>2021-11-20T19:49:30.627Z</time>
      </trkpt>
      <trkpt lat="47.395719" lon="7.845127">
        <ele>671.557484</ele>
        <time>2021-11-20T19:49:31.975Z</time>
      </trkpt>
      <trkpt lat="47.395680" lon="7.845516">
        <ele>667.143608</ele>
        <time>2021-11-20T19:49:35.066Z</time>
      </trkpt>
      <trkpt lat="47.395642" lon="7.845887">
        <ele>662.931995</ele>
        <time>2021-11-20T19:49:38.032Z</time>
      </trkpt>
      <trkpt lat="47.395451" lon="7.846896">
        <ele>651.172180</ele>
        <time>2021-11-20T19:49:46.228Z</time>
      </trkpt>
      <trkpt lat="47.395408" lon="7.847208">
        <ele>647.953458</ele>
        <time>2021-11-20T19:49:48.700Z</time>
      </trkpt>
      <trkpt lat="47.395320" lon="7.847661">
        <ele>643.657537</ele>
        <time>2021-11-20T19:49:52.456Z</time>
      </trkpt>
      <trkpt lat="47.395189" lon="7.848023">
        <ele>639.915860</ele>
        <time>2021-11-20T19:49:55.745Z</time>
      </trkpt>
      <trkpt lat="47.395004" lon="7.848355">
        <ele>635.996120</ele>
        <time>2021-11-20T19:49:59.162Z</time>
      </trkpt>
      <trkpt lat="47.394829" lon="7.848557">
        <ele>633.005556</ele>
        <time>2021-11-20T19:50:01.798Z</time>
      </trkpt>
      <trkpt lat="47.394706" lon="7.848628">
        <ele>631.227326</ele>
        <time>2021-11-20T19:50:03.355Z</time>
      </trkpt>
      <trkpt lat="47.394558" lon="7.848667">
        <ele>629.202954</ele>
        <time>2021-11-20T19:50:05.122Z</time>
      </trkpt>
      <trkpt lat="47.394272" lon="7.848809">
        <ele>625.182930</ele>
        <time>2021-11-20T19:50:08.764Z</time>
      </trkpt>
      <trkpt lat="47.393822" lon="7.849356">
        <ele>619.954884</ele>
        <time>2021-11-20T19:50:15.999Z</time>
      </trkpt>
      <trkpt lat="47.393741" lon="7.849387">
        <ele>619.204235</ele>
        <time>2021-11-20T19:50:16.972Z</time>
      </trkpt>
      <trkpt lat="47.393682" lon="7.849411">
        <ele>618.655240</ele>
        <time>2021-11-20T19:50:17.736Z</time>
      </trkpt>
      <trkpt lat="47.392869" lon="7.849215">
        <ele>611.265257</ele>
        <time>2021-11-20T19:50:28.157Z</time>
      </trkpt>
      <trkpt lat="47.392479" lon="7.849322">
        <ele>607.552469</ele>
        <time>2021-11-20T19:50:33.208Z</time>
      </trkpt>
      <trkpt lat="47.392167" lon="7.849685">
        <ele>603.604192</ele>
        <time>2021-11-20T19:50:38.057Z</time>
      </trkpt>
      <trkpt lat="47.391799" lon="7.850323">
        <ele>597.963198</ele>
        <time>2021-11-20T19:50:45.056Z</time>
      </trkpt>
      <trkpt lat="47.391560" lon="7.850863">
        <ele>593.621163</ele>
        <time>2021-11-20T19:50:50.312Z</time>
      </trkpt>
      <trkpt lat="47.391509" lon="7.850967">
        <ele>592.756889</ele>
        <time>2021-11-20T19:50:51.326Z</time>
      </trkpt>
      <trkpt lat="47.391307" lon="7.851550">
        <ele>587.817568</ele>
        <time>2021-11-20T19:50:56.673Z</time>
      </trkpt>
      <trkpt lat="47.391391" lon="7.852032">
        <ele>583.854369</ele>
        <time>2021-11-20T19:51:00.710Z</time>
      </trkpt>
      <trkpt lat="47.391460" lon="7.852289">
        <ele>581.652877</ele>
        <time>2021-11-20T19:51:02.914Z</time>
      </trkpt>
      <trkpt lat="47.391595" lon="7.852537">
        <ele>579.118891</ele>
        <time>2021-11-20T19:51:05.490Z</time>
      </trkpt>
      <trkpt lat="47.391640" lon="7.852608">
        <ele>578.344436</ele>
        <time>2021-11-20T19:51:06.254Z</time>
      </trkpt>
      <trkpt lat="47.391640" lon="7.852608">
        <ele>578.344436</ele>
        <time>2021-11-20T19:51:06.279Z</time>
      </trkpt>
      <trkpt lat="47.391783" lon="7.852784">
        <ele>576.155120</ele>
        <time>2021-11-20T19:51:08.484Z</time>
      </trkpt>
      <trkpt lat="47.392434" lon="7.853433">
        <ele>567.984861</ele>
        <time>2021-11-20T19:51:18.053Z</time>
      </trkpt>
      <trkpt lat="47.392531" lon="7.853545">
        <ele>567.023116</ele>
        <time>2021-11-20T19:51:19.518Z</time>
      </trkpt>
      <trkpt lat="47.392606" lon="7.853710">
        <ele>565.972112</ele>
        <time>2021-11-20T19:51:21.173Z</time>
      </trkpt>
      <trkpt lat="47.392826" lon="7.854008">
        <ele>563.640399</ele>
        <time>2021-11-20T19:51:24.879Z</time>
      </trkpt>
      <trkpt lat="47.393127" lon="7.854024">
        <ele>561.287577</ele>
        <time>2021-11-20T19:51:28.826Z</time>
      </trkpt>
      <trkpt lat="47.393189" lon="7.854045">
        <ele>560.790688</ele>
        <time>2021-11-20T19:51:29.605Z</time>
      </trkpt>
      <trkpt lat="47.393275" lon="7.853890">
        <ele>559.730890</ele>
        <time>2021-11-20T19:51:31.466Z</time>
      </trkpt>
      <trkpt lat="47.393398" lon="7.853765">
        <ele>558.564638</ele>
        <time>2021-11-20T19:51:33.402Z</time>
      </trkpt>
      <trkpt lat="47.393675" lon="7.853681">
        <ele>556.355692</ele>
        <time>2021-11-20T19:51:37.110Z</time>
      </trkpt>
      <trkpt lat="47.393781" lon="7.853664">
        <ele>555.805162</ele>
        <time>2021-11-20T19:51:38.437Z</time>
      </trkpt>
      <trkpt lat="47.393826" lon="7.853658">
        <ele>555.642860</ele>
        <time>2021-11-20T19:51:38.998Z</time>
      </trkpt>
      <trkpt lat="47.394105" lon="7.853679">
        <ele>554.639362</ele>
        <time>2021-11-20T19:51:42.913Z</time>
      </trkpt>
      <trkpt lat="47.394696" lon="7.853664">
        <ele>552.516113</ele>
        <time>2021-11-20T19:51:51.454Z</time>
      </trkpt>
      <trkpt lat="47.395089" lon="7.853542">
        <ele>551.073581</ele>
        <time>2021-11-20T19:51:57.490Z</time>
      </trkpt>
      <trkpt lat="47.395123" lon="7.853546">
        <ele>550.951062</ele>
        <time>2021-11-20T19:51:57.921Z</time>
      </trkpt>
      <trkpt lat="47.395202" lon="7.853591">
        <ele>550.646920</ele>
        <time>2021-11-20T19:51:59.120Z</time>
      </trkpt>
      <trkpt lat="47.395275" lon="7.853638">
        <ele>550.360873</ele>
        <time>2021-11-20T19:52:00.508Z</time>
      </trkpt>
      <trkpt lat="47.395464" lon="7.853851">
        <ele>549.552314</ele>
        <time>2021-11-20T19:52:04.065Z</time>
      </trkpt>
      <trkpt lat="47.395509" lon="7.853930">
        <ele>549.447872</ele>
        <time>2021-11-20T19:52:05.221Z</time>
      </trkpt>
      <trkpt lat="47.395568" lon="7.854054">
        <ele>549.294553</ele>
        <time>2021-11-20T19:52:07.185Z</time>
      </trkpt>
      <trkpt lat="47.395599" lon="7.854137">
        <ele>549.198662</ele>
        <time>2021-11-20T19:52:08.533Z</time>
      </trkpt>
      <trkpt lat="47.395681" lon="7.854098">
        <ele>549.069933</ele>
        <time>2021-11-20T19:52:09.725Z</time>
      </trkpt>
      <trkpt lat="47.396618" lon="7.853483">
        <ele>547.537765</ele>
        <time>2021-11-20T19:52:26.560Z</time>
      </trkpt>
      <trkpt lat="47.397017" lon="7.853300">
        <ele>546.913453</ele>
        <time>2021-11-20T19:52:33.894Z</time>
      </trkpt>
      <trkpt lat="47.397100" lon="7.853327">
        <ele>546.868517</ele>
        <time>2021-11-20T19:52:35.247Z</time>
      </trkpt>
      <trkpt lat="47.397171" lon="7.853390">
        <ele>546.836747</ele>
        <time>2021-11-20T19:52:37.096Z</time>
      </trkpt>
      <trkpt lat="47.397240" lon="7.853282">
        <ele>546.798186</ele>
        <time>2021-11-20T19:52:38.273Z</time>
      </trkpt>
      <trkpt lat="47.397399" lon="7.853113">
        <ele>546.723050</ele>
        <time>2021-11-20T19:52:40.820Z</time>
      </trkpt>
      <trkpt lat="47.397466" lon="7.853058">
        <ele>546.693648</ele>
        <time>2021-11-20T19:52:42.052Z</time>
      </trkpt>
      <trkpt lat="47.397584" lon="7.852978">
        <ele>546.643846</ele>
        <time>2021-11-20T19:52:43.707Z</time>
      </trkpt>
      <trkpt lat="47.399819" lon="7.851860">
        <ele>544.214095</ele>
        <time>2021-11-20T19:53:17.378Z</time>
      </trkpt>
      <trkpt lat="47.400748" lon="7.852175">
        <ele>540.311987</ele>
        <time>2021-11-20T19:53:26.635Z</time>
      </trkpt>
      <trkpt lat="47.400993" lon="7.852181">
        <ele>538.379463</ele>
        <time>2021-11-20T19:53:28.846Z</time>
      </trkpt>
      <trkpt lat="47.401133" lon="7.852146">
        <ele>537.259619</ele>
        <time>2021-11-20T19:53:30.094Z</time>
      </trkpt>
      <trkpt lat="47.401481" lon="7.852058">
        <ele>534.475112</ele>
        <time>2021-11-20T19:53:33.168Z</time>
      </trkpt>
      <trkpt lat="47.401845" lon="7.851841">
        <ele>531.379427</ele>
        <time>2021-11-20T19:53:36.544Z</time>
      </trkpt>
      <trkpt lat="47.402868" lon="7.850841">
        <ele>521.520143</ele>
        <time>2021-11-20T19:53:47.076Z</time>
      </trkpt>
      <trkpt lat="47.403486" lon="7.850249">
        <ele>515.565658</ele>
        <time>2021-11-20T19:53:53.685Z</time>
      </trkpt>
      <trkpt lat="47.404383" lon="7.849389">
        <ele>512.413106</ele>
        <time>2021-11-20T19:54:04.574Z</time>
      </trkpt>
      <trkpt lat="47.404599" lon="7.849165">
        <ele>511.816810</ele>
        <time>2021-11-20T19:54:07.793Z</time>
      </trkpt>
      <trkpt lat="47.404726" lon="7.848932">
        <ele>511.359290</ele>
        <time>2021-11-20T19:54:10.275Z</time>
      </trkpt>
      <trkpt lat="47.404852" lon="7.848646">
        <ele>510.837402</ele>
        <time>2021-11-20T19:54:14.332Z</time>
      </trkpt>
      <trkpt lat="47.404908" lon="7.848505">
        <ele>510.587382</ele>
        <time>2021-11-20T19:54:15.595Z</time>
      </trkpt>
      <trkpt lat="47.405700" lon="7.846541">
        <ele>509.891503</ele>
        <time>2021-11-20T19:54:36.594Z</time>
      </trkpt>
      <trkpt lat="47.405939" lon="7.846047">
        <ele>509.601166</ele>
        <time>2021-11-20T19:54:42.043Z</time>
      </trkpt>
      <trkpt lat="47.406156" lon="7.845724">
        <ele>509.124702</ele>
        <time>2021-11-20T19:54:46.279Z</time>
      </trkpt>
      <trkpt lat="47.406444" lon="7.845434">
        <ele>508.585594</ele>
        <time>2021-11-20T19:54:51.094Z</time>
      </trkpt>
      <trkpt lat="47.406668" lon="7.845324">
        <ele>508.220464</ele>
        <time>2021-11-20T19:54:54.304Z</time>
      </trkpt>
      <trkpt lat="47.407704" lon="7.845059">
        <ele>505.569914</ele>
        <time>2021-11-20T19:55:05.388Z</time>
      </trkpt>
      <trkpt lat="47.408170" lon="7.844961">
        <ele>502.967771</ele>
        <time>2021-11-20T19:55:09.743Z</time>
      </trkpt>
      <trkpt lat="47.408437" lon="7.844931">
        <ele>501.487457</ele>
        <time>2021-11-20T19:55:12.202Z</time>
      </trkpt>
      <trkpt lat="47.409142" lon="7.844968">
        <ele>497.587557</ele>
        <time>2021-11-20T19:55:18.623Z</time>
      </trkpt>
      <trkpt lat="47.409210" lon="7.844968">
        <ele>497.211633</ele>
        <time>2021-11-20T19:55:19.206Z</time>
      </trkpt>
      <trkpt lat="47.409459" lon="7.844940">
        <ele>495.888931</ele>
        <time>2021-11-20T19:55:21.455Z</time>
      </trkpt>
      <trkpt lat="47.409665" lon="7.844882">
        <ele>494.784675</ele>
        <time>2021-11-20T19:55:23.326Z</time>
      </trkpt>
      <trkpt lat="47.409752" lon="7.844850">
        <ele>494.312577</ele>
        <time>2021-11-20T19:55:24.112Z</time>
      </trkpt>
      <trkpt lat="47.409830" lon="7.844820">
        <ele>493.888164</ele>
        <time>2021-11-20T19:55:24.853Z</time>
      </trkpt>
      <trkpt lat="47.409986" lon="7.844760">
        <ele>493.039340</ele>
        <time>2021-11-20T19:55:26.318Z</time>
      </trkpt>
      <trkpt lat="47.410148" lon="7.844709">
        <ele>492.167146</ele>
        <time>2021-11-20T19:55:27.878Z</time>
      </trkpt>
      <trkpt lat="47.410293" lon="7.844651">
        <ele>491.376135</ele>
        <time>2021-11-20T19:55:29.318Z</time>
      </trkpt>
      <trkpt lat="47.410433" lon="7.844607">
        <ele>490.622443</ele>
        <time>2021-11-20T19:55:30.668Z</time>
      </trkpt>
      <trkpt lat="47.411166" lon="7.844371">
        <ele>487.093247</ele>
        <time>2021-11-20T19:55:38.047Z</time>
      </trkpt>
      <trkpt lat="47.411235" lon="7.844348">
        <ele>486.894050</ele>
        <time>2021-11-20T19:55:38.815Z</time>
      </trkpt>
      <trkpt lat="47.411264" lon="7.844343">
        <ele>486.811828</ele>
        <time>2021-11-20T19:55:39.213Z</time>
      </trkpt>
      <trkpt lat="47.411785" lon="7.844178">
        <ele>485.311294</ele>
        <time>2021-11-20T19:55:44.839Z</time>
      </trkpt>
      <trkpt lat="47.412769" lon="7.843850">
        <ele>482.481021</ele>
        <time>2021-11-20T19:55:55.440Z</time>
      </trkpt>
      <trkpt lat="47.412891" lon="7.843894">
        <ele>482.216212</ele>
        <time>2021-11-20T19:55:57.278Z</time>
      </trkpt>
      <trkpt lat="47.413673" lon="7.843752">
        <ele>480.554830</ele>
        <time>2021-11-20T19:56:09.093Z</time>
      </trkpt>
      <trkpt lat="47.414363" lon="7.843766">
        <ele>479.099712</ele>
        <time>2021-11-20T19:56:19.905Z</time>
      </trkpt>
      <trkpt lat="47.414534" lon="7.843769">
        <ele>478.739104</ele>
        <time>2021-11-20T19:56:22.937Z</time>
      </trkpt>
      <trkpt lat="47.414737" lon="7.843840">
        <ele>478.725220</ele>
        <time>2021-11-20T19:56:26.684Z</time>
      </trkpt>
      <trkpt lat="47.415123" lon="7.843938">
        <ele>478.736628</ele>
        <time>2021-11-20T19:56:34.261Z</time>
      </trkpt>
      <trkpt lat="47.415184" lon="7.843954">
        <ele>478.738433</ele>
        <time>2021-11-20T19:56:35.701Z</time>
      </trkpt>
      <trkpt lat="47.416215" lon="7.844386">
        <ele>478.769648</ele>
        <time>2021-11-20T19:56:59.979Z</time>
      </trkpt>
      <trkpt lat="47.416351" lon="7.844467">
        <ele>478.674043</ele>
        <time>2021-11-20T19:57:03.425Z</time>
      </trkpt>
      <trkpt lat="47.417039" lon="7.844872">
        <ele>477.675500</ele>
        <time>2021-11-20T19:57:17.690Z</time>
      </trkpt>
      <trkpt lat="47.417634" lon="7.845250">
        <ele>476.802251</ele>
        <time>2021-11-20T19:57:27.978Z</time>
      </trkpt>
      <trkpt lat="47.417834" lon="7.845378">
        <ele>476.508382</ele>
        <time>2021-11-20T19:57:31.135Z</time>
      </trkpt>
      <trkpt lat="47.418505" lon="7.845770">
        <ele>474.216720</ele>
        <time>2021-11-20T19:57:41.587Z</time>
      </trkpt>
      <trkpt lat="47.418787" lon="7.845930">
        <ele>473.147199</ele>
        <time>2021-11-20T19:57:45.832Z</time>
      </trkpt>
      <trkpt lat="47.419367" lon="7.846203">
        <ele>470.991975</ele>
        <time>2021-11-20T19:57:54.377Z</time>
      </trkpt>
      <trkpt lat="47.419677" lon="7.846349">
        <ele>469.854151</ele>
        <time>2021-11-20T19:57:59.094Z</time>
      </trkpt>
      <trkpt lat="47.420292" lon="7.846569">
        <ele>467.843406</ele>
        <time>2021-11-20T19:58:08.210Z</time>
      </trkpt>
      <trkpt lat="47.421216" lon="7.846840">
        <ele>464.849912</ele>
        <time>2021-11-20T19:58:22.142Z</time>
      </trkpt>
      <trkpt lat="47.421469" lon="7.846914">
        <ele>464.069011</ele>
        <time>2021-11-20T19:58:25.989Z</time>
      </trkpt>
      <trkpt lat="47.421782" lon="7.847034">
        <ele>463.212517</ele>
        <time>2021-11-20T19:58:30.710Z</time>
      </trkpt>
      <trkpt lat="47.422154" lon="7.847177">
        <ele>462.194406</ele>
        <time>2021-11-20T19:58:36.352Z</time>
      </trkpt>
      <trkpt lat="47.422224" lon="7.847204">
        <ele>462.002784</ele>
        <time>2021-11-20T19:58:37.380Z</time>
      </trkpt>
      <trkpt lat="47.422830" lon="7.847504">
        <ele>460.310004</ele>
        <time>2021-11-20T19:58:47.011Z</time>
      </trkpt>
      <trkpt lat="47.423160" lon="7.847639">
        <ele>459.440713</ele>
        <time>2021-11-20T19:58:52.361Z</time>
      </trkpt>
      <trkpt lat="47.423175" lon="7.847645">
        <ele>459.415800</ele>
        <time>2021-11-20T19:58:52.614Z</time>
      </trkpt>
      <trkpt lat="47.423326" lon="7.847739">
        <ele>459.153127</ele>
        <time>2021-11-20T19:58:55.247Z</time>
      </trkpt>
      <trkpt lat="47.423401" lon="7.847760">
        <ele>459.030751</ele>
        <time>2021-11-20T19:58:56.534Z</time>
      </trkpt>
      <trkpt lat="47.423488" lon="7.847784">
        <ele>458.888867</ele>
        <time>2021-11-20T19:58:58.047Z</time>
      </trkpt>
      <trkpt lat="47.423788" lon="7.847858">
        <ele>458.401267</ele>
        <time>2021-11-20T19:59:02.901Z</time>
      </trkpt>
      <trkpt lat="47.423887" lon="7.847874">
        <ele>458.241607</ele>
        <time>2021-11-20T19:59:04.652Z</time>
      </trkpt>
      <trkpt lat="47.424743" lon="7.847935">
        <ele>456.867705</ele>
        <time>2021-11-20T19:59:18.863Z</time>
      </trkpt>
      <trkpt lat="47.425016" lon="7.848030">
        <ele>456.408198</ele>
        <time>2021-11-20T19:59:23.590Z</time>
      </trkpt>
      <trkpt lat="47.425093" lon="7.848037">
        <ele>456.278316</ele>
        <time>2021-11-20T19:59:24.885Z</time>
      </trkpt>
      <trkpt lat="47.425165" lon="7.848031">
        <ele>456.156904</ele>
        <time>2021-11-20T19:59:25.966Z</time>
      </trkpt>
      <trkpt lat="47.426374" lon="7.848154">
        <ele>454.116612</ele>
        <time>2021-11-20T19:59:45.520Z</time>
      </trkpt>
      <trkpt lat="47.427648" lon="7.848283">
        <ele>451.865038</ele>
        <time>2021-11-20T20:00:05.927Z</time>
      </trkpt>
      <trkpt lat="47.428268" lon="7.848175">
        <ele>450.748040</ele>
        <time>2021-11-20T20:00:16.042Z</time>
      </trkpt>
      <trkpt lat="47.428781" lon="7.847991">
        <ele>449.714036</ele>
        <time>2021-11-20T20:00:24.467Z</time>
      </trkpt>
      <trkpt lat="47.429321" lon="7.847805">
        <ele>448.564829</ele>
        <time>2021-11-20T20:00:33.360Z</time>
      </trkpt>
      <trkpt lat="47.429436" lon="7.847758">
        <ele>448.317534</ele>
        <time>2021-11-20T20:00:35.189Z</time>
      </trkpt>
      <trkpt lat="47.430098" lon="7.847528">
        <ele>446.908061</ele>
        <time>2021-11-20T20:00:45.782Z</time>
      </trkpt>
      <trkpt lat="47.430261" lon="7.847500">
        <ele>446.556095</ele>
        <time>2021-11-20T20:00:48.277Z</time>
      </trkpt>
      <trkpt lat="47.430641" lon="7.847433">
        <ele>445.633523</ele>
        <time>2021-11-20T20:00:54.012Z</time>
      </trkpt>
      <trkpt lat="47.431292" lon="7.847484">
        <ele>444.061934</ele>
        <time>2021-11-20T20:01:03.710Z</time>
      </trkpt>
      <trkpt lat="47.431726" lon="7.847615">
        <ele>442.994089</ele>
        <time>2021-11-20T20:01:10.586Z</time>
      </trkpt>
      <trkpt lat="47.432368" lon="7.847858">
        <ele>441.659716</ele>
        <time>2021-11-20T20:01:21.078Z</time>
      </trkpt>
      <trkpt lat="47.432515" lon="7.847914">
        <ele>441.399847</ele>
        <time>2021-11-20T20:01:23.627Z</time>
      </trkpt>
      <trkpt lat="47.433365" lon="7.848309">
        <ele>439.874536</ele>
        <time>2021-11-20T20:01:37.919Z</time>
      </trkpt>
      <trkpt lat="47.433528" lon="7.848396">
        <ele>439.577867</ele>
        <time>2021-11-20T20:01:40.920Z</time>
      </trkpt>
      <trkpt lat="47.433795" lon="7.848524">
        <ele>439.130612</ele>
        <time>2021-11-20T20:01:45.499Z</time>
      </trkpt>
      <trkpt lat="47.434500" lon="7.848920">
        <ele>438.174634</ele>
        <time>2021-11-20T20:01:57.942Z</time>
      </trkpt>
      <trkpt lat="47.436050" lon="7.850036">
        <ele>437.912886</ele>
        <time>2021-11-20T20:02:27.572Z</time>
      </trkpt>
      <trkpt lat="47.436479" lon="7.850260">
        <ele>438.496252</ele>
        <time>2021-11-20T20:02:39.005Z</time>
      </trkpt>
      <trkpt lat="47.436538" lon="7.850283">
        <ele>438.574488</ele>
        <time>2021-11-20T20:02:40.115Z</time>
      </trkpt>
      <trkpt lat="47.436529" lon="7.850383">
        <ele>438.661982</ele>
        <time>2021-11-20T20:02:44.224Z</time>
      </trkpt>
      <trkpt lat="47.436268" lon="7.852351">
        <ele>443.379226</ele>
        <time>2021-11-20T20:03:25.962Z</time>
      </trkpt>
      <trkpt lat="47.436223" lon="7.852552">
        <ele>444.038549</ele>
        <time>2021-11-20T20:03:33.584Z</time>
      </trkpt>
      <trkpt lat="47.436192" lon="7.852686">
        <ele>444.479566</ele>
        <time>2021-11-20T20:03:36.212Z</time>
      </trkpt>
      <trkpt lat="47.436120" lon="7.853000">
        <ele>445.512043</ele>
        <time>2021-11-20T20:03:43.839Z</time>
      </trkpt>
      <trkpt lat="47.436113" lon="7.853044">
        <ele>445.652801</ele>
        <time>2021-11-20T20:03:45.086Z</time>
      </trkpt>
      <trkpt lat="47.435866" lon="7.853994">
        <ele>448.428068</ele>
        <time>2021-11-20T20:04:07.829Z</time>
      </trkpt>
      <trkpt lat="47.435803" lon="7.854241">
        <ele>448.998912</ele>
        <time>2021-11-20T20:04:13.165Z</time>
      </trkpt>
      <trkpt lat="47.435704" lon="7.854610">
        <ele>449.857344</ele>
        <time>2021-11-20T20:04:21.867Z</time>
      </trkpt>
      <trkpt lat="47.435590" lon="7.855382">
        <ele>451.566102</ele>
        <time>2021-11-20T20:04:33.204Z</time>
      </trkpt>
      <trkpt lat="47.435570" lon="7.855503">
        <ele>451.835462</ele>
        <time>2021-11-20T20:04:35.070Z</time>
      </trkpt>
      <trkpt lat="47.435520" lon="7.855688">
        <ele>452.266275</ele>
        <time>2021-11-20T20:04:37.778Z</time>
      </trkpt>
      <trkpt lat="47.435486" lon="7.855793">
        <ele>452.518013</ele>
        <time>2021-11-20T20:04:39.287Z</time>
      </trkpt>
      <trkpt lat="47.434677" lon="7.857156">
        <ele>457.659917</ele>
        <time>2021-11-20T20:05:17.111Z</time>
      </trkpt>
      <trkpt lat="47.434527" lon="7.857396">
        <ele>458.639772</ele>
        <time>2021-11-20T20:05:24.594Z</time>
      </trkpt>
      <trkpt lat="47.434518" lon="7.857416">
        <ele>458.711805</ele>
        <time>2021-11-20T20:05:25.205Z</time>
      </trkpt>
      <trkpt lat="47.434394" lon="7.857638">
        <ele>459.575135</ele>
        <time>2021-11-20T20:05:31.767Z</time>
      </trkpt>
      <trkpt lat="47.434085" lon="7.858043">
        <ele>461.486899</ele>
        <time>2021-11-20T20:05:46.163Z</time>
      </trkpt>
      <trkpt lat="47.433963" lon="7.858156">
        <ele>462.470968</ele>
        <time>2021-11-20T20:05:52.061Z</time>
      </trkpt>
      <trkpt lat="47.433729" lon="7.858305">
        <ele>464.212499</ele>
        <time>2021-11-20T20:06:02.061Z</time>
      </trkpt>
      <trkpt lat="47.433489" lon="7.858516">
        <ele>466.121161</ele>
        <time>2021-11-20T20:06:14.189Z</time>
      </trkpt>
      <trkpt lat="47.433220" lon="7.858860">
        <ele>468.552365</ele>
        <time>2021-11-20T20:06:30.499Z</time>
      </trkpt>
      <trkpt lat="47.432963" lon="7.859206">
        <ele>470.928365</ele>
        <time>2021-11-20T20:06:45.947Z</time>
      </trkpt>
      <trkpt lat="47.432391" lon="7.859821">
        <ele>475.759643</ele>
        <time>2021-11-20T20:07:16.602Z</time>
      </trkpt>
      <trkpt lat="47.432098" lon="7.860373">
        <ele>478.999148</ele>
        <time>2021-11-20T20:07:36.205Z</time>
      </trkpt>
      <trkpt lat="47.431407" lon="7.862138">
        <ele>488.289608</ele>
        <time>2021-11-20T20:08:34.025Z</time>
      </trkpt>
      <trkpt lat="47.430608" lon="7.863517">
        <ele>496.268015</ele>
        <time>2021-11-20T20:09:24.072Z</time>
      </trkpt>
      <trkpt lat="47.430423" lon="7.864125">
        <ele>499.052819</ele>
        <time>2021-11-20T20:09:42.214Z</time>
      </trkpt>
      <trkpt lat="47.429261" lon="7.865697">
        <ele>508.382492</ele>
        <time>2021-11-20T20:10:42.776Z</time>
      </trkpt>
      <trkpt lat="47.428928" lon="7.866224">
        <ele>510.946861</ele>
        <time>2021-11-20T20:11:00.669Z</time>
      </trkpt>
      <trkpt lat="47.428640" lon="7.866848">
        <ele>513.633071</ele>
        <time>2021-11-20T20:11:18.851Z</time>
      </trkpt>
      <trkpt lat="47.428434" lon="7.867537">
        <ele>516.311829</ele>
        <time>2021-11-20T20:11:36.568Z</time>
      </trkpt>
      <trkpt lat="47.428340" lon="7.868571">
        <ele>520.208346</ele>
        <time>2021-11-20T20:12:01.037Z</time>
      </trkpt>
      <trkpt lat="47.428408" lon="7.869299">
        <ele>523.026865</ele>
        <time>2021-11-20T20:12:18.481Z</time>
      </trkpt>
      <trkpt lat="47.428933" lon="7.871645">
        <ele>534.338208</ele>
        <time>2021-11-20T20:13:26.327Z</time>
      </trkpt>
      <trkpt lat="47.429357" lon="7.872761">
        <ele>541.179130</ele>
        <time>2021-11-20T20:14:10.344Z</time>
      </trkpt>
      <trkpt lat="47.429647" lon="7.873200">
        <ele>544.688548</ele>
        <time>2021-11-20T20:14:31.800Z</time>
      </trkpt>
      <trkpt lat="47.429777" lon="7.873317">
        <ele>546.005978</ele>
        <time>2021-11-20T20:14:41.433Z</time>
      </trkpt>
      <trkpt lat="47.430515" lon="7.874040">
        <ele>553.669611</ele>
        <time>2021-11-20T20:15:25.028Z</time>
      </trkpt>
      <trkpt lat="47.430576" lon="7.874098">
        <ele>554.297419</ele>
        <time>2021-11-20T20:15:28.334Z</time>
      </trkpt>
      <trkpt lat="47.430759" lon="7.874270">
        <ele>556.174530</ele>
        <time>2021-11-20T20:15:39.585Z</time>
      </trkpt>
      <trkpt lat="47.431111" lon="7.874807">
        <ele>559.847273</ele>
        <time>2021-11-20T20:16:01.756Z</time>
      </trkpt>
      <trkpt lat="47.431568" lon="7.875901">
        <ele>565.563379</ele>
        <time>2021-11-20T20:16:36.186Z</time>
      </trkpt>
      <trkpt lat="47.431768" lon="7.876417">
        <ele>568.207183</ele>
        <time>2021-11-20T20:16:51.609Z</time>
      </trkpt>
      <trkpt lat="47.431917" lon="7.877109">
        <ele>571.589308</ele>
        <time>2021-11-20T20:17:10.654Z</time>
      </trkpt>
      <trkpt lat="47.431926" lon="7.877192">
        <ele>571.991815</ele>
        <time>2021-11-20T20:17:14.288Z</time>
      </trkpt>
      <trkpt lat="47.431930" lon="7.877281">
        <ele>572.418918</ele>
        <time>2021-11-20T20:17:17.053Z</time>
      </trkpt>
      <trkpt lat="47.431942" lon="7.877670">
        <ele>574.283522</ele>
        <time>2021-11-20T20:17:27.069Z</time>
      </trkpt>
      <trkpt lat="47.431934" lon="7.877924">
        <ele>575.501081</ele>
        <time>2021-11-20T20:17:35.235Z</time>
      </trkpt>
      <trkpt lat="47.431927" lon="7.878206">
        <ele>576.852305</ele>
        <time>2021-11-20T20:17:43.042Z</time>
      </trkpt>
      <trkpt lat="47.431880" lon="7.879790">
        <ele>584.291356</ele>
        <time>2021-11-20T20:18:32.277Z</time>
      </trkpt>
      <trkpt lat="47.431854" lon="7.880923">
        <ele>589.353893</ele>
        <time>2021-11-20T20:19:05.386Z</time>
      </trkpt>
      <trkpt lat="47.431844" lon="7.881321">
        <ele>591.132464</ele>
        <time>2021-11-20T20:19:16.281Z</time>
      </trkpt>
      <trkpt lat="47.431849" lon="7.881529">
        <ele>592.061914</ele>
        <time>2021-11-20T20:19:22.161Z</time>
      </trkpt>
      <trkpt lat="47.431866" lon="7.881718">
        <ele>592.913358</ele>
        <time>2021-11-20T20:19:26.860Z</time>
      </trkpt>
      <trkpt lat="47.431902" lon="7.881936">
        <ele>593.915466</ele>
        <time>2021-11-20T20:19:32.496Z</time>
      </trkpt>
      <trkpt lat="47.431957" lon="7.882114">
        <ele>594.191794</ele>
        <time>2021-11-20T20:19:37.571Z</time>
      </trkpt>
      <trkpt lat="47.432136" lon="7.882584">
        <ele>594.659863</ele>
        <time>2021-11-20T20:19:48.797Z</time>
      </trkpt>
      <trkpt lat="47.432294" lon="7.882926">
        <ele>595.019263</ele>
        <time>2021-11-20T20:19:55.386Z</time>
      </trkpt>
      <trkpt lat="47.432377" lon="7.883103">
        <ele>595.206160</ele>
        <time>2021-11-20T20:19:57.811Z</time>
      </trkpt>
      <trkpt lat="47.432470" lon="7.883285">
        <ele>595.404097</ele>
        <time>2021-11-20T20:20:00.900Z</time>
      </trkpt>
      <trkpt lat="47.432599" lon="7.883549">
        <ele>595.686715</ele>
        <time>2021-11-20T20:20:04.021Z</time>
      </trkpt>
      <trkpt lat="47.432718" lon="7.883763">
        <ele>595.927117</ele>
        <time>2021-11-20T20:20:06.796Z</time>
      </trkpt>
      <trkpt lat="47.432778" lon="7.883858">
        <ele>596.039904</ele>
        <time>2021-11-20T20:20:07.763Z</time>
      </trkpt>
      <trkpt lat="47.432868" lon="7.883883">
        <ele>596.157382</ele>
        <time>2021-11-20T20:20:08.753Z</time>
      </trkpt>
      <trkpt lat="47.433225" lon="7.883950">
        <ele>595.493975</ele>
        <time>2021-11-20T20:20:12.507Z</time>
      </trkpt>
      <trkpt lat="47.433378" lon="7.883974">
        <ele>594.850108</ele>
        <time>2021-11-20T20:20:14.273Z</time>
      </trkpt>
      <trkpt lat="47.433486" lon="7.883982">
        <ele>594.397585</ele>
        <time>2021-11-20T20:20:15.304Z</time>
      </trkpt>
      <trkpt lat="47.434078" lon="7.883955">
        <ele>591.919014</ele>
        <time>2021-11-20T20:20:21.152Z</time>
      </trkpt>
      <trkpt lat="47.434310" lon="7.883899">
        <ele>590.935288</ele>
        <time>2021-11-20T20:20:23.298Z</time>
      </trkpt>
      <trkpt lat="47.434505" lon="7.883804">
        <ele>590.076086</ele>
        <time>2021-11-20T20:20:25.217Z</time>
      </trkpt>
      <trkpt lat="47.434614" lon="7.883681">
        <ele>589.502245</ele>
        <time>2021-11-20T20:20:26.467Z</time>
      </trkpt>
      <trkpt lat="47.434843" lon="7.883287">
        <ele>587.746487</ele>
        <time>2021-11-20T20:20:29.684Z</time>
      </trkpt>
      <trkpt lat="47.435032" lon="7.883105">
        <ele>586.464411</ele>
        <time>2021-11-20T20:20:31.810Z</time>
      </trkpt>
      <trkpt lat="47.435237" lon="7.882987">
        <ele>585.213986</ele>
        <time>2021-11-20T20:20:33.841Z</time>
      </trkpt>
      <trkpt lat="47.435293" lon="7.882961">
        <ele>584.880355</ele>
        <time>2021-11-20T20:20:34.423Z</time>
      </trkpt>
      <trkpt lat="47.435335" lon="7.882958">
        <ele>584.641349</ele>
        <time>2021-11-20T20:20:34.815Z</time>
      </trkpt>
      <trkpt lat="47.435374" lon="7.882954">
        <ele>584.419141</ele>
        <time>2021-11-20T20:20:35.151Z</time>
      </trkpt>
      <trkpt lat="47.435760" lon="7.883083">
        <ele>582.169761</ele>
        <time>2021-11-20T20:20:38.789Z</time>
      </trkpt>
      <trkpt lat="47.435841" lon="7.883120">
        <ele>581.687882</ele>
        <time>2021-11-20T20:20:39.559Z</time>
      </trkpt>
      <trkpt lat="47.435969" lon="7.883208">
        <ele>580.885510</ele>
        <time>2021-11-20T20:20:40.924Z</time>
      </trkpt>
      <trkpt lat="47.436035" lon="7.883266">
        <ele>580.449094</ele>
        <time>2021-11-20T20:20:41.630Z</time>
      </trkpt>
      <trkpt lat="47.436090" lon="7.883309">
        <ele>580.095452</ele>
        <time>2021-11-20T20:20:42.224Z</time>
      </trkpt>
      <trkpt lat="47.436261" lon="7.883449">
        <ele>578.984402</ele>
        <time>2021-11-20T20:20:44.042Z</time>
      </trkpt>
      <trkpt lat="47.436346" lon="7.883526">
        <ele>578.455840</ele>
        <time>2021-11-20T20:20:44.948Z</time>
      </trkpt>
      <trkpt lat="47.436437" lon="7.883620">
        <ele>577.953357</ele>
        <time>2021-11-20T20:20:45.962Z</time>
      </trkpt>
      <trkpt lat="47.436609" lon="7.883825">
        <ele>576.953332</ele>
        <time>2021-11-20T20:20:48.017Z</time>
      </trkpt>
      <trkpt lat="47.436693" lon="7.883921">
        <ele>576.472757</ele>
        <time>2021-11-20T20:20:48.991Z</time>
      </trkpt>
      <trkpt lat="47.436852" lon="7.884095">
        <ele>575.577349</ele>
        <time>2021-11-20T20:20:50.845Z</time>
      </trkpt>
      <trkpt lat="47.436917" lon="7.884150">
        <ele>575.238355</ele>
        <time>2021-11-20T20:20:51.536Z</time>
      </trkpt>
      <trkpt lat="47.437164" lon="7.884257">
        <ele>574.073334</ele>
        <time>2021-11-20T20:20:53.963Z</time>
      </trkpt>
      <trkpt lat="47.437428" lon="7.884260">
        <ele>572.878338</ele>
        <time>2021-11-20T20:20:56.507Z</time>
      </trkpt>
      <trkpt lat="47.437547" lon="7.884226">
        <ele>572.329734</ele>
        <time>2021-11-20T20:20:57.688Z</time>
      </trkpt>
      <trkpt lat="47.437698" lon="7.884138">
        <ele>571.595067</ele>
        <time>2021-11-20T20:20:59.275Z</time>
      </trkpt>
      <trkpt lat="47.438143" lon="7.883754">
        <ele>570.214178</ele>
        <time>2021-11-20T20:21:04.626Z</time>
      </trkpt>
      <trkpt lat="47.438357" lon="7.883567">
        <ele>569.980642</ele>
        <time>2021-11-20T20:21:07.326Z</time>
      </trkpt>
      <trkpt lat="47.439100" lon="7.882918">
        <ele>569.169900</ele>
        <time>2021-11-20T20:21:18.457Z</time>
      </trkpt>
      <trkpt lat="47.439123" lon="7.882892">
        <ele>569.142700</ele>
        <time>2021-11-20T20:21:18.771Z</time>
      </trkpt>
      <trkpt lat="47.439522" lon="7.882447">
        <ele>568.865340</ele>
        <time>2021-11-20T20:21:27.643Z</time>
      </trkpt>
      <trkpt lat="47.439908" lon="7.882091">
        <ele>569.255821</ele>
        <time>2021-11-20T20:21:36.856Z</time>
      </trkpt>
      <trkpt lat="47.441149" lon="7.881398">
        <ele>570.100782</ele>
        <time>2021-11-20T20:22:02.543Z</time>
      </trkpt>
      <trkpt lat="47.441586" lon="7.881047">
        <ele>568.900766</ele>
        <time>2021-11-20T20:22:08.815Z</time>
      </trkpt>
      <trkpt lat="47.441857" lon="7.881057">
        <ele>568.246647</ele>
        <time>2021-11-20T20:22:11.864Z</time>
      </trkpt>
      <trkpt lat="47.442291" lon="7.881213">
        <ele>567.168916</ele>
        <time>2021-11-20T20:22:16.509Z</time>
      </trkpt>
      <trkpt lat="47.442521" lon="7.881151">
        <ele>566.604784</ele>
        <time>2021-11-20T20:22:18.791Z</time>
      </trkpt>
      <trkpt lat="47.443126" lon="7.880747">
        <ele>563.064929</ele>
        <time>2021-11-20T20:22:24.968Z</time>
      </trkpt>
      <trkpt lat="47.443625" lon="7.880261">
        <ele>558.755252</ele>
        <time>2021-11-20T20:22:30.326Z</time>
      </trkpt>
      <trkpt lat="47.444714" lon="7.879566">
        <ele>549.559545</ele>
        <time>2021-11-20T20:22:40.717Z</time>
      </trkpt>
      <trkpt lat="47.445120" lon="7.879015">
        <ele>544.676407</ele>
        <time>2021-11-20T20:22:45.518Z</time>
      </trkpt>
      <trkpt lat="47.445382" lon="7.878554">
        <ele>541.067873</ele>
        <time>2021-11-20T20:22:49.043Z</time>
      </trkpt>
      <trkpt lat="47.445685" lon="7.878051">
        <ele>537.037542</ele>
        <time>2021-11-20T20:22:53.009Z</time>
      </trkpt>
      <trkpt lat="47.445826" lon="7.877842">
        <ele>535.579907</ele>
        <time>2021-11-20T20:22:54.797Z</time>
      </trkpt>
      <trkpt lat="47.445927" lon="7.877724">
        <ele>534.640103</ele>
        <time>2021-11-20T20:22:55.908Z</time>
      </trkpt>
      <trkpt lat="47.446536" lon="7.877092">
        <ele>529.208010</ele>
        <time>2021-11-20T20:23:02.514Z</time>
      </trkpt>
      <trkpt lat="47.447329" lon="7.876409">
        <ele>522.732579</ele>
        <time>2021-11-20T20:23:10.887Z</time>
      </trkpt>
      <trkpt lat="47.447746" lon="7.875847">
        <ele>519.262146</ele>
        <time>2021-11-20T20:23:16.100Z</time>
      </trkpt>
      <trkpt lat="47.447997" lon="7.874897">
        <ele>515.019604</ele>
        <time>2021-11-20T20:23:22.434Z</time>
      </trkpt>
      <trkpt lat="47.448507" lon="7.873750">
        <ele>509.079966</ele>
        <time>2021-11-20T20:23:30.819Z</time>
      </trkpt>
      <trkpt lat="47.448587" lon="7.873347">
        <ele>507.220276</ele>
        <time>2021-11-20T20:23:33.388Z</time>
      </trkpt>
      <trkpt lat="47.448605" lon="7.873049">
        <ele>505.895544</ele>
        <time>2021-11-20T20:23:35.206Z</time>
      </trkpt>
      <trkpt lat="47.448610" lon="7.872984">
        <ele>505.605882</ele>
        <time>2021-11-20T20:23:35.588Z</time>
      </trkpt>
      <trkpt lat="47.448706" lon="7.872381">
        <ele>502.862942</ele>
        <time>2021-11-20T20:23:39.369Z</time>
      </trkpt>
      <trkpt lat="47.448811" lon="7.872095">
        <ele>501.422016</ele>
        <time>2021-11-20T20:23:41.316Z</time>
      </trkpt>
      <trkpt lat="47.448936" lon="7.871964">
        <ele>500.710929</ele>
        <time>2021-11-20T20:23:42.803Z</time>
      </trkpt>
      <trkpt lat="47.449717" lon="7.871501">
        <ele>497.581665</ele>
        <time>2021-11-20T20:23:50.809Z</time>
      </trkpt>
      <trkpt lat="47.449805" lon="7.871433">
        <ele>497.212403</ele>
        <time>2021-11-20T20:23:51.699Z</time>
      </trkpt>
      <trkpt lat="47.449861" lon="7.871361">
        <ele>496.936428</ele>
        <time>2021-11-20T20:23:53.363Z</time>
      </trkpt>
      <trkpt lat="47.449971" lon="7.870961">
        <ele>495.850457</ele>
        <time>2021-11-20T20:23:56.404Z</time>
      </trkpt>
      <trkpt lat="47.450147" lon="7.869535">
        <ele>493.487229</ele>
        <time>2021-11-20T20:24:08.002Z</time>
      </trkpt>
      <trkpt lat="47.450062" lon="7.869215">
        <ele>493.126371</ele>
        <time>2021-11-20T20:24:10.540Z</time>
      </trkpt>
      <trkpt lat="47.450059" lon="7.868882">
        <ele>492.776818</ele>
        <time>2021-11-20T20:24:13.477Z</time>
      </trkpt>
      <trkpt lat="47.450072" lon="7.868808">
        <ele>492.696569</ele>
        <time>2021-11-20T20:24:14.322Z</time>
      </trkpt>
      <trkpt lat="47.450089" lon="7.868711">
        <ele>492.591393</ele>
        <time>2021-11-20T20:24:15.018Z</time>
      </trkpt>
      <trkpt lat="47.450359" lon="7.867905">
        <ele>491.647295</ele>
        <time>2021-11-20T20:24:22.115Z</time>
      </trkpt>
      <trkpt lat="47.450665" lon="7.867098">
        <ele>489.024379</ele>
        <time>2021-11-20T20:24:28.797Z</time>
      </trkpt>
      <trkpt lat="47.451414" lon="7.865044">
        <ele>480.423311</ele>
        <time>2021-11-20T20:24:43.543Z</time>
      </trkpt>
      <trkpt lat="47.451727" lon="7.864230">
        <ele>474.676077</ele>
        <time>2021-11-20T20:24:49.092Z</time>
      </trkpt>
      <trkpt lat="47.451816" lon="7.864027">
        <ele>473.191198</ele>
        <time>2021-11-20T20:24:50.468Z</time>
      </trkpt>
      <trkpt lat="47.452008" lon="7.863750">
        <ele>470.756608</ele>
        <time>2021-11-20T20:24:52.781Z</time>
      </trkpt>
      <trkpt lat="47.452311" lon="7.863526">
        <ele>467.681970</ele>
        <time>2021-11-20T20:24:55.662Z</time>
      </trkpt>
      <trkpt lat="47.453016" lon="7.863287">
        <ele>459.789668</ele>
        <time>2021-11-20T20:25:01.745Z</time>
      </trkpt>
      <trkpt lat="47.453820" lon="7.863127">
        <ele>450.914001</ele>
        <time>2021-11-20T20:25:08.666Z</time>
      </trkpt>
      <trkpt lat="47.453853" lon="7.863104">
        <ele>450.514869</ele>
        <time>2021-11-20T20:25:08.973Z</time>
      </trkpt>
      <trkpt lat="47.454336" lon="7.862768">
        <ele>445.829895</ele>
        <time>2021-11-20T20:25:13.671Z</time>
      </trkpt>
      <trkpt lat="47.454531" lon="7.862552">
        <ele>444.118554</ele>
        <time>2021-11-20T20:25:15.817Z</time>
      </trkpt>
      <trkpt lat="47.454730" lon="7.862315">
        <ele>442.323826</ele>
        <time>2021-11-20T20:25:18.148Z</time>
      </trkpt>
      <trkpt lat="47.454866" lon="7.862196">
        <ele>441.213846</ele>
        <time>2021-11-20T20:25:19.528Z</time>
      </trkpt>
      <trkpt lat="47.455125" lon="7.862007">
        <ele>439.185146</ele>
        <time>2021-11-20T20:25:22.134Z</time>
      </trkpt>
      <trkpt lat="47.455376" lon="7.861826">
        <ele>437.223633</ele>
        <time>2021-11-20T20:25:24.762Z</time>
      </trkpt>
      <trkpt lat="47.455591" lon="7.861689">
        <ele>435.579200</ele>
        <time>2021-11-20T20:25:26.931Z</time>
      </trkpt>
      <trkpt lat="47.455726" lon="7.861615">
        <ele>434.759713</ele>
        <time>2021-11-20T20:25:28.293Z</time>
      </trkpt>
      <trkpt lat="47.455926" lon="7.861542">
        <ele>433.709764</ele>
        <time>2021-11-20T20:25:30.208Z</time>
      </trkpt>
      <trkpt lat="47.456312" lon="7.861510">
        <ele>431.739304</ele>
        <time>2021-11-20T20:25:33.877Z</time>
      </trkpt>
      <trkpt lat="47.457649" lon="7.861673">
        <ele>425.125682</ele>
        <time>2021-11-20T20:25:46.489Z</time>
      </trkpt>
      <trkpt lat="47.458293" lon="7.861469">
        <ele>422.396431</ele>
        <time>2021-11-20T20:25:52.789Z</time>
      </trkpt>
      <trkpt lat="47.459179" lon="7.861365">
        <ele>418.713315</ele>
        <time>2021-11-20T20:26:01.624Z</time>
      </trkpt>
      <trkpt lat="47.459254" lon="7.861330">
        <ele>418.433943</ele>
        <time>2021-11-20T20:26:02.382Z</time>
      </trkpt>
      <trkpt lat="47.459389" lon="7.861179">
        <ele>417.858726</ele>
        <time>2021-11-20T20:26:04.125Z</time>
      </trkpt>
      <trkpt lat="47.459600" lon="7.860868">
        <ele>416.846375</ele>
        <time>2021-11-20T20:26:07.087Z</time>
      </trkpt>
      <trkpt lat="47.459647" lon="7.860816">
        <ele>416.646902</ele>
        <time>2021-11-20T20:26:07.703Z</time>
      </trkpt>
      <trkpt lat="47.459745" lon="7.860750">
        <ele>416.280950</ele>
        <time>2021-11-20T20:26:08.770Z</time>
      </trkpt>
      <trkpt lat="47.459848" lon="7.860688">
        <ele>415.903028</ele>
        <time>2021-11-20T20:26:09.850Z</time>
      </trkpt>
      <trkpt lat="47.459995" lon="7.860600">
        <ele>415.364084</ele>
        <time>2021-11-20T20:26:11.471Z</time>
      </trkpt>
      <trkpt lat="47.460356" lon="7.860402">
        <ele>414.055596</ele>
        <time>2021-11-20T20:26:15.321Z</time>
      </trkpt>
      <trkpt lat="47.460663" lon="7.860234">
        <ele>412.943143</ele>
        <time>2021-11-20T20:26:18.612Z</time>
      </trkpt>
      <trkpt lat="47.460701" lon="7.860210">
        <ele>412.802720</ele>
        <time>2021-11-20T20:26:19.029Z</time>
      </trkpt>
      <trkpt lat="47.461004" lon="7.860032">
        <ele>411.844985</ele>
        <time>2021-11-20T20:26:22.376Z</time>
      </trkpt>
      <trkpt lat="47.461178" lon="7.859911">
        <ele>411.308618</ele>
        <time>2021-11-20T20:26:24.368Z</time>
      </trkpt>
      <trkpt lat="47.461373" lon="7.859791">
        <ele>410.719437</ele>
        <time>2021-11-20T20:26:26.530Z</time>
      </trkpt>
      <trkpt lat="47.461447" lon="7.859742">
        <ele>410.493262</ele>
        <time>2021-11-20T20:26:27.372Z</time>
      </trkpt>
      <trkpt lat="47.461640" lon="7.859623">
        <ele>409.909956</ele>
        <time>2021-11-20T20:26:29.518Z</time>
      </trkpt>
      <trkpt lat="47.461720" lon="7.859576">
        <ele>409.669826</ele>
        <time>2021-11-20T20:26:30.393Z</time>
      </trkpt>
      <trkpt lat="47.461854" lon="7.859481">
        <ele>409.255294</ele>
        <time>2021-11-20T20:26:31.931Z</time>
      </trkpt>
      <trkpt lat="47.461913" lon="7.859439">
        <ele>409.072636</ele>
        <time>2021-11-20T20:26:32.595Z</time>
      </trkpt>
      <trkpt lat="47.461991" lon="7.859364">
        <ele>408.813109</ele>
        <time>2021-11-20T20:26:33.552Z</time>
      </trkpt>
      <trkpt lat="47.462326" lon="7.858998">
        <ele>407.651290</ele>
        <time>2021-11-20T20:26:37.903Z</time>
      </trkpt>
      <trkpt lat="47.462428" lon="7.858872">
        <ele>407.418670</ele>
        <time>2021-11-20T20:26:39.337Z</time>
      </trkpt>
      <trkpt lat="47.462457" lon="7.858834">
        <ele>407.374027</ele>
        <time>2021-11-20T20:26:39.764Z</time>
      </trkpt>
      <trkpt lat="47.462481" lon="7.858795">
        <ele>407.332944</ele>
        <time>2021-11-20T20:26:40.137Z</time>
      </trkpt>
      <trkpt lat="47.462869" lon="7.858121">
        <ele>406.643326</ele>
        <time>2021-11-20T20:26:47.076Z</time>
      </trkpt>
      <trkpt lat="47.462920" lon="7.858064">
        <ele>406.569670</ele>
        <time>2021-11-20T20:26:47.880Z</time>
      </trkpt>
      <trkpt lat="47.462962" lon="7.858094">
        <ele>406.515927</ele>
        <time>2021-11-20T20:26:48.426Z</time>
      </trkpt>
      <trkpt lat="47.463015" lon="7.858142">
        <ele>406.444317</ele>
        <time>2021-11-20T20:26:49.202Z</time>
      </trkpt>
      <trkpt lat="47.463051" lon="7.858166">
        <ele>406.398817</ele>
        <time>2021-11-20T20:26:49.697Z</time>
      </trkpt>
      <trkpt lat="47.463081" lon="7.858188">
        <ele>406.360233</ele>
        <time>2021-11-20T20:26:50.171Z</time>
      </trkpt>
      <trkpt lat="47.463161" lon="7.858061">
        <ele>406.225008</ele>
        <time>2021-11-20T20:26:51.606Z</time>
      </trkpt>
      <trkpt lat="47.463762" lon="7.856925">
        <ele>405.257806</ele>
        <time>2021-11-20T20:27:04.629Z</time>
      </trkpt>
      <trkpt lat="47.463826" lon="7.856840">
        <ele>405.204048</ele>
        <time>2021-11-20T20:27:05.708Z</time>
      </trkpt>
      <trkpt lat="47.463900" lon="7.856772">
        <ele>405.149600</ele>
        <time>2021-11-20T20:27:06.778Z</time>
      </trkpt>
      <trkpt lat="47.464530" lon="7.856598">
        <ele>404.749048</ele>
        <time>2021-11-20T20:27:15.226Z</time>
      </trkpt>
      <trkpt lat="47.464600" lon="7.856587">
        <ele>404.705052</ele>
        <time>2021-11-20T20:27:16.076Z</time>
      </trkpt>
      <trkpt lat="47.464616" lon="7.856619">
        <ele>404.688235</ele>
        <time>2021-11-20T20:27:16.378Z</time>
      </trkpt>
      <trkpt lat="47.464696" lon="7.856697">
        <ele>404.628351</ele>
        <time>2021-11-20T20:27:17.603Z</time>
      </trkpt>
      <trkpt lat="47.464710" lon="7.856698">
        <ele>404.619591</ele>
        <time>2021-11-20T20:27:17.810Z</time>
      </trkpt>
      <trkpt lat="47.464723" lon="7.856699">
        <ele>404.611455</ele>
        <time>2021-11-20T20:27:17.959Z</time>
      </trkpt>
      <trkpt lat="47.464808" lon="7.856571">
        <ele>404.535645</ele>
        <time>2021-11-20T20:27:19.637Z</time>
      </trkpt>
      <trkpt lat="47.464813" lon="7.856540">
        <ele>404.522179</ele>
        <time>2021-11-20T20:27:19.901Z</time>
      </trkpt>
      <trkpt lat="47.464855" lon="7.856521">
        <ele>404.494729</ele>
        <time>2021-11-20T20:27:20.415Z</time>
      </trkpt>
      <trkpt lat="47.465400" lon="7.856122">
        <ele>404.243900</ele>
        <time>2021-11-20T20:27:28.073Z</time>
      </trkpt>
      <trkpt lat="47.465527" lon="7.856111">
        <ele>404.214633</ele>
        <time>2021-11-20T20:27:30.103Z</time>
      </trkpt>
      <trkpt lat="47.465550" lon="7.856132">
        <ele>404.208415</ele>
        <time>2021-11-20T20:27:30.403Z</time>
      </trkpt>
      <trkpt lat="47.465583" lon="7.856194">
        <ele>404.196143</ele>
        <time>2021-11-20T20:27:31.264Z</time>
      </trkpt>
      <trkpt lat="47.465709" lon="7.856610">
        <ele>404.125249</ele>
        <time>2021-11-20T20:27:35.347Z</time>
      </trkpt>
      <trkpt lat="47.465748" lon="7.856649">
        <ele>404.114419</ele>
        <time>2021-11-20T20:27:36.155Z</time>
      </trkpt>
      <trkpt lat="47.465801" lon="7.856657">
        <ele>404.102163</ele>
        <time>2021-11-20T20:27:36.791Z</time>
      </trkpt>
      <trkpt lat="47.466156" lon="7.856481">
        <ele>404.016030</ele>
        <time>2021-11-20T20:27:42.139Z</time>
      </trkpt>
      <trkpt lat="47.466235" lon="7.856461">
        <ele>403.997592</ele>
        <time>2021-11-20T20:27:43.151Z</time>
      </trkpt>
      <trkpt lat="47.466243" lon="7.856497">
        <ele>403.991699</ele>
        <time>2021-11-20T20:27:43.707Z</time>
      </trkpt>
      <trkpt lat="47.466284" lon="7.856540">
        <ele>403.980136</ele>
        <time>2021-11-20T20:27:44.700Z</time>
      </trkpt>
      <trkpt lat="47.466310" lon="7.856541">
        <ele>403.974153</ele>
        <time>2021-11-20T20:27:45.164Z</time>
      </trkpt>
      <trkpt lat="47.466322" lon="7.856655">
        <ele>403.956210</ele>
        <time>2021-11-20T20:27:46.388Z</time>
      </trkpt>
      <trkpt lat="47.466344" lon="7.856945">
        <ele>403.910826</ele>
        <time>2021-11-20T20:27:49.037Z</time>
      </trkpt>
      <trkpt lat="47.466347" lon="7.856973">
        <ele>403.906417</ele>
        <time>2021-11-20T20:27:49.664Z</time>
      </trkpt>
      <trkpt lat="47.466386" lon="7.857214">
        <ele>404.017006</ele>
        <time>2021-11-20T20:27:52.485Z</time>
      </trkpt>
      <trkpt lat="47.466442" lon="7.857555">
        <ele>404.179363</ele>
        <time>2021-11-20T20:27:56.124Z</time>
      </trkpt>
      <trkpt lat="47.466518" lon="7.858022">
        <ele>404.401598</ele>
        <time>2021-11-20T20:28:01.610Z</time>
      </trkpt>
      <trkpt lat="47.466576" lon="7.858236">
        <ele>404.508268</ele>
        <time>2021-11-20T20:28:04.719Z</time>
      </trkpt>
      <trkpt lat="47.466673" lon="7.858620">
        <ele>404.697928</ele>
        <time>2021-11-20T20:28:11.080Z</time>
      </trkpt>
      <trkpt lat="47.466824" lon="7.859137">
        <ele>404.958493</ele>
        <time>2021-11-20T20:28:20.447Z</time>
      </trkpt>
      <trkpt lat="47.466922" lon="7.859398">
        <ele>405.096623</ele>
        <time>2021-11-20T20:28:24.984Z</time>
      </trkpt>
      <trkpt lat="47.467047" lon="7.859682">
        <ele>405.302043</ele>
        <time>2021-11-20T20:28:30.559Z</time>
      </trkpt>
      <trkpt lat="47.467266" lon="7.860107">
        <ele>405.652007</ele>
        <time>2021-11-20T20:28:39.420Z</time>
      </trkpt>
      <trkpt lat="47.467944" lon="7.861300">
        <ele>406.672680</ele>
        <time>2021-11-20T20:29:04.138Z</time>
      </trkpt>
      <trkpt lat="47.468224" lon="7.861805">
        <ele>407.249724</ele>
        <time>2021-11-20T20:29:15.455Z</time>
      </trkpt>
      <trkpt lat="47.468543" lon="7.862357">
        <ele>408.045745</ele>
        <time>2021-11-20T20:29:28.143Z</time>
      </trkpt>
      <trkpt lat="47.468825" lon="7.862900">
        <ele>408.796305</ele>
        <time>2021-11-20T20:29:40.787Z</time>
      </trkpt>
      <trkpt lat="47.468859" lon="7.862978">
        <ele>408.898036</ele>
        <time>2021-11-20T20:29:42.587Z</time>
      </trkpt>
      <trkpt lat="47.468943" lon="7.863195">
        <ele>409.172129</ele>
        <time>2021-11-20T20:29:47.089Z</time>
      </trkpt>
      <trkpt lat="47.468986" lon="7.863323">
        <ele>409.328802</ele>
        <time>2021-11-20T20:29:49.757Z</time>
      </trkpt>
      <trkpt lat="47.469011" lon="7.863405">
        <ele>409.427401</ele>
        <time>2021-11-20T20:29:51.895Z</time>
      </trkpt>
      <trkpt lat="47.469305" lon="7.864692">
        <ele>410.912422</ele>
        <time>2021-11-20T20:30:17.048Z</time>
      </trkpt>
      <trkpt lat="47.469629" lon="7.865918">
        <ele>412.350086</ele>
        <time>2021-11-20T20:30:41.062Z</time>
      </trkpt>
      <trkpt lat="47.469710" lon="7.866208">
        <ele>412.692781</ele>
        <time>2021-11-20T20:30:46.043Z</time>
      </trkpt>
      <trkpt lat="47.469764" lon="7.866452">
        <ele>412.827556</ele>
        <time>2021-11-20T20:30:50.344Z</time>
      </trkpt>
      <trkpt lat="47.469808" lon="7.866690">
        <ele>412.952724</ele>
        <time>2021-11-20T20:30:54.198Z</time>
      </trkpt>
      <trkpt lat="47.469915" lon="7.867494">
        <ele>413.368409</ele>
        <time>2021-11-20T20:31:07.363Z</time>
      </trkpt>
      <trkpt lat="47.470127" lon="7.868484">
        <ele>413.895217</ele>
        <time>2021-11-20T20:31:22.758Z</time>
      </trkpt>
      <trkpt lat="47.470234" lon="7.868884">
        <ele>414.147502</ele>
        <time>2021-11-20T20:31:29.184Z</time>
      </trkpt>
      <trkpt lat="47.470309" lon="7.869201">
        <ele>414.410859</ele>
        <time>2021-11-20T20:31:34.555Z</time>
      </trkpt>
      <trkpt lat="47.470378" lon="7.869626">
        <ele>414.753594</ele>
        <time>2021-11-20T20:31:41.322Z</time>
      </trkpt>
      <trkpt lat="47.470397" lon="7.870147">
        <ele>415.162723</ele>
        <time>2021-11-20T20:31:50.055Z</time>
      </trkpt>
      <trkpt lat="47.470379" lon="7.870338">
        <ele>415.313941</ele>
        <time>2021-11-20T20:31:53.602Z</time>
      </trkpt>
      <trkpt lat="47.470350" lon="7.870570">
        <ele>415.498945</ele>
        <time>2021-11-20T20:31:56.521Z</time>
      </trkpt>
      <trkpt lat="47.470333" lon="7.870669">
        <ele>415.579040</ele>
        <time>2021-11-20T20:31:57.990Z</time>
      </trkpt>
      <trkpt lat="47.470316" lon="7.870753">
        <ele>415.647796</ele>
        <time>2021-11-20T20:31:59.501Z</time>
      </trkpt>
      <trkpt lat="47.470245" lon="7.871088">
        <ele>415.923091</ele>
        <time>2021-11-20T20:32:04.015Z</time>
      </trkpt>
      <trkpt lat="47.470217" lon="7.871214">
        <ele>416.027094</ele>
        <time>2021-11-20T20:32:06.045Z</time>
      </trkpt>
      <trkpt lat="47.470156" lon="7.871491">
        <ele>416.319764</ele>
        <time>2021-11-20T20:32:10.507Z</time>
      </trkpt>
      <trkpt lat="47.469969" lon="7.872276">
        <ele>417.327489</ele>
        <time>2021-11-20T20:32:22.864Z</time>
      </trkpt>
      <trkpt lat="47.469710" lon="7.873249">
        <ele>418.593595</ele>
        <time>2021-11-20T20:32:38.111Z</time>
      </trkpt>
      <trkpt lat="47.469682" lon="7.873326">
        <ele>418.699456</ele>
        <time>2021-11-20T20:32:39.888Z</time>
      </trkpt>
      <trkpt lat="47.469626" lon="7.873477">
        <ele>418.907986</ele>
        <time>2021-11-20T20:32:42.326Z</time>
      </trkpt>
      <trkpt lat="47.469489" lon="7.873809">
        <ele>419.386252</ele>
        <time>2021-11-20T20:32:48.355Z</time>
      </trkpt>
      <trkpt lat="47.469422" lon="7.873965">
        <ele>419.692335</ele>
        <time>2021-11-20T20:32:50.957Z</time>
      </trkpt>
      <trkpt lat="47.469224" lon="7.874328">
        <ele>420.464793</ele>
        <time>2021-11-20T20:32:58.234Z</time>
      </trkpt>
      <trkpt lat="47.469173" lon="7.874432">
        <ele>420.677573</ele>
        <time>2021-11-20T20:32:59.918Z</time>
      </trkpt>
      <trkpt lat="47.469136" lon="7.874516">
        <ele>420.843611</ele>
        <time>2021-11-20T20:33:01.412Z</time>
      </trkpt>
      <trkpt lat="47.469097" lon="7.874606">
        <ele>421.020655</ele>
        <time>2021-11-20T20:33:03.258Z</time>
      </trkpt>
      <trkpt lat="47.469068" lon="7.874689">
        <ele>421.175386</ele>
        <time>2021-11-20T20:33:05.103Z</time>
      </trkpt>
      <trkpt lat="47.469050" lon="7.874738">
        <ele>421.267742</ele>
        <time>2021-11-20T20:33:05.848Z</time>
      </trkpt>
      <trkpt lat="47.468989" lon="7.874967">
        <ele>421.675370</ele>
        <time>2021-11-20T20:33:09.448Z</time>
      </trkpt>
      <trkpt lat="47.468925" lon="7.875205">
        <ele>422.099562</ele>
        <time>2021-11-20T20:33:13.931Z</time>
      </trkpt>
      <trkpt lat="47.468806" lon="7.875696">
        <ele>422.963389</ele>
        <time>2021-11-20T20:33:21.771Z</time>
      </trkpt>
      <trkpt lat="47.468698" lon="7.876140">
        <ele>423.744854</ele>
        <time>2021-11-20T20:33:30.225Z</time>
      </trkpt>
      <trkpt lat="47.468639" lon="7.876439">
        <ele>425.127459</ele>
        <time>2021-11-20T20:33:36.338Z</time>
      </trkpt>
      <trkpt lat="47.468557" lon="7.876917">
        <ele>427.373731</ele>
        <time>2021-11-20T20:33:47.248Z</time>
      </trkpt>
      <trkpt lat="47.468377" lon="7.877826">
        <ele>431.688163</ele>
        <time>2021-11-20T20:34:16.953Z</time>
      </trkpt>
      <trkpt lat="47.468327" lon="7.877957">
        <ele>432.373404</ele>
        <time>2021-11-20T20:34:22.343Z</time>
      </trkpt>
      <trkpt lat="47.468308" lon="7.877998">
        <ele>432.599826</ele>
        <time>2021-11-20T20:34:25.517Z</time>
      </trkpt>
      <trkpt lat="47.468268" lon="7.878083">
        <ele>433.071574</ele>
        <time>2021-11-20T20:34:28.293Z</time>
      </trkpt>
      <trkpt lat="47.468104" lon="7.878354">
        <ele>434.728341</ele>
        <time>2021-11-20T20:34:38.896Z</time>
      </trkpt>
      <trkpt lat="47.468067" lon="7.878427">
        <ele>435.143938</ele>
        <time>2021-11-20T20:34:43.946Z</time>
      </trkpt>
      <trkpt lat="47.467908" lon="7.878819">
        <ele>437.071650</ele>
        <time>2021-11-20T20:34:57.121Z</time>
      </trkpt>
      <trkpt lat="47.467814" lon="7.879126">
        <ele>438.429843</ele>
        <time>2021-11-20T20:35:07.502Z</time>
      </trkpt>
      <trkpt lat="47.467758" lon="7.879308">
        <ele>439.235701</ele>
        <time>2021-11-20T20:35:14.619Z</time>
      </trkpt>
      <trkpt lat="47.467695" lon="7.879712">
        <ele>440.906569</ele>
        <time>2021-11-20T20:35:27.415Z</time>
      </trkpt>
      <trkpt lat="47.467712" lon="7.880819">
        <ele>445.368908</ele>
        <time>2021-11-20T20:35:56.231Z</time>
      </trkpt>
      <trkpt lat="47.467755" lon="7.881902">
        <ele>445.825334</ele>
        <time>2021-11-20T20:36:10.528Z</time>
      </trkpt>
      <trkpt lat="47.467789" lon="7.882188">
        <ele>445.533196</ele>
        <time>2021-11-20T20:36:12.714Z</time>
      </trkpt>
      <trkpt lat="47.467832" lon="7.882502">
        <ele>445.210889</ele>
        <time>2021-11-20T20:36:15.020Z</time>
      </trkpt>
      <trkpt lat="47.467854" lon="7.882590">
        <ele>445.116499</ele>
        <time>2021-11-20T20:36:15.611Z</time>
      </trkpt>
      <trkpt lat="47.468085" lon="7.883534">
        <ele>444.106512</ele>
        <time>2021-11-20T20:36:22.395Z</time>
      </trkpt>
      <trkpt lat="47.468175" lon="7.884477">
        <ele>442.621183</ele>
        <time>2021-11-20T20:36:28.734Z</time>
      </trkpt>
      <trkpt lat="47.468170" lon="7.884753">
        <ele>442.156240</ele>
        <time>2021-11-20T20:36:30.537Z</time>
      </trkpt>
      <trkpt lat="47.468160" lon="7.885131">
        <ele>441.519212</ele>
        <time>2021-11-20T20:36:33.362Z</time>
      </trkpt>
      <trkpt lat="47.468160" lon="7.885412">
        <ele>441.046016</ele>
        <time>2021-11-20T20:36:35.414Z</time>
      </trkpt>
      <trkpt lat="47.468174" lon="7.885724">
        <ele>440.519461</ele>
        <time>2021-11-20T20:36:37.709Z</time>
      </trkpt>
      <trkpt lat="47.468250" lon="7.886308">
        <ele>439.517965</ele>
        <time>2021-11-20T20:36:42.190Z</time>
      </trkpt>
      <trkpt lat="47.468546" lon="7.888014">
        <ele>439.428561</ele>
        <time>2021-11-20T20:36:59.271Z</time>
      </trkpt>
      <trkpt lat="47.468718" lon="7.888938">
        <ele>439.429861</ele>
        <time>2021-11-20T20:37:10.617Z</time>
      </trkpt>
      <trkpt lat="47.468951" lon="7.890216">
        <ele>440.357689</ele>
        <time>2021-11-20T20:37:27.598Z</time>
      </trkpt>
      <trkpt lat="47.469288" lon="7.891996">
        <ele>441.579934</ele>
        <time>2021-11-20T20:37:51.811Z</time>
      </trkpt>
      <trkpt lat="47.469496" lon="7.893085">
        <ele>442.216349</ele>
        <time>2021-11-20T20:38:05.876Z</time>
      </trkpt>
      <trkpt lat="47.469658" lon="7.894567">
        <ele>443.121824</ele>
        <time>2021-11-20T20:38:23.339Z</time>
      </trkpt>
      <trkpt lat="47.469691" lon="7.894970">
        <ele>443.399582</ele>
        <time>2021-11-20T20:38:27.903Z</time>
      </trkpt>
      <trkpt lat="47.469714" lon="7.895204">
        <ele>443.561374</ele>
        <time>2021-11-20T20:38:30.552Z</time>
      </trkpt>
      <trkpt lat="47.469728" lon="7.895384">
        <ele>443.685346</ele>
        <time>2021-11-20T20:38:32.555Z</time>
      </trkpt>
      <trkpt lat="47.469734" lon="7.895575">
        <ele>443.816174</ele>
        <time>2021-11-20T20:38:34.955Z</time>
      </trkpt>
      <trkpt lat="47.469747" lon="7.895922">
        <ele>444.053964</ele>
        <time>2021-11-20T20:38:39.019Z</time>
      </trkpt>
      <trkpt lat="47.469738" lon="7.896220">
        <ele>444.258066</ele>
        <time>2021-11-20T20:38:43.500Z</time>
      </trkpt>
      <trkpt lat="47.469692" lon="7.896826">
        <ele>444.849857</ele>
        <time>2021-11-20T20:38:52.645Z</time>
      </trkpt>
      <trkpt lat="47.469678" lon="7.896938">
        <ele>445.105454</ele>
        <time>2021-11-20T20:38:54.209Z</time>
      </trkpt>
      <trkpt lat="47.469652" lon="7.897139">
        <ele>445.564696</ele>
        <time>2021-11-20T20:38:57.623Z</time>
      </trkpt>
      <trkpt lat="47.469598" lon="7.897405">
        <ele>446.187957</ele>
        <time>2021-11-20T20:39:02.101Z</time>
      </trkpt>
      <trkpt lat="47.469534" lon="7.897638">
        <ele>446.752345</ele>
        <time>2021-11-20T20:39:06.370Z</time>
      </trkpt>
      <trkpt lat="47.469806" lon="7.897795">
        <ele>447.721611</ele>
        <time>2021-11-20T20:39:13.616Z</time>
      </trkpt>
      <trkpt lat="47.469999" lon="7.897879">
        <ele>448.389473</ele>
        <time>2021-11-20T20:39:19.289Z</time>
      </trkpt>
      <trkpt lat="47.471002" lon="7.898222">
        <ele>452.520134</ele>
        <time>2021-11-20T20:39:54.420Z</time>
      </trkpt>
      <trkpt lat="47.471597" lon="7.898344">
        <ele>455.663725</ele>
        <time>2021-11-20T20:40:16.528Z</time>
      </trkpt>
      <trkpt lat="47.471825" lon="7.898370">
        <ele>456.860461</ele>
        <time>2021-11-20T20:40:24.486Z</time>
      </trkpt>
      <trkpt lat="47.471910" lon="7.898392">
        <ele>457.312050</ele>
        <time>2021-11-20T20:40:27.868Z</time>
      </trkpt>
      <trkpt lat="47.473317" lon="7.898945">
        <ele>464.615688</ele>
        <time>2021-11-20T20:41:20.510Z</time>
      </trkpt>
      <trkpt lat="47.473931" lon="7.899567">
        <ele>468.262084</ele>
        <time>2021-11-20T20:41:43.783Z</time>
      </trkpt>
      <trkpt lat="47.474087" lon="7.899774">
        <ele>469.313685</ele>
        <time>2021-11-20T20:41:51.303Z</time>
      </trkpt>
      <trkpt lat="47.474186" lon="7.899915">
        <ele>470.020900</ele>
        <time>2021-11-20T20:41:55.961Z</time>
      </trkpt>
      <trkpt lat="47.474336" lon="7.900125">
        <ele>471.083705</ele>
        <time>2021-11-20T20:42:03.240Z</time>
      </trkpt>
      <trkpt lat="47.474617" lon="7.900560">
        <ele>473.176790</ele>
        <time>2021-11-20T20:42:17.347Z</time>
      </trkpt>
      <trkpt lat="47.474888" lon="7.900841">
        <ele>474.879895</ele>
        <time>2021-11-20T20:42:28.674Z</time>
      </trkpt>
      <trkpt lat="47.475163" lon="7.901034">
        <ele>476.446319</ele>
        <time>2021-11-20T20:42:39.652Z</time>
      </trkpt>
      <trkpt lat="47.475300" lon="7.901112">
        <ele>477.201781</ele>
        <time>2021-11-20T20:42:45.664Z</time>
      </trkpt>
      <trkpt lat="47.476364" lon="7.901870">
        <ele>484.171268</ele>
        <time>2021-11-20T20:43:30.329Z</time>
      </trkpt>
      <trkpt lat="47.476536" lon="7.901977">
        <ele>485.295390</ele>
        <time>2021-11-20T20:43:37.989Z</time>
      </trkpt>
      <trkpt lat="47.476982" lon="7.902234">
        <ele>488.179005</ele>
        <time>2021-11-20T20:43:56.963Z</time>
      </trkpt>
      <trkpt lat="47.478118" lon="7.903075">
        <ele>496.017127</ele>
        <time>2021-11-20T20:44:49.607Z</time>
      </trkpt>
      <trkpt lat="47.478182" lon="7.903109">
        <ele>496.437732</ele>
        <time>2021-11-20T20:44:52.946Z</time>
      </trkpt>
      <trkpt lat="47.478367" lon="7.903166">
        <ele>497.606566</ele>
        <time>2021-11-20T20:45:00.017Z</time>
      </trkpt>
      <trkpt lat="47.480980" lon="7.903461">
        <ele>512.051931</ele>
        <time>2021-11-20T20:46:32.473Z</time>
      </trkpt>
      <trkpt lat="47.481478" lon="7.903693">
        <ele>515.341350</ele>
        <time>2021-11-20T20:46:52.045Z</time>
      </trkpt>
      <trkpt lat="47.481588" lon="7.903776">
        <ele>516.119299</ele>
        <time>2021-11-20T20:46:56.891Z</time>
      </trkpt>
      <trkpt lat="47.481709" lon="7.903892">
        <ele>517.027664</ele>
        <time>2021-11-20T20:47:03.240Z</time>
      </trkpt>
      <trkpt lat="47.482157" lon="7.904346">
        <ele>520.448738</ele>
        <time>2021-11-20T20:47:27.386Z</time>
      </trkpt>
      <trkpt lat="47.482433" lon="7.904538">
        <ele>522.180812</ele>
        <time>2021-11-20T20:47:41.347Z</time>
      </trkpt>
      <trkpt lat="47.483101" lon="7.904680">
        <ele>525.962354</ele>
        <time>2021-11-20T20:48:12.448Z</time>
      </trkpt>
      <trkpt lat="47.483329" lon="7.904705">
        <ele>527.243446</ele>
        <time>2021-11-20T20:48:20.866Z</time>
      </trkpt>
      <trkpt lat="47.483385" lon="7.904708">
        <ele>527.557446</ele>
        <time>2021-11-20T20:48:23.246Z</time>
      </trkpt>
      <trkpt lat="47.484005" lon="7.904793">
        <ele>530.663348</ele>
        <time>2021-11-20T20:48:39.473Z</time>
      </trkpt>
      <trkpt lat="47.484064" lon="7.904808">
        <ele>530.584218</ele>
        <time>2021-11-20T20:48:40.569Z</time>
      </trkpt>
      <trkpt lat="47.484124" lon="7.904824">
        <ele>530.503632</ele>
        <time>2021-11-20T20:48:41.962Z</time>
      </trkpt>
      <trkpt lat="47.484248" lon="7.904856">
        <ele>530.337254</ele>
        <time>2021-11-20T20:48:44.521Z</time>
      </trkpt>
      <trkpt lat="47.484481" lon="7.904947">
        <ele>530.018725</ele>
        <time>2021-11-20T20:48:48.890Z</time>
      </trkpt>
      <trkpt lat="47.484713" lon="7.905133">
        <ele>529.669948</ele>
        <time>2021-11-20T20:48:53.512Z</time>
      </trkpt>
      <trkpt lat="47.484936" lon="7.905289">
        <ele>529.343906</ele>
        <time>2021-11-20T20:48:56.224Z</time>
      </trkpt>
      <trkpt lat="47.485049" lon="7.905336">
        <ele>529.188753</ele>
        <time>2021-11-20T20:48:57.529Z</time>
      </trkpt>
      <trkpt lat="47.485073" lon="7.905345">
        <ele>529.156027</ele>
        <time>2021-11-20T20:48:57.740Z</time>
      </trkpt>
      <trkpt lat="47.485331" lon="7.905337">
        <ele>528.814925</ele>
        <time>2021-11-20T20:49:00.427Z</time>
      </trkpt>
      <trkpt lat="47.485593" lon="7.905145">
        <ele>528.428470</ele>
        <time>2021-11-20T20:49:03.334Z</time>
      </trkpt>
      <trkpt lat="47.486049" lon="7.904262">
        <ele>524.185047</ele>
        <time>2021-11-20T20:49:10.190Z</time>
      </trkpt>
      <trkpt lat="47.486247" lon="7.904043">
        <ele>522.707785</ele>
        <time>2021-11-20T20:49:12.381Z</time>
      </trkpt>
      <trkpt lat="47.486480" lon="7.904016">
        <ele>521.311098</ele>
        <time>2021-11-20T20:49:14.548Z</time>
      </trkpt>
      <trkpt lat="47.486688" lon="7.904238">
        <ele>519.778498</ele>
        <time>2021-11-20T20:49:16.960Z</time>
      </trkpt>
      <trkpt lat="47.486721" lon="7.904326">
        <ele>519.372067</ele>
        <time>2021-11-20T20:49:17.563Z</time>
      </trkpt>
      <trkpt lat="47.486755" lon="7.904487">
        <ele>518.690876</ele>
        <time>2021-11-20T20:49:18.582Z</time>
      </trkpt>
      <trkpt lat="47.486724" lon="7.905485">
        <ele>515.243807</ele>
        <time>2021-11-20T20:49:24.745Z</time>
      </trkpt>
      <trkpt lat="47.486769" lon="7.905976">
        <ele>513.640787</ele>
        <time>2021-11-20T20:49:27.833Z</time>
      </trkpt>
      <trkpt lat="47.486969" lon="7.906583">
        <ele>511.456036</ele>
        <time>2021-11-20T20:49:32.124Z</time>
      </trkpt>
      <trkpt lat="47.487197" lon="7.906946">
        <ele>509.852725</ele>
        <time>2021-11-20T20:49:35.675Z</time>
      </trkpt>
      <trkpt lat="47.487378" lon="7.907191">
        <ele>508.788674</ele>
        <time>2021-11-20T20:49:38.254Z</time>
      </trkpt>
      <trkpt lat="47.487587" lon="7.907459">
        <ele>507.919868</ele>
        <time>2021-11-20T20:49:41.123Z</time>
      </trkpt>
      <trkpt lat="47.487763" lon="7.907711">
        <ele>507.150499</ele>
        <time>2021-11-20T20:49:43.642Z</time>
      </trkpt>
      <trkpt lat="47.488080" lon="7.908344">
        <ele>505.477886</ele>
        <time>2021-11-20T20:49:49.001Z</time>
      </trkpt>
      <trkpt lat="47.488185" lon="7.908663">
        <ele>504.724607</ele>
        <time>2021-11-20T20:49:51.532Z</time>
      </trkpt>
      <trkpt lat="47.488241" lon="7.908835">
        <ele>504.319292</ele>
        <time>2021-11-20T20:49:52.789Z</time>
      </trkpt>
      <trkpt lat="47.488366" lon="7.909318">
        <ele>503.186214</ele>
        <time>2021-11-20T20:49:56.393Z</time>
      </trkpt>
      <trkpt lat="47.488699" lon="7.910498">
        <ele>499.723299</ele>
        <time>2021-11-20T20:50:04.915Z</time>
      </trkpt>
      <trkpt lat="47.488908" lon="7.911009">
        <ele>498.105777</ele>
        <time>2021-11-20T20:50:08.751Z</time>
      </trkpt>
      <trkpt lat="47.489040" lon="7.911300">
        <ele>497.156666</ele>
        <time>2021-11-20T20:50:10.963Z</time>
      </trkpt>
      <trkpt lat="47.489216" lon="7.911685">
        <ele>495.956887</ele>
        <time>2021-11-20T20:50:14.052Z</time>
      </trkpt>
      <trkpt lat="47.489607" lon="7.912646">
        <ele>493.657414</ele>
        <time>2021-11-20T20:50:21.565Z</time>
      </trkpt>
      <trkpt lat="47.489843" lon="7.913398">
        <ele>491.957771</ele>
        <time>2021-11-20T20:50:27.437Z</time>
      </trkpt>
      <trkpt lat="47.489922" lon="7.913738">
        <ele>491.220765</ele>
        <time>2021-11-20T20:50:30.147Z</time>
      </trkpt>
      <trkpt lat="47.489951" lon="7.913893">
        <ele>490.891081</ele>
        <time>2021-11-20T20:50:31.340Z</time>
      </trkpt>
      <trkpt lat="47.489987" lon="7.914083">
        <ele>490.528339</ele>
        <time>2021-11-20T20:50:32.812Z</time>
      </trkpt>
      <trkpt lat="47.490283" lon="7.915612">
        <ele>487.956925</ele>
        <time>2021-11-20T20:50:44.355Z</time>
      </trkpt>
      <trkpt lat="47.490429" lon="7.916164">
        <ele>486.998568</ele>
        <time>2021-11-20T20:50:48.602Z</time>
      </trkpt>
      <trkpt lat="47.490607" lon="7.916690">
        <ele>485.880685</ele>
        <time>2021-11-20T20:50:52.812Z</time>
      </trkpt>
      <trkpt lat="47.490822" lon="7.917158">
        <ele>484.507800</ele>
        <time>2021-11-20T20:50:56.728Z</time>
      </trkpt>
      <trkpt lat="47.491324" lon="7.917985">
        <ele>481.810912</ele>
        <time>2021-11-20T20:51:04.179Z</time>
      </trkpt>
      <trkpt lat="47.492227" lon="7.918989">
        <ele>477.071897</ele>
        <time>2021-11-20T20:51:15.030Z</time>
      </trkpt>
      <trkpt lat="47.492584" lon="7.919482">
        <ele>474.765547</ele>
        <time>2021-11-20T20:51:19.636Z</time>
      </trkpt>
      <trkpt lat="47.492813" lon="7.919900">
        <ele>473.048062</ele>
        <time>2021-11-20T20:51:23.062Z</time>
      </trkpt>
      <trkpt lat="47.493132" lon="7.920716">
        <ele>470.242783</ele>
        <time>2021-11-20T20:51:29.118Z</time>
      </trkpt>
      <trkpt lat="47.493236" lon="7.921091">
        <ele>469.138720</ele>
        <time>2021-11-20T20:51:31.743Z</time>
      </trkpt>
      <trkpt lat="47.493307" lon="7.921373">
        <ele>468.319058</ele>
        <time>2021-11-20T20:51:33.718Z</time>
      </trkpt>
      <trkpt lat="47.493397" lon="7.921760">
        <ele>467.204316</ele>
        <time>2021-11-20T20:51:36.423Z</time>
      </trkpt>
      <trkpt lat="47.493708" lon="7.923049">
        <ele>463.589764</ele>
        <time>2021-11-20T20:51:45.613Z</time>
      </trkpt>
      <trkpt lat="47.494034" lon="7.924101">
        <ele>460.947425</ele>
        <time>2021-11-20T20:51:53.552Z</time>
      </trkpt>
      <trkpt lat="47.494438" lon="7.925289">
        <ele>457.885271</ele>
        <time>2021-11-20T20:52:02.630Z</time>
      </trkpt>
      <trkpt lat="47.494515" lon="7.925509">
        <ele>457.242424</ele>
        <time>2021-11-20T20:52:04.241Z</time>
      </trkpt>
      <trkpt lat="47.494945" lon="7.926765">
        <ele>453.589177</ele>
        <time>2021-11-20T20:52:13.622Z</time>
      </trkpt>
      <trkpt lat="47.495031" lon="7.927006">
        <ele>452.882036</ele>
        <time>2021-11-20T20:52:15.342Z</time>
      </trkpt>
      <trkpt lat="47.495268" lon="7.927740">
        <ele>450.884108</ele>
        <time>2021-11-20T20:52:20.713Z</time>
      </trkpt>
      <trkpt lat="47.495455" lon="7.928595">
        <ele>449.176526</ele>
        <time>2021-11-20T20:52:26.847Z</time>
      </trkpt>
      <trkpt lat="47.495530" lon="7.929063">
        <ele>448.262610</ele>
        <time>2021-11-20T20:52:30.155Z</time>
      </trkpt>
      <trkpt lat="47.495562" lon="7.929221">
        <ele>447.949197</ele>
        <time>2021-11-20T20:52:31.399Z</time>
      </trkpt>
      <trkpt lat="47.495622" lon="7.929400">
        <ele>447.569526</ele>
        <time>2021-11-20T20:52:32.907Z</time>
      </trkpt>
      <trkpt lat="47.495801" lon="7.929891">
        <ele>446.509438</ele>
        <time>2021-11-20T20:52:37.046Z</time>
      </trkpt>
      <trkpt lat="47.495985" lon="7.930428">
        <ele>445.749934</ele>
        <time>2021-11-20T20:52:41.439Z</time>
      </trkpt>
      <trkpt lat="47.496051" lon="7.930607">
        <ele>445.556223</ele>
        <time>2021-11-20T20:52:43.029Z</time>
      </trkpt>
      <trkpt lat="47.496117" lon="7.930763">
        <ele>445.381377</ele>
        <time>2021-11-20T20:52:44.416Z</time>
      </trkpt>
      <trkpt lat="47.496162" lon="7.930842">
        <ele>445.283220</ele>
        <time>2021-11-20T20:52:45.287Z</time>
      </trkpt>
      <trkpt lat="47.496205" lon="7.930904">
        <ele>445.198817</ele>
        <time>2021-11-20T20:52:45.912Z</time>
      </trkpt>
      <trkpt lat="47.496424" lon="7.931075">
        <ele>444.850687</ele>
        <time>2021-11-20T20:52:49.270Z</time>
      </trkpt>
      <trkpt lat="47.496998" lon="7.931330">
        <ele>444.008086</ele>
        <time>2021-11-20T20:52:56.845Z</time>
      </trkpt>
      <trkpt lat="47.497104" lon="7.931414">
        <ele>443.839035</ele>
        <time>2021-11-20T20:52:58.260Z</time>
      </trkpt>
      <trkpt lat="47.497221" lon="7.931528">
        <ele>443.642091</ele>
        <time>2021-11-20T20:52:59.912Z</time>
      </trkpt>
      <trkpt lat="47.497430" lon="7.931757">
        <ele>443.171180</ele>
        <time>2021-11-20T20:53:02.752Z</time>
      </trkpt>
      <trkpt lat="47.497676" lon="7.932013">
        <ele>442.613074</ele>
        <time>2021-11-20T20:53:05.913Z</time>
      </trkpt>
      <trkpt lat="47.497907" lon="7.932254">
        <ele>442.088559</ele>
        <time>2021-11-20T20:53:09.006Z</time>
      </trkpt>
      <trkpt lat="47.498068" lon="7.932426">
        <ele>441.720053</ele>
        <time>2021-11-20T20:53:11.141Z</time>
      </trkpt>
      <trkpt lat="47.498138" lon="7.932522">
        <ele>441.542945</ele>
        <time>2021-11-20T20:53:12.144Z</time>
      </trkpt>
      <trkpt lat="47.498196" lon="7.932613">
        <ele>441.386080</ele>
        <time>2021-11-20T20:53:13.055Z</time>
      </trkpt>
      <trkpt lat="47.498391" lon="7.932972">
        <ele>440.808496</ele>
        <time>2021-11-20T20:53:16.553Z</time>
      </trkpt>
      <trkpt lat="47.498431" lon="7.932995">
        <ele>440.728854</ele>
        <time>2021-11-20T20:53:17.044Z</time>
      </trkpt>
      <trkpt lat="47.498481" lon="7.933011">
        <ele>440.633914</ele>
        <time>2021-11-20T20:53:17.601Z</time>
      </trkpt>
      <trkpt lat="47.498633" lon="7.932932">
        <ele>440.334929</ele>
        <time>2021-11-20T20:53:19.567Z</time>
      </trkpt>
      <trkpt lat="47.498925" lon="7.932781">
        <ele>439.954761</ele>
        <time>2021-11-20T20:53:23.201Z</time>
      </trkpt>
      <trkpt lat="47.498997" lon="7.932758">
        <ele>439.870383</ele>
        <time>2021-11-20T20:53:23.992Z</time>
      </trkpt>
      <trkpt lat="47.499088" lon="7.932741">
        <ele>439.765312</ele>
        <time>2021-11-20T20:53:25.188Z</time>
      </trkpt>
      <trkpt lat="47.499354" lon="7.932769">
        <ele>439.459829</ele>
        <time>2021-11-20T20:53:28.322Z</time>
      </trkpt>
      <trkpt lat="47.499421" lon="7.932805">
        <ele>439.378177</ele>
        <time>2021-11-20T20:53:29.188Z</time>
      </trkpt>
      <trkpt lat="47.499538" lon="7.932868">
        <ele>439.235556</ele>
        <time>2021-11-20T20:53:30.603Z</time>
      </trkpt>
      <trkpt lat="47.499740" lon="7.933155">
        <ele>438.914805</ele>
        <time>2021-11-20T20:53:33.862Z</time>
      </trkpt>
      <trkpt lat="47.499822" lon="7.933272">
        <ele>438.784334</ele>
        <time>2021-11-20T20:53:35.153Z</time>
      </trkpt>
      <trkpt lat="47.499993" lon="7.933864">
        <ele>438.286056</ele>
        <time>2021-11-20T20:53:40.636Z</time>
      </trkpt>
      <trkpt lat="47.500034" lon="7.933965">
        <ele>438.202684</ele>
        <time>2021-11-20T20:53:41.522Z</time>
      </trkpt>
      <trkpt lat="47.500007" lon="7.933994">
        <ele>438.189105</ele>
        <time>2021-11-20T20:53:42.005Z</time>
      </trkpt>
      <trkpt lat="47.499971" lon="7.934127">
        <ele>438.149705</ele>
        <time>2021-11-20T20:53:43.730Z</time>
      </trkpt>
      <trkpt lat="47.499976" lon="7.934175">
        <ele>438.136349</ele>
        <time>2021-11-20T20:53:44.424Z</time>
      </trkpt>
      <trkpt lat="47.499991" lon="7.934221">
        <ele>438.122303</ele>
        <time>2021-11-20T20:53:44.821Z</time>
      </trkpt>
      <trkpt lat="47.500077" lon="7.934300">
        <ele>438.081103</ele>
        <time>2021-11-20T20:53:46.003Z</time>
      </trkpt>
      <trkpt lat="47.500111" lon="7.934299">
        <ele>438.067261</ele>
        <time>2021-11-20T20:53:46.541Z</time>
      </trkpt>
      <trkpt lat="47.500150" lon="7.934279">
        <ele>438.050461</ele>
        <time>2021-11-20T20:53:47.084Z</time>
      </trkpt>
      <trkpt lat="47.500213" lon="7.934131">
        <ele>438.002356</ele>
        <time>2021-11-20T20:53:49.429Z</time>
      </trkpt>
      <trkpt lat="47.500208" lon="7.934071">
        <ele>437.985732</ele>
        <time>2021-11-20T20:53:50.211Z</time>
      </trkpt>
      <trkpt lat="47.500275" lon="7.934029">
        <ele>437.956115</ele>
        <time>2021-11-20T20:53:51.072Z</time>
      </trkpt>
      <trkpt lat="47.500352" lon="7.933976">
        <ele>437.921549</ele>
        <time>2021-11-20T20:53:52.273Z</time>
      </trkpt>
      <trkpt lat="47.500386" lon="7.933937">
        <ele>437.904041</ele>
        <time>2021-11-20T20:53:52.913Z</time>
      </trkpt>
      <trkpt lat="47.500435" lon="7.933872">
        <ele>437.877258</ele>
        <time>2021-11-20T20:53:54.019Z</time>
      </trkpt>
      <trkpt lat="47.500843" lon="7.933102">
        <ele>437.608155</ele>
        <time>2021-11-20T20:54:03.258Z</time>
      </trkpt>
      <trkpt lat="47.500990" lon="7.932950">
        <ele>437.535166</ele>
        <time>2021-11-20T20:54:05.868Z</time>
      </trkpt>
      <trkpt lat="47.501075" lon="7.932885">
        <ele>437.496223</ele>
        <time>2021-11-20T20:54:06.876Z</time>
      </trkpt>
      <trkpt lat="47.501463" lon="7.932668">
        <ele>437.178854</ele>
        <time>2021-11-20T20:54:11.880Z</time>
      </trkpt>
      <trkpt lat="47.501794" lon="7.932466">
        <ele>436.886334</ele>
        <time>2021-11-20T20:54:16.552Z</time>
      </trkpt>
      <trkpt lat="47.501901" lon="7.932351">
        <ele>436.778298</ele>
        <time>2021-11-20T20:54:18.697Z</time>
      </trkpt>
      <trkpt lat="47.502023" lon="7.932158">
        <ele>436.632408</ele>
        <time>2021-11-20T20:54:20.716Z</time>
      </trkpt>
      <trkpt lat="47.502400" lon="7.931256">
        <ele>436.046965</ele>
        <time>2021-11-20T20:54:29.688Z</time>
      </trkpt>
      <trkpt lat="47.502613" lon="7.930856">
        <ele>435.751221</ele>
        <time>2021-11-20T20:54:33.772Z</time>
      </trkpt>
      <trkpt lat="47.502761" lon="7.930610">
        <ele>435.558302</ele>
        <time>2021-11-20T20:54:36.677Z</time>
      </trkpt>
      <trkpt lat="47.503014" lon="7.930220">
        <ele>435.241643</ele>
        <time>2021-11-20T20:54:41.399Z</time>
      </trkpt>
      <trkpt lat="47.503485" lon="7.929688">
        <ele>434.728034</ele>
        <time>2021-11-20T20:54:49.181Z</time>
      </trkpt>
      <trkpt lat="47.503528" lon="7.929650">
        <ele>434.684619</ele>
        <time>2021-11-20T20:54:49.666Z</time>
      </trkpt>
      <trkpt lat="47.503598" lon="7.929585">
        <ele>434.612984</ele>
        <time>2021-11-20T20:54:51.119Z</time>
      </trkpt>
      <trkpt lat="47.503815" lon="7.929426">
        <ele>434.321976</ele>
        <time>2021-11-20T20:54:53.807Z</time>
      </trkpt>
      <trkpt lat="47.504005" lon="7.929312">
        <ele>433.808782</ele>
        <time>2021-11-20T20:54:57.034Z</time>
      </trkpt>
      <trkpt lat="47.504650" lon="7.928941">
        <ele>432.076607</ele>
        <time>2021-11-20T20:55:04.754Z</time>
      </trkpt>
      <trkpt lat="47.504724" lon="7.928871">
        <ele>431.856779</ele>
        <time>2021-11-20T20:55:05.719Z</time>
      </trkpt>
      <trkpt lat="47.504799" lon="7.928777">
        <ele>431.610785</ele>
        <time>2021-11-20T20:55:06.593Z</time>
      </trkpt>
      <trkpt lat="47.505253" lon="7.928170">
        <ele>430.079416</ele>
        <time>2021-11-20T20:55:12.943Z</time>
      </trkpt>
      <trkpt lat="47.505814" lon="7.927657">
        <ele>427.771657</ele>
        <time>2021-11-20T20:55:19.245Z</time>
      </trkpt>
      <trkpt lat="47.505868" lon="7.927611">
        <ele>427.548049</ele>
        <time>2021-11-20T20:55:19.864Z</time>
      </trkpt>
      <trkpt lat="47.505881" lon="7.927601">
        <ele>427.495468</ele>
        <time>2021-11-20T20:55:20.000Z</time>
      </trkpt>
      <trkpt lat="47.506112" lon="7.927414">
        <ele>426.550524</ele>
        <time>2021-11-20T20:55:22.459Z</time>
      </trkpt>
      <trkpt lat="47.507856" lon="7.925990">
        <ele>420.815276</ele>
        <time>2021-11-20T20:55:43.231Z</time>
      </trkpt>
      <trkpt lat="47.508002" lon="7.925879">
        <ele>420.429928</ele>
        <time>2021-11-20T20:55:45.039Z</time>
      </trkpt>
      <trkpt lat="47.508106" lon="7.925799">
        <ele>420.154756</ele>
        <time>2021-11-20T20:55:46.436Z</time>
      </trkpt>
      <trkpt lat="47.508355" lon="7.925609">
        <ele>419.497052</ele>
        <time>2021-11-20T20:55:49.599Z</time>
      </trkpt>
      <trkpt lat="47.508667" lon="7.925295">
        <ele>418.785822</ele>
        <time>2021-11-20T20:55:53.854Z</time>
      </trkpt>
      <trkpt lat="47.509016" lon="7.924882">
        <ele>418.016793</ele>
        <time>2021-11-20T20:55:58.828Z</time>
      </trkpt>
      <trkpt lat="47.509032" lon="7.924863">
        <ele>417.981489</ele>
        <time>2021-11-20T20:55:59.056Z</time>
      </trkpt>
      <trkpt lat="47.509223" lon="7.924628">
        <ele>417.554025</ele>
        <time>2021-11-20T20:56:01.819Z</time>
      </trkpt>
      <trkpt lat="47.509572" lon="7.924311">
        <ele>416.849273</ele>
        <time>2021-11-20T20:56:06.449Z</time>
      </trkpt>
      <trkpt lat="47.509605" lon="7.924290">
        <ele>416.787448</ele>
        <time>2021-11-20T20:56:06.813Z</time>
      </trkpt>
      <trkpt lat="47.509676" lon="7.924247">
        <ele>416.655412</ele>
        <time>2021-11-20T20:56:07.682Z</time>
      </trkpt>
      <trkpt lat="47.509806" lon="7.924174">
        <ele>416.416100</ele>
        <time>2021-11-20T20:56:09.287Z</time>
      </trkpt>
      <trkpt lat="47.509886" lon="7.924134">
        <ele>416.270762</ele>
        <time>2021-11-20T20:56:10.275Z</time>
      </trkpt>
      <trkpt lat="47.510052" lon="7.924017">
        <ele>416.009110</ele>
        <time>2021-11-20T20:56:12.297Z</time>
      </trkpt>
      <trkpt lat="47.511001" lon="7.923070">
        <ele>414.541148</ele>
        <time>2021-11-20T20:56:25.673Z</time>
      </trkpt>
      <trkpt lat="47.511246" lon="7.922736">
        <ele>414.113955</ele>
        <time>2021-11-20T20:56:29.726Z</time>
      </trkpt>
      <trkpt lat="47.511415" lon="7.922417">
        <ele>413.811989</ele>
        <time>2021-11-20T20:56:33.153Z</time>
      </trkpt>
      <trkpt lat="47.511767" lon="7.921389">
        <ele>413.307544</ele>
        <time>2021-11-20T20:56:43.084Z</time>
      </trkpt>
      <trkpt lat="47.512039" lon="7.920835">
        <ele>413.007782</ele>
        <time>2021-11-20T20:56:49.112Z</time>
      </trkpt>
      <trkpt lat="47.512197" lon="7.920511">
        <ele>412.832879</ele>
        <time>2021-11-20T20:56:52.672Z</time>
      </trkpt>
      <trkpt lat="47.512331" lon="7.920282">
        <ele>412.700271</ele>
        <time>2021-11-20T20:56:55.463Z</time>
      </trkpt>
      <trkpt lat="47.512556" lon="7.919960">
        <ele>412.492896</ele>
        <time>2021-11-20T20:56:59.632Z</time>
      </trkpt>
      <trkpt lat="47.512905" lon="7.919578">
        <ele>412.205167</ele>
        <time>2021-11-20T20:57:05.470Z</time>
      </trkpt>
      <trkpt lat="47.514270" lon="7.918422">
        <ele>410.775999</ele>
        <time>2021-11-20T20:57:25.320Z</time>
      </trkpt>
      <trkpt lat="47.515086" lon="7.917919">
        <ele>409.527002</ele>
        <time>2021-11-20T20:57:35.568Z</time>
      </trkpt>
      <trkpt lat="47.515613" lon="7.917513">
        <ele>408.509364</ele>
        <time>2021-11-20T20:57:42.152Z</time>
      </trkpt>
      <trkpt lat="47.516287" lon="7.916882">
        <ele>406.653170</ele>
        <time>2021-11-20T20:57:50.512Z</time>
      </trkpt>
      <trkpt lat="47.516946" lon="7.916165">
        <ele>404.753773</ele>
        <time>2021-11-20T20:57:59.270Z</time>
      </trkpt>
      <trkpt lat="47.517038" lon="7.916039">
        <ele>404.508093</ele>
        <time>2021-11-20T20:58:00.586Z</time>
      </trkpt>
      <trkpt lat="47.517140" lon="7.915867">
        <ele>404.205035</ele>
        <time>2021-11-20T20:58:02.245Z</time>
      </trkpt>
      <trkpt lat="47.517832" lon="7.914445">
        <ele>401.884488</ele>
        <time>2021-11-20T20:58:15.258Z</time>
      </trkpt>
      <trkpt lat="47.517896" lon="7.914312">
        <ele>401.668273</ele>
        <time>2021-11-20T20:58:16.464Z</time>
      </trkpt>
      <trkpt lat="47.517976" lon="7.914148">
        <ele>401.400426</ele>
        <time>2021-11-20T20:58:17.989Z</time>
      </trkpt>
      <trkpt lat="47.518033" lon="7.914054">
        <ele>401.228699</ele>
        <time>2021-11-20T20:58:18.969Z</time>
      </trkpt>
      <trkpt lat="47.518820" lon="7.913091">
        <ele>398.696521</ele>
        <time>2021-11-20T20:58:36.059Z</time>
      </trkpt>
      <trkpt lat="47.519055" lon="7.912811">
        <ele>397.948406</ele>
        <time>2021-11-20T20:58:41.210Z</time>
      </trkpt>
      <trkpt lat="47.519183" lon="7.912644">
        <ele>397.525285</ele>
        <time>2021-11-20T20:58:43.323Z</time>
      </trkpt>
      <trkpt lat="47.519645" lon="7.911898">
        <ele>395.970121</ele>
        <time>2021-11-20T20:58:52.646Z</time>
      </trkpt>
      <trkpt lat="47.519921" lon="7.911269">
        <ele>394.897396</ele>
        <time>2021-11-20T20:59:01.828Z</time>
      </trkpt>
      <trkpt lat="47.519956" lon="7.911165">
        <ele>394.731223</ele>
        <time>2021-11-20T20:59:04.640Z</time>
      </trkpt>
      <trkpt lat="47.520007" lon="7.911009">
        <ele>394.483364</ele>
        <time>2021-11-20T20:59:05.980Z</time>
      </trkpt>
      <trkpt lat="47.520025" lon="7.910953">
        <ele>394.394671</ele>
        <time>2021-11-20T20:59:10.643Z</time>
      </trkpt>
      <trkpt lat="47.520698" lon="7.908161">
        <ele>391.596239</ele>
        <time>2021-11-20T20:59:46.256Z</time>
      </trkpt>
      <trkpt lat="47.520749" lon="7.908027">
        <ele>391.488479</ele>
        <time>2021-11-20T20:59:48.916Z</time>
      </trkpt>
      <trkpt lat="47.520794" lon="7.907911">
        <ele>391.394757</ele>
        <time>2021-11-20T20:59:49.896Z</time>
      </trkpt>
      <trkpt lat="47.521825" lon="7.905747">
        <ele>387.863017</ele>
        <time>2021-11-20T21:00:09.498Z</time>
      </trkpt>
      <trkpt lat="47.522377" lon="7.904823">
        <ele>385.672508</ele>
        <time>2021-11-20T21:00:18.056Z</time>
      </trkpt>
      <trkpt lat="47.522434" lon="7.904728">
        <ele>385.425615</ele>
        <time>2021-11-20T21:00:18.959Z</time>
      </trkpt>
      <trkpt lat="47.523266" lon="7.903337">
        <ele>381.847466</ele>
        <time>2021-11-20T21:00:31.805Z</time>
      </trkpt>
      <trkpt lat="47.523596" lon="7.902876">
        <ele>380.695344</ele>
        <time>2021-11-20T21:00:36.588Z</time>
      </trkpt>
      <trkpt lat="47.523736" lon="7.902614">
        <ele>380.122375</ele>
        <time>2021-11-20T21:00:38.928Z</time>
      </trkpt>
      <trkpt lat="47.524053" lon="7.902011">
        <ele>378.811849</ele>
        <time>2021-11-20T21:00:44.400Z</time>
      </trkpt>
      <trkpt lat="47.524105" lon="7.901935">
        <ele>378.626305</ele>
        <time>2021-11-20T21:00:46.659Z</time>
      </trkpt>
      <trkpt lat="47.524233" lon="7.901684">
        <ele>378.086905</ele>
        <time>2021-11-20T21:00:53.100Z</time>
      </trkpt>
      <trkpt lat="47.524351" lon="7.901456">
        <ele>377.594274</ele>
        <time>2021-11-20T21:00:59.097Z</time>
      </trkpt>
      <trkpt lat="47.524421" lon="7.901321">
        <ele>377.372991</ele>
        <time>2021-11-20T21:01:02.587Z</time>
      </trkpt>
      <trkpt lat="47.524527" lon="7.901116">
        <ele>377.074007</ele>
        <time>2021-11-20T21:01:07.998Z</time>
      </trkpt>
      <trkpt lat="47.524581" lon="7.901010">
        <ele>376.920251</ele>
        <time>2021-11-20T21:01:08.935Z</time>
      </trkpt>
      <trkpt lat="47.525195" lon="7.899847">
        <ele>375.210803</ele>
        <time>2021-11-20T21:01:20.262Z</time>
      </trkpt>
      <trkpt lat="47.525500" lon="7.899228">
        <ele>374.375478</ele>
        <time>2021-11-20T21:01:26.258Z</time>
      </trkpt>
      <trkpt lat="47.525605" lon="7.899006">
        <ele>374.207331</ele>
        <time>2021-11-20T21:01:28.606Z</time>
      </trkpt>
      <trkpt lat="47.525734" lon="7.898704">
        <ele>373.985641</ele>
        <time>2021-11-20T21:01:31.442Z</time>
      </trkpt>
      <trkpt lat="47.525783" lon="7.898584">
        <ele>373.898643</ele>
        <time>2021-11-20T21:01:32.802Z</time>
      </trkpt>
      <trkpt lat="47.525839" lon="7.898443">
        <ele>373.797163</ele>
        <time>2021-11-20T21:01:34.086Z</time>
      </trkpt>
      <trkpt lat="47.526238" lon="7.897258">
        <ele>372.975701</ele>
        <time>2021-11-20T21:01:45.460Z</time>
      </trkpt>
      <trkpt lat="47.526559" lon="7.895723">
        <ele>372.198046</ele>
        <time>2021-11-20T21:01:59.461Z</time>
      </trkpt>
      <trkpt lat="47.526565" lon="7.895692">
        <ele>372.183494</ele>
        <time>2021-11-20T21:01:59.695Z</time>
      </trkpt>
      <trkpt lat="47.526589" lon="7.895591">
        <ele>372.135178</ele>
        <time>2021-11-20T21:02:00.663Z</time>
      </trkpt>
      <trkpt lat="47.526615" lon="7.895508">
        <ele>372.093890</ele>
        <time>2021-11-20T21:02:01.521Z</time>
      </trkpt>
      <trkpt lat="47.526684" lon="7.895312">
        <ele>371.994147</ele>
        <time>2021-11-20T21:02:03.400Z</time>
      </trkpt>
      <trkpt lat="47.526716" lon="7.895243">
        <ele>371.956374</ele>
        <time>2021-11-20T21:02:04.155Z</time>
      </trkpt>
      <trkpt lat="47.526767" lon="7.895145">
        <ele>371.900542</ele>
        <time>2021-11-20T21:02:05.200Z</time>
      </trkpt>
      <trkpt lat="47.526858" lon="7.894982">
        <ele>371.805104</ele>
        <time>2021-11-20T21:02:07.056Z</time>
      </trkpt>
      <trkpt lat="47.527021" lon="7.894751">
        <ele>371.654336</ele>
        <time>2021-11-20T21:02:09.921Z</time>
      </trkpt>
      <trkpt lat="47.527340" lon="7.894491">
        <ele>371.375946</ele>
        <time>2021-11-20T21:02:14.576Z</time>
      </trkpt>
      <trkpt lat="47.527746" lon="7.894239">
        <ele>371.021102</ele>
        <time>2021-11-20T21:02:20.199Z</time>
      </trkpt>
      <trkpt lat="47.527849" lon="7.894151">
        <ele>370.925251</ele>
        <time>2021-11-20T21:02:21.640Z</time>
      </trkpt>
      <trkpt lat="47.528348" lon="7.893564">
        <ele>370.411576</ele>
        <time>2021-11-20T21:02:29.825Z</time>
      </trkpt>
      <trkpt lat="47.528729" lon="7.893229">
        <ele>370.010368</ele>
        <time>2021-11-20T21:02:35.342Z</time>
      </trkpt>
      <trkpt lat="47.529904" lon="7.892770">
        <ele>368.468938</ele>
        <time>2021-11-20T21:02:49.772Z</time>
      </trkpt>
      <trkpt lat="47.530382" lon="7.892408">
        <ele>367.775331</ele>
        <time>2021-11-20T21:02:55.861Z</time>
      </trkpt>
      <trkpt lat="47.530590" lon="7.892213">
        <ele>367.399315</ele>
        <time>2021-11-20T21:02:58.646Z</time>
      </trkpt>
      <trkpt lat="47.531142" lon="7.891658">
        <ele>366.380217</ele>
        <time>2021-11-20T21:03:06.137Z</time>
      </trkpt>
      <trkpt lat="47.531230" lon="7.891551">
        <ele>366.206304</ele>
        <time>2021-11-20T21:03:07.457Z</time>
      </trkpt>
      <trkpt lat="47.531612" lon="7.891014">
        <ele>365.401826</ele>
        <time>2021-11-20T21:03:13.584Z</time>
      </trkpt>
      <trkpt lat="47.531750" lon="7.890821">
        <ele>365.111909</ele>
        <time>2021-11-20T21:03:15.839Z</time>
      </trkpt>
      <trkpt lat="47.531801" lon="7.890722">
        <ele>365.011193</ele>
        <time>2021-11-20T21:03:16.809Z</time>
      </trkpt>
      <trkpt lat="47.531882" lon="7.890580">
        <ele>364.864189</ele>
        <time>2021-11-20T21:03:18.422Z</time>
      </trkpt>
      <trkpt lat="47.532109" lon="7.890107">
        <ele>364.405279</ele>
        <time>2021-11-20T21:03:23.154Z</time>
      </trkpt>
      <trkpt lat="47.532138" lon="7.890043">
        <ele>364.344327</ele>
        <time>2021-11-20T21:03:23.742Z</time>
      </trkpt>
      <trkpt lat="47.532183" lon="7.889944">
        <ele>364.249950</ele>
        <time>2021-11-20T21:03:24.711Z</time>
      </trkpt>
      <trkpt lat="47.532545" lon="7.888809">
        <ele>363.257299</ele>
        <time>2021-11-20T21:03:34.622Z</time>
      </trkpt>
      <trkpt lat="47.532777" lon="7.888012">
        <ele>362.662831</ele>
        <time>2021-11-20T21:03:42.040Z</time>
      </trkpt>
      <trkpt lat="47.533028" lon="7.887167">
        <ele>362.090726</ele>
        <time>2021-11-20T21:03:50.129Z</time>
      </trkpt>
      <trkpt lat="47.533320" lon="7.886217">
        <ele>361.443855</ele>
        <time>2021-11-20T21:03:58.338Z</time>
      </trkpt>
      <trkpt lat="47.533339" lon="7.886156">
        <ele>361.402223</ele>
        <time>2021-11-20T21:03:59.340Z</time>
      </trkpt>
      <trkpt lat="47.533541" lon="7.885448">
        <ele>360.895894</ele>
        <time>2021-11-20T21:04:05.704Z</time>
      </trkpt>
      <trkpt lat="47.533746" lon="7.884696">
        <ele>360.357311</ele>
        <time>2021-11-20T21:04:12.341Z</time>
      </trkpt>
      <trkpt lat="47.534057" lon="7.883509">
        <ele>359.543346</ele>
        <time>2021-11-20T21:04:23.290Z</time>
      </trkpt>
      <trkpt lat="47.534289" lon="7.882849">
        <ele>359.294110</ele>
        <time>2021-11-20T21:04:29.031Z</time>
      </trkpt>
      <trkpt lat="47.534829" lon="7.881516">
        <ele>358.773416</ele>
        <time>2021-11-20T21:04:43.818Z</time>
      </trkpt>
      <trkpt lat="47.535261" lon="7.880868">
        <ele>358.463564</ele>
        <time>2021-11-20T21:04:53.247Z</time>
      </trkpt>
      <trkpt lat="47.535301" lon="7.880830">
        <ele>358.439459</ele>
        <time>2021-11-20T21:04:53.823Z</time>
      </trkpt>
      <trkpt lat="47.535358" lon="7.880775">
        <ele>358.404951</ele>
        <time>2021-11-20T21:04:55.239Z</time>
      </trkpt>
      <trkpt lat="47.536321" lon="7.880046">
        <ele>357.856362</ele>
        <time>2021-11-20T21:05:09.196Z</time>
      </trkpt>
      <trkpt lat="47.536438" lon="7.879933">
        <ele>357.785511</ele>
        <time>2021-11-20T21:05:11.096Z</time>
      </trkpt>
      <trkpt lat="47.536535" lon="7.879824">
        <ele>357.609845</ele>
        <time>2021-11-20T21:05:12.323Z</time>
      </trkpt>
      <trkpt lat="47.536647" lon="7.879671">
        <ele>357.345455</ele>
        <time>2021-11-20T21:05:14.407Z</time>
      </trkpt>
      <trkpt lat="47.536958" lon="7.879251">
        <ele>356.615139</ele>
        <time>2021-11-20T21:05:19.286Z</time>
      </trkpt>
      <trkpt lat="47.537228" lon="7.878774">
        <ele>355.885893</ele>
        <time>2021-11-20T21:05:23.928Z</time>
      </trkpt>
      <trkpt lat="47.537282" lon="7.878657">
        <ele>355.719855</ele>
        <time>2021-11-20T21:05:24.885Z</time>
      </trkpt>
      <trkpt lat="47.537743" lon="7.877063">
        <ele>353.958093</ele>
        <time>2021-11-20T21:05:37.724Z</time>
      </trkpt>
      <trkpt lat="47.538334" lon="7.875552">
        <ele>352.486440</ele>
        <time>2021-11-20T21:05:52.283Z</time>
      </trkpt>
      <trkpt lat="47.538497" lon="7.875293">
        <ele>352.310217</ele>
        <time>2021-11-20T21:05:55.398Z</time>
      </trkpt>
      <trkpt lat="47.538559" lon="7.875230">
        <ele>352.269376</ele>
        <time>2021-11-20T21:05:56.257Z</time>
      </trkpt>
      <trkpt lat="47.538708" lon="7.875117">
        <ele>352.178450</ele>
        <time>2021-11-20T21:05:58.581Z</time>
      </trkpt>
      <trkpt lat="47.538883" lon="7.875038">
        <ele>352.079074</ele>
        <time>2021-11-20T21:06:00.857Z</time>
      </trkpt>
      <trkpt lat="47.538985" lon="7.874994">
        <ele>352.021367</ele>
        <time>2021-11-20T21:06:02.521Z</time>
      </trkpt>
      <trkpt lat="47.539198" lon="7.874910">
        <ele>351.901637</ele>
        <time>2021-11-20T21:06:05.776Z</time>
      </trkpt>
      <trkpt lat="47.539646" lon="7.874604">
        <ele>351.633661</ele>
        <time>2021-11-20T21:06:12.607Z</time>
      </trkpt>
      <trkpt lat="47.539688" lon="7.874574">
        <ele>351.608334</ele>
        <time>2021-11-20T21:06:13.248Z</time>
      </trkpt>
      <trkpt lat="47.539872" lon="7.874471">
        <ele>351.501487</ele>
        <time>2021-11-20T21:06:15.544Z</time>
      </trkpt>
      <trkpt lat="47.539972" lon="7.874430">
        <ele>351.445126</ele>
        <time>2021-11-20T21:06:17.089Z</time>
      </trkpt>
      <trkpt lat="47.540377" lon="7.874340">
        <ele>351.427326</ele>
        <time>2021-11-20T21:06:22.242Z</time>
      </trkpt>
      <trkpt lat="47.540403" lon="7.874334">
        <ele>351.427326</ele>
        <time>2021-11-20T21:06:22.879Z</time>
      </trkpt>
      <trkpt lat="47.540642" lon="7.874253">
        <ele>351.427326</ele>
        <time>2021-11-20T21:06:25.719Z</time>
      </trkpt>
      <trkpt lat="47.540711" lon="7.874222">
        <ele>351.427326</ele>
        <time>2021-11-20T21:06:26.626Z</time>
      </trkpt>
      <trkpt lat="47.540777" lon="7.874176">
        <ele>351.427326</ele>
        <time>2021-11-20T21:06:27.872Z</time>
      </trkpt>
      <trkpt lat="47.540851" lon="7.874125">
        <ele>351.427326</ele>
        <time>2021-11-20T21:06:28.701Z</time>
      </trkpt>
      <trkpt lat="47.541294" lon="7.873703">
        <ele>351.427326</ele>
        <time>2021-11-20T21:06:35.297Z</time>
      </trkpt>
      <trkpt lat="47.541542" lon="7.873281">
        <ele>351.427326</ele>
        <time>2021-11-20T21:06:40.074Z</time>
      </trkpt>
    </trkseg>
  </trk>
</gpx>